<?xml version="1.0" encoding="UTF-8" standalone="no" ?>
<gpx xmlns="http://www.topografix.com/GPX/1/1" xmlns:xsi="http://www.w3.org/2001/XMLSchema-instance" xsi:schemaLocation="http://www.topografix.com/GPX/1/1 http://www.topografix.com/GPX/1/1/gpx.xsd" version="1.1" creator="VisuGPX - https://www.visugpx.com">
  <metadata>
    <name>runtastic_20211120_0846</name>
    <desc><![CDATA[un rando très sympathique ! Offre de beau point de vue par beau temps vous pouvez voir la vallée de l'Hérault, le pic saint loup au loin, ou même si vous avez du très beau temps la mer).
Pour couronner le tout le visite de la grotte des fées vers la fin de la randonnée. pensez à prendre des lampes.]]></desc>
  </metadata>
  <trk>
    <name><![CDATA[runtastic_20211120_0846]]></name>
    <trkseg>
      <trkpt lat="43.71213" lon="3.49386">
        <ele>342</ele>
        <time>2021-11-20T08:46:07.000Z</time>
      </trkpt>
      <trkpt lat="43.71213" lon="3.49439">
        <ele>344</ele>
        <time>2021-11-20T08:46:28.000Z</time>
      </trkpt>
      <trkpt lat="43.71224" lon="3.49485">
        <ele>344</ele>
        <time>2021-11-20T08:46:46.000Z</time>
      </trkpt>
      <trkpt lat="43.71233" lon="3.49516">
        <ele>345</ele>
        <time>2021-11-20T08:47:05.000Z</time>
      </trkpt>
      <trkpt lat="43.71233" lon="3.49534">
        <ele>345</ele>
        <time>2021-11-20T08:47:15.000Z</time>
      </trkpt>
      <trkpt lat="43.71225" lon="3.49582">
        <ele>347</ele>
        <time>2021-11-20T08:47:52.000Z</time>
      </trkpt>
      <trkpt lat="43.71225" lon="3.49595">
        <ele>347</ele>
        <time>2021-11-20T08:47:59.000Z</time>
      </trkpt>
      <trkpt lat="43.71227" lon="3.49597">
        <ele>347</ele>
        <time>2021-11-20T08:48:01.000Z</time>
      </trkpt>
      <trkpt lat="43.71228" lon="3.49599">
        <ele>347</ele>
        <time>2021-11-20T08:48:03.000Z</time>
      </trkpt>
      <trkpt lat="43.71229" lon="3.496">
        <ele>347</ele>
        <time>2021-11-20T08:48:05.000Z</time>
      </trkpt>
      <trkpt lat="43.71231" lon="3.49602">
        <ele>347</ele>
        <time>2021-11-20T08:48:07.000Z</time>
      </trkpt>
      <trkpt lat="43.71242" lon="3.49603">
        <ele>348</ele>
        <time>2021-11-20T08:48:19.000Z</time>
      </trkpt>
      <trkpt lat="43.71258" lon="3.49604">
        <ele>349</ele>
        <time>2021-11-20T08:48:31.000Z</time>
      </trkpt>
      <trkpt lat="43.71266" lon="3.49607">
        <ele>350</ele>
        <time>2021-11-20T08:48:39.000Z</time>
      </trkpt>
      <trkpt lat="43.71274" lon="3.49611">
        <ele>350</ele>
        <time>2021-11-20T08:48:47.000Z</time>
      </trkpt>
      <trkpt lat="43.71283" lon="3.49616">
        <ele>351</ele>
        <time>2021-11-20T08:48:55.000Z</time>
      </trkpt>
      <trkpt lat="43.71291" lon="3.49622">
        <ele>351</ele>
        <time>2021-11-20T08:49:03.000Z</time>
      </trkpt>
      <trkpt lat="43.71299" lon="3.49628">
        <ele>351</ele>
        <time>2021-11-20T08:49:12.000Z</time>
      </trkpt>
      <trkpt lat="43.71307" lon="3.49634">
        <ele>352</ele>
        <time>2021-11-20T08:49:20.000Z</time>
      </trkpt>
      <trkpt lat="43.71314" lon="3.49641">
        <ele>352</ele>
        <time>2021-11-20T08:49:29.000Z</time>
      </trkpt>
      <trkpt lat="43.71322" lon="3.49647">
        <ele>352</ele>
        <time>2021-11-20T08:49:37.000Z</time>
      </trkpt>
      <trkpt lat="43.71326" lon="3.49652">
        <ele>352</ele>
        <time>2021-11-20T08:49:41.000Z</time>
      </trkpt>
      <trkpt lat="43.7133" lon="3.49656">
        <ele>352</ele>
        <time>2021-11-20T08:49:46.000Z</time>
      </trkpt>
      <trkpt lat="43.71333" lon="3.49659">
        <ele>352</ele>
        <time>2021-11-20T08:49:50.000Z</time>
      </trkpt>
      <trkpt lat="43.71336" lon="3.49662">
        <ele>351</ele>
        <time>2021-11-20T08:49:54.000Z</time>
      </trkpt>
      <trkpt lat="43.7134" lon="3.49665">
        <ele>351</ele>
        <time>2021-11-20T08:49:58.000Z</time>
      </trkpt>
      <trkpt lat="43.71345" lon="3.49667">
        <ele>351</ele>
        <time>2021-11-20T08:50:02.000Z</time>
      </trkpt>
      <trkpt lat="43.71349" lon="3.49668">
        <ele>350</ele>
        <time>2021-11-20T08:50:05.000Z</time>
      </trkpt>
      <trkpt lat="43.71354" lon="3.49669">
        <ele>350</ele>
        <time>2021-11-20T08:50:09.000Z</time>
      </trkpt>
      <trkpt lat="43.71362" lon="3.49671">
        <ele>350</ele>
        <time>2021-11-20T08:50:15.000Z</time>
      </trkpt>
      <trkpt lat="43.7137" lon="3.49674">
        <ele>350</ele>
        <time>2021-11-20T08:50:21.000Z</time>
      </trkpt>
      <trkpt lat="43.71379" lon="3.49676">
        <ele>349</ele>
        <time>2021-11-20T08:50:26.000Z</time>
      </trkpt>
      <trkpt lat="43.71388" lon="3.49678">
        <ele>349</ele>
        <time>2021-11-20T08:50:32.000Z</time>
      </trkpt>
      <trkpt lat="43.71403" lon="3.49689">
        <ele>347</ele>
        <time>2021-11-20T08:50:47.000Z</time>
      </trkpt>
      <trkpt lat="43.71407" lon="3.49696">
        <ele>346</ele>
        <time>2021-11-20T08:50:52.000Z</time>
      </trkpt>
      <trkpt lat="43.71409" lon="3.49703">
        <ele>346</ele>
        <time>2021-11-20T08:50:57.000Z</time>
      </trkpt>
      <trkpt lat="43.7141" lon="3.49711">
        <ele>345</ele>
        <time>2021-11-20T08:51:02.000Z</time>
      </trkpt>
      <trkpt lat="43.71409" lon="3.49718">
        <ele>344</ele>
        <time>2021-11-20T08:51:07.000Z</time>
      </trkpt>
      <trkpt lat="43.71406" lon="3.49731">
        <ele>344</ele>
        <time>2021-11-20T08:51:15.000Z</time>
      </trkpt>
      <trkpt lat="43.71401" lon="3.49747">
        <ele>343</ele>
        <time>2021-11-20T08:51:22.000Z</time>
      </trkpt>
      <trkpt lat="43.71399" lon="3.49752">
        <ele>343</ele>
        <time>2021-11-20T08:51:25.000Z</time>
      </trkpt>
      <trkpt lat="43.71398" lon="3.49757">
        <ele>343</ele>
        <time>2021-11-20T08:51:27.000Z</time>
      </trkpt>
      <trkpt lat="43.71398" lon="3.49761">
        <ele>343</ele>
        <time>2021-11-20T08:51:30.000Z</time>
      </trkpt>
      <trkpt lat="43.71397" lon="3.49765">
        <ele>343</ele>
        <time>2021-11-20T08:51:32.000Z</time>
      </trkpt>
      <trkpt lat="43.71397" lon="3.49768">
        <ele>343</ele>
        <time>2021-11-20T08:51:33.000Z</time>
      </trkpt>
      <trkpt lat="43.71396" lon="3.4977">
        <ele>343</ele>
        <time>2021-11-20T08:51:34.000Z</time>
      </trkpt>
      <trkpt lat="43.71396" lon="3.49771">
        <ele>343</ele>
        <time>2021-11-20T08:51:35.000Z</time>
      </trkpt>
      <trkpt lat="43.71396" lon="3.49772">
        <ele>343</ele>
        <time>2021-11-20T08:51:36.000Z</time>
      </trkpt>
      <trkpt lat="43.71396" lon="3.49774">
        <ele>343</ele>
        <time>2021-11-20T08:51:37.000Z</time>
      </trkpt>
      <trkpt lat="43.71396" lon="3.49775">
        <ele>343</ele>
        <time>2021-11-20T08:51:39.000Z</time>
      </trkpt>
      <trkpt lat="43.71396" lon="3.49777">
        <ele>343</ele>
        <time>2021-11-20T08:51:40.000Z</time>
      </trkpt>
      <trkpt lat="43.71396" lon="3.49779">
        <ele>343</ele>
        <time>2021-11-20T08:51:41.000Z</time>
      </trkpt>
      <trkpt lat="43.71396" lon="3.4978">
        <ele>343</ele>
        <time>2021-11-20T08:51:42.000Z</time>
      </trkpt>
      <trkpt lat="43.71396" lon="3.49782">
        <ele>343</ele>
        <time>2021-11-20T08:51:43.000Z</time>
      </trkpt>
      <trkpt lat="43.71396" lon="3.49784">
        <ele>343</ele>
        <time>2021-11-20T08:51:44.000Z</time>
      </trkpt>
      <trkpt lat="43.71396" lon="3.49785">
        <ele>343</ele>
        <time>2021-11-20T08:51:45.000Z</time>
      </trkpt>
      <trkpt lat="43.71397" lon="3.49787">
        <ele>343</ele>
        <time>2021-11-20T08:51:46.000Z</time>
      </trkpt>
      <trkpt lat="43.71397" lon="3.49789">
        <ele>343</ele>
        <time>2021-11-20T08:51:47.000Z</time>
      </trkpt>
      <trkpt lat="43.71397" lon="3.4979">
        <ele>343</ele>
        <time>2021-11-20T08:51:48.000Z</time>
      </trkpt>
      <trkpt lat="43.71397" lon="3.49792">
        <ele>343</ele>
        <time>2021-11-20T08:51:49.000Z</time>
      </trkpt>
      <trkpt lat="43.71401" lon="3.49805">
        <ele>343</ele>
        <time>2021-11-20T08:51:57.000Z</time>
      </trkpt>
      <trkpt lat="43.71403" lon="3.49809">
        <ele>343</ele>
        <time>2021-11-20T08:52:00.000Z</time>
      </trkpt>
      <trkpt lat="43.71405" lon="3.49814">
        <ele>343</ele>
        <time>2021-11-20T08:52:03.000Z</time>
      </trkpt>
      <trkpt lat="43.71413" lon="3.49825">
        <ele>342</ele>
        <time>2021-11-20T08:52:13.000Z</time>
      </trkpt>
      <trkpt lat="43.71434" lon="3.49843">
        <ele>340</ele>
        <time>2021-11-20T08:52:30.000Z</time>
      </trkpt>
      <trkpt lat="43.71461" lon="3.49877">
        <ele>336</ele>
        <time>2021-11-20T08:53:00.000Z</time>
      </trkpt>
      <trkpt lat="43.71476" lon="3.49898">
        <ele>334</ele>
        <time>2021-11-20T08:53:17.000Z</time>
      </trkpt>
      <trkpt lat="43.71489" lon="3.49906">
        <ele>332</ele>
        <time>2021-11-20T08:53:30.000Z</time>
      </trkpt>
      <trkpt lat="43.71498" lon="3.4991">
        <ele>331</ele>
        <time>2021-11-20T08:53:37.000Z</time>
      </trkpt>
      <trkpt lat="43.71506" lon="3.49911">
        <ele>331</ele>
        <time>2021-11-20T08:53:44.000Z</time>
      </trkpt>
      <trkpt lat="43.71525" lon="3.49901">
        <ele>330</ele>
        <time>2021-11-20T08:53:58.000Z</time>
      </trkpt>
      <trkpt lat="43.71545" lon="3.49884">
        <ele>328</ele>
        <time>2021-11-20T08:54:18.000Z</time>
      </trkpt>
      <trkpt lat="43.71549" lon="3.49882">
        <ele>328</ele>
        <time>2021-11-20T08:54:21.000Z</time>
      </trkpt>
      <trkpt lat="43.7155" lon="3.49885">
        <ele>327</ele>
        <time>2021-11-20T08:54:24.000Z</time>
      </trkpt>
      <trkpt lat="43.7155" lon="3.49888">
        <ele>327</ele>
        <time>2021-11-20T08:54:27.000Z</time>
      </trkpt>
      <trkpt lat="43.7155" lon="3.49891">
        <ele>327</ele>
        <time>2021-11-20T08:54:30.000Z</time>
      </trkpt>
      <trkpt lat="43.7155" lon="3.49895">
        <ele>327</ele>
        <time>2021-11-20T08:54:32.000Z</time>
      </trkpt>
      <trkpt lat="43.71549" lon="3.499">
        <ele>326</ele>
        <time>2021-11-20T08:54:35.000Z</time>
      </trkpt>
      <trkpt lat="43.71545" lon="3.49912">
        <ele>325</ele>
        <time>2021-11-20T08:54:47.000Z</time>
      </trkpt>
      <trkpt lat="43.71538" lon="3.49926">
        <ele>323</ele>
        <time>2021-11-20T08:54:58.000Z</time>
      </trkpt>
      <trkpt lat="43.71536" lon="3.49931">
        <ele>323</ele>
        <time>2021-11-20T08:55:01.000Z</time>
      </trkpt>
      <trkpt lat="43.71534" lon="3.49934">
        <ele>323</ele>
        <time>2021-11-20T08:55:04.000Z</time>
      </trkpt>
      <trkpt lat="43.71532" lon="3.49937">
        <ele>322</ele>
        <time>2021-11-20T08:55:07.000Z</time>
      </trkpt>
      <trkpt lat="43.71531" lon="3.4994">
        <ele>322</ele>
        <time>2021-11-20T08:55:10.000Z</time>
      </trkpt>
      <trkpt lat="43.71526" lon="3.49945">
        <ele>322</ele>
        <time>2021-11-20T08:55:17.000Z</time>
      </trkpt>
      <trkpt lat="43.71519" lon="3.4995">
        <ele>321</ele>
        <time>2021-11-20T08:55:23.000Z</time>
      </trkpt>
      <trkpt lat="43.71513" lon="3.49954">
        <ele>321</ele>
        <time>2021-11-20T08:55:32.000Z</time>
      </trkpt>
      <trkpt lat="43.71505" lon="3.49958">
        <ele>320</ele>
        <time>2021-11-20T08:55:41.000Z</time>
      </trkpt>
      <trkpt lat="43.71496" lon="3.49963">
        <ele>319</ele>
        <time>2021-11-20T08:55:50.000Z</time>
      </trkpt>
      <trkpt lat="43.71487" lon="3.49968">
        <ele>318</ele>
        <time>2021-11-20T08:55:59.000Z</time>
      </trkpt>
      <trkpt lat="43.71478" lon="3.49971">
        <ele>317</ele>
        <time>2021-11-20T08:56:09.000Z</time>
      </trkpt>
      <trkpt lat="43.71469" lon="3.49973">
        <ele>316</ele>
        <time>2021-11-20T08:56:19.000Z</time>
      </trkpt>
      <trkpt lat="43.7146" lon="3.49975">
        <ele>316</ele>
        <time>2021-11-20T08:56:28.000Z</time>
      </trkpt>
      <trkpt lat="43.71452" lon="3.49976">
        <ele>315</ele>
        <time>2021-11-20T08:56:38.000Z</time>
      </trkpt>
      <trkpt lat="43.71443" lon="3.49979">
        <ele>314</ele>
        <time>2021-11-20T08:56:46.000Z</time>
      </trkpt>
      <trkpt lat="43.71434" lon="3.49981">
        <ele>314</ele>
        <time>2021-11-20T08:56:53.000Z</time>
      </trkpt>
      <trkpt lat="43.71425" lon="3.49984">
        <ele>313</ele>
        <time>2021-11-20T08:57:01.000Z</time>
      </trkpt>
      <trkpt lat="43.71416" lon="3.49987">
        <ele>312</ele>
        <time>2021-11-20T08:57:08.000Z</time>
      </trkpt>
      <trkpt lat="43.71408" lon="3.49987">
        <ele>312</ele>
        <time>2021-11-20T08:57:16.000Z</time>
      </trkpt>
      <trkpt lat="43.71399" lon="3.49987">
        <ele>311</ele>
        <time>2021-11-20T08:57:24.000Z</time>
      </trkpt>
      <trkpt lat="43.7139" lon="3.49987">
        <ele>311</ele>
        <time>2021-11-20T08:57:31.000Z</time>
      </trkpt>
      <trkpt lat="43.71381" lon="3.49986">
        <ele>311</ele>
        <time>2021-11-20T08:57:39.000Z</time>
      </trkpt>
      <trkpt lat="43.71374" lon="3.49987">
        <ele>310</ele>
        <time>2021-11-20T08:57:45.000Z</time>
      </trkpt>
      <trkpt lat="43.71367" lon="3.49989">
        <ele>310</ele>
        <time>2021-11-20T08:57:51.000Z</time>
      </trkpt>
      <trkpt lat="43.7136" lon="3.49991">
        <ele>310</ele>
        <time>2021-11-20T08:57:57.000Z</time>
      </trkpt>
      <trkpt lat="43.71354" lon="3.49994">
        <ele>309</ele>
        <time>2021-11-20T08:58:03.000Z</time>
      </trkpt>
      <trkpt lat="43.71347" lon="3.5">
        <ele>309</ele>
        <time>2021-11-20T08:58:11.000Z</time>
      </trkpt>
      <trkpt lat="43.71331" lon="3.50017">
        <ele>309</ele>
        <time>2021-11-20T08:58:26.000Z</time>
      </trkpt>
      <trkpt lat="43.71326" lon="3.50017">
        <ele>309</ele>
        <time>2021-11-20T08:58:31.000Z</time>
      </trkpt>
      <trkpt lat="43.71321" lon="3.50014">
        <ele>309</ele>
        <time>2021-11-20T08:58:37.000Z</time>
      </trkpt>
      <trkpt lat="43.71317" lon="3.5001">
        <ele>309</ele>
        <time>2021-11-20T08:58:42.000Z</time>
      </trkpt>
      <trkpt lat="43.71311" lon="3.50005">
        <ele>309</ele>
        <time>2021-11-20T08:58:47.000Z</time>
      </trkpt>
      <trkpt lat="43.71307" lon="3.50003">
        <ele>309</ele>
        <time>2021-11-20T08:58:51.000Z</time>
      </trkpt>
      <trkpt lat="43.71303" lon="3.50001">
        <ele>310</ele>
        <time>2021-11-20T08:58:54.000Z</time>
      </trkpt>
      <trkpt lat="43.71299" lon="3.5">
        <ele>310</ele>
        <time>2021-11-20T08:58:58.000Z</time>
      </trkpt>
      <trkpt lat="43.71295" lon="3.49999">
        <ele>310</ele>
        <time>2021-11-20T08:59:01.000Z</time>
      </trkpt>
      <trkpt lat="43.71291" lon="3.49999">
        <ele>310</ele>
        <time>2021-11-20T08:59:06.000Z</time>
      </trkpt>
      <trkpt lat="43.71286" lon="3.49999">
        <ele>310</ele>
        <time>2021-11-20T08:59:10.000Z</time>
      </trkpt>
      <trkpt lat="43.71281" lon="3.5">
        <ele>310</ele>
        <time>2021-11-20T08:59:15.000Z</time>
      </trkpt>
      <trkpt lat="43.71275" lon="3.50001">
        <ele>310</ele>
        <time>2021-11-20T08:59:19.000Z</time>
      </trkpt>
      <trkpt lat="43.71268" lon="3.50002">
        <ele>310</ele>
        <time>2021-11-20T08:59:27.000Z</time>
      </trkpt>
      <trkpt lat="43.71259" lon="3.50004">
        <ele>311</ele>
        <time>2021-11-20T08:59:36.000Z</time>
      </trkpt>
      <trkpt lat="43.7125" lon="3.50006">
        <ele>311</ele>
        <time>2021-11-20T08:59:44.000Z</time>
      </trkpt>
      <trkpt lat="43.7124" lon="3.50008">
        <ele>311</ele>
        <time>2021-11-20T08:59:52.000Z</time>
      </trkpt>
      <trkpt lat="43.71231" lon="3.50011">
        <ele>312</ele>
        <time>2021-11-20T09:00:03.000Z</time>
      </trkpt>
      <trkpt lat="43.71222" lon="3.50013">
        <ele>313</ele>
        <time>2021-11-20T09:00:14.000Z</time>
      </trkpt>
      <trkpt lat="43.71214" lon="3.50015">
        <ele>314</ele>
        <time>2021-11-20T09:00:24.000Z</time>
      </trkpt>
      <trkpt lat="43.71205" lon="3.50018">
        <ele>315</ele>
        <time>2021-11-20T09:00:35.000Z</time>
      </trkpt>
      <trkpt lat="43.71201" lon="3.50018">
        <ele>316</ele>
        <time>2021-11-20T09:00:38.000Z</time>
      </trkpt>
      <trkpt lat="43.71198" lon="3.50019">
        <ele>316</ele>
        <time>2021-11-20T09:00:41.000Z</time>
      </trkpt>
      <trkpt lat="43.71198" lon="3.50018">
        <ele>316</ele>
        <time>2021-11-20T09:00:44.000Z</time>
      </trkpt>
      <trkpt lat="43.71197" lon="3.50018">
        <ele>317</ele>
        <time>2021-11-20T09:00:47.000Z</time>
      </trkpt>
      <trkpt lat="43.71187" lon="3.50026">
        <ele>318</ele>
        <time>2021-11-20T09:01:05.000Z</time>
      </trkpt>
      <trkpt lat="43.71174" lon="3.50039">
        <ele>321</ele>
        <time>2021-11-20T09:01:23.000Z</time>
      </trkpt>
      <trkpt lat="43.71171" lon="3.50042">
        <ele>321</ele>
        <time>2021-11-20T09:01:25.000Z</time>
      </trkpt>
      <trkpt lat="43.71169" lon="3.50044">
        <ele>322</ele>
        <time>2021-11-20T09:01:27.000Z</time>
      </trkpt>
      <trkpt lat="43.71167" lon="3.50046">
        <ele>322</ele>
        <time>2021-11-20T09:01:29.000Z</time>
      </trkpt>
      <trkpt lat="43.71166" lon="3.50047">
        <ele>322</ele>
        <time>2021-11-20T09:01:31.000Z</time>
      </trkpt>
      <trkpt lat="43.71162" lon="3.50053">
        <ele>322</ele>
        <time>2021-11-20T09:01:38.000Z</time>
      </trkpt>
      <trkpt lat="43.71159" lon="3.5006">
        <ele>323</ele>
        <time>2021-11-20T09:01:44.000Z</time>
      </trkpt>
      <trkpt lat="43.71155" lon="3.50069">
        <ele>324</ele>
        <time>2021-11-20T09:01:51.000Z</time>
      </trkpt>
      <trkpt lat="43.71151" lon="3.50077">
        <ele>325</ele>
        <time>2021-11-20T09:01:57.000Z</time>
      </trkpt>
      <trkpt lat="43.71149" lon="3.50082">
        <ele>325</ele>
        <time>2021-11-20T09:02:00.000Z</time>
      </trkpt>
      <trkpt lat="43.71147" lon="3.50086">
        <ele>325</ele>
        <time>2021-11-20T09:02:03.000Z</time>
      </trkpt>
      <trkpt lat="43.71145" lon="3.5009">
        <ele>325</ele>
        <time>2021-11-20T09:02:06.000Z</time>
      </trkpt>
      <trkpt lat="43.71144" lon="3.50092">
        <ele>325</ele>
        <time>2021-11-20T09:02:09.000Z</time>
      </trkpt>
      <trkpt lat="43.71142" lon="3.50097">
        <ele>325</ele>
        <time>2021-11-20T09:02:12.000Z</time>
      </trkpt>
      <trkpt lat="43.71141" lon="3.50102">
        <ele>324</ele>
        <time>2021-11-20T09:02:16.000Z</time>
      </trkpt>
      <trkpt lat="43.71139" lon="3.50107">
        <ele>324</ele>
        <time>2021-11-20T09:02:19.000Z</time>
      </trkpt>
      <trkpt lat="43.71137" lon="3.50113">
        <ele>324</ele>
        <time>2021-11-20T09:02:22.000Z</time>
      </trkpt>
      <trkpt lat="43.71136" lon="3.50115">
        <ele>324</ele>
        <time>2021-11-20T09:02:23.000Z</time>
      </trkpt>
      <trkpt lat="43.71136" lon="3.50116">
        <ele>324</ele>
        <time>2021-11-20T09:02:24.000Z</time>
      </trkpt>
      <trkpt lat="43.71135" lon="3.50116">
        <ele>324</ele>
        <time>2021-11-20T09:02:24.000Z</time>
      </trkpt>
      <trkpt lat="43.71135" lon="3.50116">
        <ele>324</ele>
        <time>2021-11-20T09:02:25.000Z</time>
      </trkpt>
      <trkpt lat="43.71132" lon="3.5012">
        <ele>324</ele>
        <time>2021-11-20T09:02:29.000Z</time>
      </trkpt>
      <trkpt lat="43.71128" lon="3.50122">
        <ele>325</ele>
        <time>2021-11-20T09:02:35.000Z</time>
      </trkpt>
      <trkpt lat="43.71127" lon="3.50122">
        <ele>325</ele>
        <time>2021-11-20T09:02:37.000Z</time>
      </trkpt>
      <trkpt lat="43.71126" lon="3.50121">
        <ele>325</ele>
        <time>2021-11-20T09:02:40.000Z</time>
      </trkpt>
      <trkpt lat="43.71126" lon="3.5012">
        <ele>325</ele>
        <time>2021-11-20T09:02:42.000Z</time>
      </trkpt>
      <trkpt lat="43.71125" lon="3.50118">
        <ele>326</ele>
        <time>2021-11-20T09:02:44.000Z</time>
      </trkpt>
      <trkpt lat="43.71132" lon="3.50099">
        <ele>326</ele>
        <time>2021-11-20T09:03:02.000Z</time>
      </trkpt>
      <trkpt lat="43.71141" lon="3.50072">
        <ele>327</ele>
        <time>2021-11-20T09:03:20.000Z</time>
      </trkpt>
      <trkpt lat="43.71142" lon="3.50066">
        <ele>328</ele>
        <time>2021-11-20T09:03:24.000Z</time>
      </trkpt>
      <trkpt lat="43.71143" lon="3.50063">
        <ele>328</ele>
        <time>2021-11-20T09:03:28.000Z</time>
      </trkpt>
      <trkpt lat="43.71142" lon="3.50061">
        <ele>328</ele>
        <time>2021-11-20T09:03:31.000Z</time>
      </trkpt>
      <trkpt lat="43.71141" lon="3.5006">
        <ele>329</ele>
        <time>2021-11-20T09:03:35.000Z</time>
      </trkpt>
      <trkpt lat="43.71135" lon="3.50061">
        <ele>330</ele>
        <time>2021-11-20T09:04:06.000Z</time>
      </trkpt>
      <trkpt lat="43.71127" lon="3.50063">
        <ele>332</ele>
        <time>2021-11-20T09:04:38.000Z</time>
      </trkpt>
      <trkpt lat="43.71117" lon="3.50065">
        <ele>335</ele>
        <time>2021-11-20T09:05:09.000Z</time>
      </trkpt>
      <trkpt lat="43.71107" lon="3.50069">
        <ele>337</ele>
        <time>2021-11-20T09:05:40.000Z</time>
      </trkpt>
      <trkpt lat="43.71102" lon="3.50071">
        <ele>338</ele>
        <time>2021-11-20T09:05:44.000Z</time>
      </trkpt>
      <trkpt lat="43.71098" lon="3.50074">
        <ele>339</ele>
        <time>2021-11-20T09:05:47.000Z</time>
      </trkpt>
      <trkpt lat="43.71095" lon="3.50077">
        <ele>339</ele>
        <time>2021-11-20T09:05:51.000Z</time>
      </trkpt>
      <trkpt lat="43.71093" lon="3.50081">
        <ele>339</ele>
        <time>2021-11-20T09:05:54.000Z</time>
      </trkpt>
      <trkpt lat="43.7109" lon="3.50085">
        <ele>339</ele>
        <time>2021-11-20T09:05:58.000Z</time>
      </trkpt>
      <trkpt lat="43.71087" lon="3.5009">
        <ele>339</ele>
        <time>2021-11-20T09:06:01.000Z</time>
      </trkpt>
      <trkpt lat="43.71084" lon="3.50096">
        <ele>339</ele>
        <time>2021-11-20T09:06:05.000Z</time>
      </trkpt>
      <trkpt lat="43.71081" lon="3.50102">
        <ele>339</ele>
        <time>2021-11-20T09:06:08.000Z</time>
      </trkpt>
      <trkpt lat="43.71078" lon="3.50112">
        <ele>340</ele>
        <time>2021-11-20T09:06:17.000Z</time>
      </trkpt>
      <trkpt lat="43.71075" lon="3.50123">
        <ele>341</ele>
        <time>2021-11-20T09:06:27.000Z</time>
      </trkpt>
      <trkpt lat="43.71072" lon="3.50135">
        <ele>342</ele>
        <time>2021-11-20T09:06:36.000Z</time>
      </trkpt>
      <trkpt lat="43.71069" lon="3.50148">
        <ele>342</ele>
        <time>2021-11-20T09:06:45.000Z</time>
      </trkpt>
      <trkpt lat="43.71065" lon="3.50159">
        <ele>344</ele>
        <time>2021-11-20T09:06:56.000Z</time>
      </trkpt>
      <trkpt lat="43.71061" lon="3.5017">
        <ele>345</ele>
        <time>2021-11-20T09:07:06.000Z</time>
      </trkpt>
      <trkpt lat="43.71056" lon="3.5018">
        <ele>346</ele>
        <time>2021-11-20T09:07:17.000Z</time>
      </trkpt>
      <trkpt lat="43.71051" lon="3.5019">
        <ele>348</ele>
        <time>2021-11-20T09:07:27.000Z</time>
      </trkpt>
      <trkpt lat="43.71047" lon="3.50201">
        <ele>349</ele>
        <time>2021-11-20T09:07:39.000Z</time>
      </trkpt>
      <trkpt lat="43.71044" lon="3.50212">
        <ele>350</ele>
        <time>2021-11-20T09:07:50.000Z</time>
      </trkpt>
      <trkpt lat="43.71041" lon="3.50223">
        <ele>351</ele>
        <time>2021-11-20T09:08:02.000Z</time>
      </trkpt>
      <trkpt lat="43.71038" lon="3.50234">
        <ele>351</ele>
        <time>2021-11-20T09:08:13.000Z</time>
      </trkpt>
      <trkpt lat="43.71017" lon="3.50274">
        <ele>355</ele>
        <time>2021-11-20T09:09:04.000Z</time>
      </trkpt>
      <trkpt lat="43.70999" lon="3.50315">
        <ele>361</ele>
        <time>2021-11-20T09:09:50.000Z</time>
      </trkpt>
      <trkpt lat="43.70985" lon="3.50344">
        <ele>365</ele>
        <time>2021-11-20T09:10:24.000Z</time>
      </trkpt>
      <trkpt lat="43.70979" lon="3.50349">
        <ele>366</ele>
        <time>2021-11-20T09:10:34.000Z</time>
      </trkpt>
      <trkpt lat="43.70973" lon="3.50349">
        <ele>366</ele>
        <time>2021-11-20T09:10:44.000Z</time>
      </trkpt>
      <trkpt lat="43.70969" lon="3.50351">
        <ele>367</ele>
        <time>2021-11-20T09:10:52.000Z</time>
      </trkpt>
      <trkpt lat="43.70964" lon="3.50352">
        <ele>368</ele>
        <time>2021-11-20T09:11:00.000Z</time>
      </trkpt>
      <trkpt lat="43.70958" lon="3.50354">
        <ele>369</ele>
        <time>2021-11-20T09:11:07.000Z</time>
      </trkpt>
      <trkpt lat="43.70952" lon="3.50355">
        <ele>370</ele>
        <time>2021-11-20T09:11:15.000Z</time>
      </trkpt>
      <trkpt lat="43.7095" lon="3.50357">
        <ele>370</ele>
        <time>2021-11-20T09:11:27.000Z</time>
      </trkpt>
      <trkpt lat="43.70949" lon="3.50359">
        <ele>370</ele>
        <time>2021-11-20T09:11:38.000Z</time>
      </trkpt>
      <trkpt lat="43.70949" lon="3.50361">
        <ele>370</ele>
        <time>2021-11-20T09:11:50.000Z</time>
      </trkpt>
      <trkpt lat="43.7095" lon="3.50363">
        <ele>370</ele>
        <time>2021-11-20T09:12:01.000Z</time>
      </trkpt>
      <trkpt lat="43.7095" lon="3.50362">
        <ele>370</ele>
        <time>2021-11-20T09:12:05.000Z</time>
      </trkpt>
      <trkpt lat="43.7095" lon="3.5036">
        <ele>370</ele>
        <time>2021-11-20T09:12:09.000Z</time>
      </trkpt>
      <trkpt lat="43.70951" lon="3.50357">
        <ele>370</ele>
        <time>2021-11-20T09:12:12.000Z</time>
      </trkpt>
      <trkpt lat="43.70951" lon="3.50354">
        <ele>370</ele>
        <time>2021-11-20T09:12:16.000Z</time>
      </trkpt>
      <trkpt lat="43.70951" lon="3.50355">
        <ele>370</ele>
        <time>2021-11-20T09:12:30.000Z</time>
      </trkpt>
      <trkpt lat="43.70951" lon="3.50356">
        <ele>370</ele>
        <time>2021-11-20T09:12:43.000Z</time>
      </trkpt>
      <trkpt lat="43.70951" lon="3.50358">
        <ele>370</ele>
        <time>2021-11-20T09:12:57.000Z</time>
      </trkpt>
      <trkpt lat="43.70951" lon="3.5036">
        <ele>370</ele>
        <time>2021-11-20T09:13:10.000Z</time>
      </trkpt>
      <trkpt lat="43.70951" lon="3.50361">
        <ele>365</ele>
        <time>2021-11-20T09:13:44.000Z</time>
      </trkpt>
      <trkpt lat="43.7095" lon="3.50363">
        <ele>358</ele>
        <time>2021-11-20T09:14:18.000Z</time>
      </trkpt>
      <trkpt lat="43.70951" lon="3.50363">
        <ele>357</ele>
        <time>2021-11-20T09:14:29.000Z</time>
      </trkpt>
      <trkpt lat="43.70952" lon="3.50363">
        <ele>357</ele>
        <time>2021-11-20T09:14:41.000Z</time>
      </trkpt>
      <trkpt lat="43.70953" lon="3.50362">
        <ele>357</ele>
        <time>2021-11-20T09:14:52.000Z</time>
      </trkpt>
      <trkpt lat="43.70955" lon="3.50361">
        <ele>358</ele>
        <time>2021-11-20T09:15:03.000Z</time>
      </trkpt>
      <trkpt lat="43.70955" lon="3.50361">
        <ele>358</ele>
        <time>2021-11-20T09:15:37.000Z</time>
      </trkpt>
      <trkpt lat="43.70954" lon="3.5036">
        <ele>359</ele>
        <time>2021-11-20T09:16:11.000Z</time>
      </trkpt>
      <trkpt lat="43.70953" lon="3.50359">
        <ele>359</ele>
        <time>2021-11-20T09:16:44.000Z</time>
      </trkpt>
      <trkpt lat="43.70952" lon="3.50357">
        <ele>359</ele>
        <time>2021-11-20T09:17:18.000Z</time>
      </trkpt>
      <trkpt lat="43.70951" lon="3.50358">
        <ele>361</ele>
        <time>2021-11-20T09:17:42.000Z</time>
      </trkpt>
      <trkpt lat="43.70949" lon="3.50359">
        <ele>363</ele>
        <time>2021-11-20T09:18:06.000Z</time>
      </trkpt>
      <trkpt lat="43.70947" lon="3.50361">
        <ele>366</ele>
        <time>2021-11-20T09:18:30.000Z</time>
      </trkpt>
      <trkpt lat="43.70944" lon="3.50362">
        <ele>369</ele>
        <time>2021-11-20T09:18:54.000Z</time>
      </trkpt>
      <trkpt lat="43.70943" lon="3.50365">
        <ele>370</ele>
        <time>2021-11-20T09:19:00.000Z</time>
      </trkpt>
      <trkpt lat="43.70941" lon="3.50368">
        <ele>370</ele>
        <time>2021-11-20T09:19:07.000Z</time>
      </trkpt>
      <trkpt lat="43.7094" lon="3.50371">
        <ele>370</ele>
        <time>2021-11-20T09:19:13.000Z</time>
      </trkpt>
      <trkpt lat="43.70939" lon="3.50375">
        <ele>369</ele>
        <time>2021-11-20T09:19:19.000Z</time>
      </trkpt>
      <trkpt lat="43.70937" lon="3.50376">
        <ele>369</ele>
        <time>2021-11-20T09:19:45.000Z</time>
      </trkpt>
      <trkpt lat="43.70935" lon="3.50377">
        <ele>369</ele>
        <time>2021-11-20T09:20:11.000Z</time>
      </trkpt>
      <trkpt lat="43.70933" lon="3.50377">
        <ele>369</ele>
        <time>2021-11-20T09:20:36.000Z</time>
      </trkpt>
      <trkpt lat="43.7093" lon="3.50377">
        <ele>369</ele>
        <time>2021-11-20T09:21:02.000Z</time>
      </trkpt>
      <trkpt lat="43.70926" lon="3.50382">
        <ele>369</ele>
        <time>2021-11-20T09:21:43.000Z</time>
      </trkpt>
      <trkpt lat="43.70922" lon="3.50388">
        <ele>368</ele>
        <time>2021-11-20T09:22:24.000Z</time>
      </trkpt>
      <trkpt lat="43.70922" lon="3.50393">
        <ele>368</ele>
        <time>2021-11-20T09:23:14.000Z</time>
      </trkpt>
      <trkpt lat="43.70923" lon="3.50398">
        <ele>368</ele>
        <time>2021-11-20T09:24:04.000Z</time>
      </trkpt>
      <trkpt lat="43.70925" lon="3.50404">
        <ele>368</ele>
        <time>2021-11-20T09:24:54.000Z</time>
      </trkpt>
      <trkpt lat="43.70927" lon="3.5041">
        <ele>368</ele>
        <time>2021-11-20T09:25:44.000Z</time>
      </trkpt>
      <trkpt lat="43.70927" lon="3.50416">
        <ele>369</ele>
        <time>2021-11-20T09:25:50.000Z</time>
      </trkpt>
      <trkpt lat="43.70926" lon="3.50424">
        <ele>369</ele>
        <time>2021-11-20T09:25:57.000Z</time>
      </trkpt>
      <trkpt lat="43.70925" lon="3.50431">
        <ele>370</ele>
        <time>2021-11-20T09:26:03.000Z</time>
      </trkpt>
      <trkpt lat="43.70924" lon="3.50439">
        <ele>370</ele>
        <time>2021-11-20T09:26:09.000Z</time>
      </trkpt>
      <trkpt lat="43.70921" lon="3.50448">
        <ele>371</ele>
        <time>2021-11-20T09:26:19.000Z</time>
      </trkpt>
      <trkpt lat="43.70917" lon="3.50459">
        <ele>372</ele>
        <time>2021-11-20T09:26:29.000Z</time>
      </trkpt>
      <trkpt lat="43.70912" lon="3.5047">
        <ele>373</ele>
        <time>2021-11-20T09:26:38.000Z</time>
      </trkpt>
      <trkpt lat="43.70907" lon="3.50482">
        <ele>375</ele>
        <time>2021-11-20T09:26:48.000Z</time>
      </trkpt>
      <trkpt lat="43.70904" lon="3.50494">
        <ele>376</ele>
        <time>2021-11-20T09:26:57.000Z</time>
      </trkpt>
      <trkpt lat="43.70901" lon="3.50506">
        <ele>376</ele>
        <time>2021-11-20T09:27:06.000Z</time>
      </trkpt>
      <trkpt lat="43.70899" lon="3.50518">
        <ele>377</ele>
        <time>2021-11-20T09:27:14.000Z</time>
      </trkpt>
      <trkpt lat="43.70897" lon="3.5053">
        <ele>378</ele>
        <time>2021-11-20T09:27:23.000Z</time>
      </trkpt>
      <trkpt lat="43.70896" lon="3.50537">
        <ele>378</ele>
        <time>2021-11-20T09:27:27.000Z</time>
      </trkpt>
      <trkpt lat="43.70896" lon="3.50543">
        <ele>378</ele>
        <time>2021-11-20T09:27:31.000Z</time>
      </trkpt>
      <trkpt lat="43.70897" lon="3.50548">
        <ele>379</ele>
        <time>2021-11-20T09:27:35.000Z</time>
      </trkpt>
      <trkpt lat="43.70897" lon="3.50552">
        <ele>379</ele>
        <time>2021-11-20T09:27:39.000Z</time>
      </trkpt>
      <trkpt lat="43.709" lon="3.50565">
        <ele>380</ele>
        <time>2021-11-20T09:27:52.000Z</time>
      </trkpt>
      <trkpt lat="43.70905" lon="3.50578">
        <ele>380</ele>
        <time>2021-11-20T09:28:04.000Z</time>
      </trkpt>
      <trkpt lat="43.7091" lon="3.50587">
        <ele>381</ele>
        <time>2021-11-20T09:28:13.000Z</time>
      </trkpt>
      <trkpt lat="43.70915" lon="3.50597">
        <ele>382</ele>
        <time>2021-11-20T09:28:22.000Z</time>
      </trkpt>
      <trkpt lat="43.70921" lon="3.50607">
        <ele>383</ele>
        <time>2021-11-20T09:28:30.000Z</time>
      </trkpt>
      <trkpt lat="43.70927" lon="3.50618">
        <ele>384</ele>
        <time>2021-11-20T09:28:39.000Z</time>
      </trkpt>
      <trkpt lat="43.70929" lon="3.50623">
        <ele>385</ele>
        <time>2021-11-20T09:28:43.000Z</time>
      </trkpt>
      <trkpt lat="43.70931" lon="3.50627">
        <ele>385</ele>
        <time>2021-11-20T09:28:46.000Z</time>
      </trkpt>
      <trkpt lat="43.70932" lon="3.50629">
        <ele>385</ele>
        <time>2021-11-20T09:28:50.000Z</time>
      </trkpt>
      <trkpt lat="43.70932" lon="3.50631">
        <ele>385</ele>
        <time>2021-11-20T09:28:53.000Z</time>
      </trkpt>
      <trkpt lat="43.70934" lon="3.50633">
        <ele>386</ele>
        <time>2021-11-20T09:29:01.000Z</time>
      </trkpt>
      <trkpt lat="43.70935" lon="3.50633">
        <ele>386</ele>
        <time>2021-11-20T09:29:09.000Z</time>
      </trkpt>
      <trkpt lat="43.70936" lon="3.50633">
        <ele>386</ele>
        <time>2021-11-20T09:29:17.000Z</time>
      </trkpt>
      <trkpt lat="43.70938" lon="3.50633">
        <ele>386</ele>
        <time>2021-11-20T09:29:25.000Z</time>
      </trkpt>
      <trkpt lat="43.70944" lon="3.50641">
        <ele>386</ele>
        <time>2021-11-20T09:29:35.000Z</time>
      </trkpt>
      <trkpt lat="43.70952" lon="3.50652">
        <ele>387</ele>
        <time>2021-11-20T09:29:44.000Z</time>
      </trkpt>
      <trkpt lat="43.70958" lon="3.5066">
        <ele>388</ele>
        <time>2021-11-20T09:29:53.000Z</time>
      </trkpt>
      <trkpt lat="43.70964" lon="3.50669">
        <ele>388</ele>
        <time>2021-11-20T09:30:02.000Z</time>
      </trkpt>
      <trkpt lat="43.7097" lon="3.50679">
        <ele>389</ele>
        <time>2021-11-20T09:30:11.000Z</time>
      </trkpt>
      <trkpt lat="43.70977" lon="3.50689">
        <ele>390</ele>
        <time>2021-11-20T09:30:20.000Z</time>
      </trkpt>
      <trkpt lat="43.70979" lon="3.50693">
        <ele>390</ele>
        <time>2021-11-20T09:30:23.000Z</time>
      </trkpt>
      <trkpt lat="43.7098" lon="3.50694">
        <ele>390</ele>
        <time>2021-11-20T09:30:25.000Z</time>
      </trkpt>
      <trkpt lat="43.70979" lon="3.50695">
        <ele>390</ele>
        <time>2021-11-20T09:30:28.000Z</time>
      </trkpt>
      <trkpt lat="43.70978" lon="3.50694">
        <ele>390</ele>
        <time>2021-11-20T09:30:30.000Z</time>
      </trkpt>
      <trkpt lat="43.7098" lon="3.50696">
        <ele>391</ele>
        <time>2021-11-20T09:30:33.000Z</time>
      </trkpt>
      <trkpt lat="43.70983" lon="3.50697">
        <ele>391</ele>
        <time>2021-11-20T09:30:37.000Z</time>
      </trkpt>
      <trkpt lat="43.70987" lon="3.50699">
        <ele>391</ele>
        <time>2021-11-20T09:30:40.000Z</time>
      </trkpt>
      <trkpt lat="43.7099" lon="3.50701">
        <ele>391</ele>
        <time>2021-11-20T09:30:43.000Z</time>
      </trkpt>
      <trkpt lat="43.70997" lon="3.5071">
        <ele>392</ele>
        <time>2021-11-20T09:30:51.000Z</time>
      </trkpt>
      <trkpt lat="43.71004" lon="3.50721">
        <ele>392</ele>
        <time>2021-11-20T09:30:58.000Z</time>
      </trkpt>
      <trkpt lat="43.71009" lon="3.5073">
        <ele>392</ele>
        <time>2021-11-20T09:31:04.000Z</time>
      </trkpt>
      <trkpt lat="43.71014" lon="3.5074">
        <ele>393</ele>
        <time>2021-11-20T09:31:11.000Z</time>
      </trkpt>
      <trkpt lat="43.7102" lon="3.5075">
        <ele>393</ele>
        <time>2021-11-20T09:31:17.000Z</time>
      </trkpt>
      <trkpt lat="43.71025" lon="3.50761">
        <ele>393</ele>
        <time>2021-11-20T09:31:23.000Z</time>
      </trkpt>
      <trkpt lat="43.71031" lon="3.50771">
        <ele>394</ele>
        <time>2021-11-20T09:31:29.000Z</time>
      </trkpt>
      <trkpt lat="43.71037" lon="3.50781">
        <ele>394</ele>
        <time>2021-11-20T09:31:36.000Z</time>
      </trkpt>
      <trkpt lat="43.71042" lon="3.50791">
        <ele>394</ele>
        <time>2021-11-20T09:31:42.000Z</time>
      </trkpt>
      <trkpt lat="43.71048" lon="3.50801">
        <ele>394</ele>
        <time>2021-11-20T09:31:48.000Z</time>
      </trkpt>
      <trkpt lat="43.71053" lon="3.50812">
        <ele>395</ele>
        <time>2021-11-20T09:31:55.000Z</time>
      </trkpt>
      <trkpt lat="43.71057" lon="3.50823">
        <ele>395</ele>
        <time>2021-11-20T09:32:02.000Z</time>
      </trkpt>
      <trkpt lat="43.71061" lon="3.50834">
        <ele>395</ele>
        <time>2021-11-20T09:32:09.000Z</time>
      </trkpt>
      <trkpt lat="43.71066" lon="3.50844">
        <ele>396</ele>
        <time>2021-11-20T09:32:16.000Z</time>
      </trkpt>
      <trkpt lat="43.71061" lon="3.5085">
        <ele>396</ele>
        <time>2021-11-20T09:32:27.000Z</time>
      </trkpt>
      <trkpt lat="43.71053" lon="3.50853">
        <ele>396</ele>
        <time>2021-11-20T09:32:37.000Z</time>
      </trkpt>
      <trkpt lat="43.71042" lon="3.50854">
        <ele>396</ele>
        <time>2021-11-20T09:32:48.000Z</time>
      </trkpt>
      <trkpt lat="43.7103" lon="3.50855">
        <ele>396</ele>
        <time>2021-11-20T09:32:58.000Z</time>
      </trkpt>
      <trkpt lat="43.71024" lon="3.50852">
        <ele>396</ele>
        <time>2021-11-20T09:33:06.000Z</time>
      </trkpt>
      <trkpt lat="43.71018" lon="3.50848">
        <ele>396</ele>
        <time>2021-11-20T09:33:14.000Z</time>
      </trkpt>
      <trkpt lat="43.71012" lon="3.50842">
        <ele>395</ele>
        <time>2021-11-20T09:33:22.000Z</time>
      </trkpt>
      <trkpt lat="43.71008" lon="3.50835">
        <ele>395</ele>
        <time>2021-11-20T09:33:30.000Z</time>
      </trkpt>
      <trkpt lat="43.71009" lon="3.50836">
        <ele>395</ele>
        <time>2021-11-20T09:33:45.000Z</time>
      </trkpt>
      <trkpt lat="43.71013" lon="3.5084">
        <ele>395</ele>
        <time>2021-11-20T09:34:01.000Z</time>
      </trkpt>
      <trkpt lat="43.71019" lon="3.50845">
        <ele>395</ele>
        <time>2021-11-20T09:34:16.000Z</time>
      </trkpt>
      <trkpt lat="43.71027" lon="3.5085">
        <ele>396</ele>
        <time>2021-11-20T09:34:31.000Z</time>
      </trkpt>
      <trkpt lat="43.71044" lon="3.50849">
        <ele>396</ele>
        <time>2021-11-20T09:35:02.000Z</time>
      </trkpt>
      <trkpt lat="43.71065" lon="3.50844">
        <ele>397</ele>
        <time>2021-11-20T09:35:32.000Z</time>
      </trkpt>
      <trkpt lat="43.71066" lon="3.50851">
        <ele>398</ele>
        <time>2021-11-20T09:36:16.000Z</time>
      </trkpt>
      <trkpt lat="43.71064" lon="3.50862">
        <ele>399</ele>
        <time>2021-11-20T09:37:01.000Z</time>
      </trkpt>
      <trkpt lat="43.71059" lon="3.50876">
        <ele>400</ele>
        <time>2021-11-20T09:37:45.000Z</time>
      </trkpt>
      <trkpt lat="43.71053" lon="3.5089">
        <ele>401</ele>
        <time>2021-11-20T09:38:29.000Z</time>
      </trkpt>
      <trkpt lat="43.71052" lon="3.50902">
        <ele>402</ele>
        <time>2021-11-20T09:38:38.000Z</time>
      </trkpt>
      <trkpt lat="43.71053" lon="3.50915">
        <ele>403</ele>
        <time>2021-11-20T09:38:47.000Z</time>
      </trkpt>
      <trkpt lat="43.71053" lon="3.50927">
        <ele>403</ele>
        <time>2021-11-20T09:38:56.000Z</time>
      </trkpt>
      <trkpt lat="43.71054" lon="3.5094">
        <ele>404</ele>
        <time>2021-11-20T09:39:05.000Z</time>
      </trkpt>
      <trkpt lat="43.71056" lon="3.50952">
        <ele>405</ele>
        <time>2021-11-20T09:39:15.000Z</time>
      </trkpt>
      <trkpt lat="43.71059" lon="3.50963">
        <ele>406</ele>
        <time>2021-11-20T09:39:25.000Z</time>
      </trkpt>
      <trkpt lat="43.71063" lon="3.50974">
        <ele>407</ele>
        <time>2021-11-20T09:39:35.000Z</time>
      </trkpt>
      <trkpt lat="43.71067" lon="3.50985">
        <ele>408</ele>
        <time>2021-11-20T09:39:45.000Z</time>
      </trkpt>
      <trkpt lat="43.71068" lon="3.50997">
        <ele>409</ele>
        <time>2021-11-20T09:39:55.000Z</time>
      </trkpt>
      <trkpt lat="43.71069" lon="3.51009">
        <ele>410</ele>
        <time>2021-11-20T09:40:04.000Z</time>
      </trkpt>
      <trkpt lat="43.71069" lon="3.51022">
        <ele>411</ele>
        <time>2021-11-20T09:40:14.000Z</time>
      </trkpt>
      <trkpt lat="43.71069" lon="3.51035">
        <ele>412</ele>
        <time>2021-11-20T09:40:23.000Z</time>
      </trkpt>
      <trkpt lat="43.71077" lon="3.51056">
        <ele>414</ele>
        <time>2021-11-20T09:40:43.000Z</time>
      </trkpt>
      <trkpt lat="43.71087" lon="3.51076">
        <ele>417</ele>
        <time>2021-11-20T09:41:02.000Z</time>
      </trkpt>
      <trkpt lat="43.71092" lon="3.51087">
        <ele>418</ele>
        <time>2021-11-20T09:41:12.000Z</time>
      </trkpt>
      <trkpt lat="43.71096" lon="3.51097">
        <ele>419</ele>
        <time>2021-11-20T09:41:22.000Z</time>
      </trkpt>
      <trkpt lat="43.71101" lon="3.51108">
        <ele>420</ele>
        <time>2021-11-20T09:41:32.000Z</time>
      </trkpt>
      <trkpt lat="43.71106" lon="3.51118">
        <ele>422</ele>
        <time>2021-11-20T09:41:42.000Z</time>
      </trkpt>
      <trkpt lat="43.71109" lon="3.51125">
        <ele>423</ele>
        <time>2021-11-20T09:41:47.000Z</time>
      </trkpt>
      <trkpt lat="43.71112" lon="3.5113">
        <ele>423</ele>
        <time>2021-11-20T09:41:51.000Z</time>
      </trkpt>
      <trkpt lat="43.71114" lon="3.51134">
        <ele>424</ele>
        <time>2021-11-20T09:41:56.000Z</time>
      </trkpt>
      <trkpt lat="43.71116" lon="3.51137">
        <ele>424</ele>
        <time>2021-11-20T09:42:00.000Z</time>
      </trkpt>
      <trkpt lat="43.71119" lon="3.51142">
        <ele>424</ele>
        <time>2021-11-20T09:42:05.000Z</time>
      </trkpt>
      <trkpt lat="43.71122" lon="3.51147">
        <ele>425</ele>
        <time>2021-11-20T09:42:09.000Z</time>
      </trkpt>
      <trkpt lat="43.71125" lon="3.51151">
        <ele>425</ele>
        <time>2021-11-20T09:42:14.000Z</time>
      </trkpt>
      <trkpt lat="43.71129" lon="3.51156">
        <ele>426</ele>
        <time>2021-11-20T09:42:18.000Z</time>
      </trkpt>
      <trkpt lat="43.71131" lon="3.5116">
        <ele>426</ele>
        <time>2021-11-20T09:42:21.000Z</time>
      </trkpt>
      <trkpt lat="43.71133" lon="3.51163">
        <ele>426</ele>
        <time>2021-11-20T09:42:24.000Z</time>
      </trkpt>
      <trkpt lat="43.71135" lon="3.51166">
        <ele>427</ele>
        <time>2021-11-20T09:42:27.000Z</time>
      </trkpt>
      <trkpt lat="43.71136" lon="3.51169">
        <ele>427</ele>
        <time>2021-11-20T09:42:30.000Z</time>
      </trkpt>
      <trkpt lat="43.71138" lon="3.51172">
        <ele>427</ele>
        <time>2021-11-20T09:42:33.000Z</time>
      </trkpt>
      <trkpt lat="43.7114" lon="3.51174">
        <ele>428</ele>
        <time>2021-11-20T09:42:36.000Z</time>
      </trkpt>
      <trkpt lat="43.71142" lon="3.51177">
        <ele>428</ele>
        <time>2021-11-20T09:42:39.000Z</time>
      </trkpt>
      <trkpt lat="43.71144" lon="3.51179">
        <ele>428</ele>
        <time>2021-11-20T09:42:42.000Z</time>
      </trkpt>
      <trkpt lat="43.71147" lon="3.51185">
        <ele>429</ele>
        <time>2021-11-20T09:42:47.000Z</time>
      </trkpt>
      <trkpt lat="43.71152" lon="3.51194">
        <ele>429</ele>
        <time>2021-11-20T09:42:55.000Z</time>
      </trkpt>
      <trkpt lat="43.71154" lon="3.51197">
        <ele>429</ele>
        <time>2021-11-20T09:42:58.000Z</time>
      </trkpt>
      <trkpt lat="43.71154" lon="3.51198">
        <ele>430</ele>
        <time>2021-11-20T09:42:59.000Z</time>
      </trkpt>
      <trkpt lat="43.71154" lon="3.51198">
        <ele>430</ele>
        <time>2021-11-20T09:43:00.000Z</time>
      </trkpt>
      <trkpt lat="43.71154" lon="3.51199">
        <ele>430</ele>
        <time>2021-11-20T09:43:01.000Z</time>
      </trkpt>
      <trkpt lat="43.71153" lon="3.51199">
        <ele>430</ele>
        <time>2021-11-20T09:43:02.000Z</time>
      </trkpt>
      <trkpt lat="43.71153" lon="3.51199">
        <ele>430</ele>
        <time>2021-11-20T09:43:03.000Z</time>
      </trkpt>
      <trkpt lat="43.71153" lon="3.51199">
        <ele>430</ele>
        <time>2021-11-20T09:43:05.000Z</time>
      </trkpt>
      <trkpt lat="43.71154" lon="3.51198">
        <ele>430</ele>
        <time>2021-11-20T09:43:06.000Z</time>
      </trkpt>
      <trkpt lat="43.71154" lon="3.51197">
        <ele>430</ele>
        <time>2021-11-20T09:43:07.000Z</time>
      </trkpt>
      <trkpt lat="43.71157" lon="3.51204">
        <ele>430</ele>
        <time>2021-11-20T09:43:14.000Z</time>
      </trkpt>
      <trkpt lat="43.71161" lon="3.51212">
        <ele>431</ele>
        <time>2021-11-20T09:43:21.000Z</time>
      </trkpt>
      <trkpt lat="43.71166" lon="3.51223">
        <ele>432</ele>
        <time>2021-11-20T09:43:27.000Z</time>
      </trkpt>
      <trkpt lat="43.71171" lon="3.51235">
        <ele>432</ele>
        <time>2021-11-20T09:43:34.000Z</time>
      </trkpt>
      <trkpt lat="43.71174" lon="3.51241">
        <ele>432</ele>
        <time>2021-11-20T09:43:37.000Z</time>
      </trkpt>
      <trkpt lat="43.71177" lon="3.51246">
        <ele>433</ele>
        <time>2021-11-20T09:43:41.000Z</time>
      </trkpt>
      <trkpt lat="43.71179" lon="3.51249">
        <ele>433</ele>
        <time>2021-11-20T09:43:44.000Z</time>
      </trkpt>
      <trkpt lat="43.71181" lon="3.51252">
        <ele>433</ele>
        <time>2021-11-20T09:43:47.000Z</time>
      </trkpt>
      <trkpt lat="43.71184" lon="3.51266">
        <ele>433</ele>
        <time>2021-11-20T09:43:57.000Z</time>
      </trkpt>
      <trkpt lat="43.71186" lon="3.51281">
        <ele>434</ele>
        <time>2021-11-20T09:44:06.000Z</time>
      </trkpt>
      <trkpt lat="43.71187" lon="3.51287">
        <ele>434</ele>
        <time>2021-11-20T09:44:10.000Z</time>
      </trkpt>
      <trkpt lat="43.71188" lon="3.51292">
        <ele>435</ele>
        <time>2021-11-20T09:44:14.000Z</time>
      </trkpt>
      <trkpt lat="43.7119" lon="3.51297">
        <ele>435</ele>
        <time>2021-11-20T09:44:17.000Z</time>
      </trkpt>
      <trkpt lat="43.71191" lon="3.51303">
        <ele>436</ele>
        <time>2021-11-20T09:44:21.000Z</time>
      </trkpt>
      <trkpt lat="43.71194" lon="3.51308">
        <ele>436</ele>
        <time>2021-11-20T09:44:25.000Z</time>
      </trkpt>
      <trkpt lat="43.71198" lon="3.51313">
        <ele>436</ele>
        <time>2021-11-20T09:44:30.000Z</time>
      </trkpt>
      <trkpt lat="43.71201" lon="3.51319">
        <ele>437</ele>
        <time>2021-11-20T09:44:34.000Z</time>
      </trkpt>
      <trkpt lat="43.71205" lon="3.51324">
        <ele>437</ele>
        <time>2021-11-20T09:44:38.000Z</time>
      </trkpt>
      <trkpt lat="43.7121" lon="3.51331">
        <ele>438</ele>
        <time>2021-11-20T09:44:46.000Z</time>
      </trkpt>
      <trkpt lat="43.71217" lon="3.51339">
        <ele>438</ele>
        <time>2021-11-20T09:44:54.000Z</time>
      </trkpt>
      <trkpt lat="43.71224" lon="3.51348">
        <ele>439</ele>
        <time>2021-11-20T09:45:02.000Z</time>
      </trkpt>
      <trkpt lat="43.71232" lon="3.51356">
        <ele>440</ele>
        <time>2021-11-20T09:45:10.000Z</time>
      </trkpt>
      <trkpt lat="43.71235" lon="3.51361">
        <ele>440</ele>
        <time>2021-11-20T09:45:20.000Z</time>
      </trkpt>
      <trkpt lat="43.71238" lon="3.51364">
        <ele>441</ele>
        <time>2021-11-20T09:45:31.000Z</time>
      </trkpt>
      <trkpt lat="43.71239" lon="3.51366">
        <ele>441</ele>
        <time>2021-11-20T09:45:41.000Z</time>
      </trkpt>
      <trkpt lat="43.7124" lon="3.51368">
        <ele>441</ele>
        <time>2021-11-20T09:45:51.000Z</time>
      </trkpt>
      <trkpt lat="43.71239" lon="3.51358">
        <ele>442</ele>
        <time>2021-11-20T09:46:13.000Z</time>
      </trkpt>
      <trkpt lat="43.71238" lon="3.51344">
        <ele>443</ele>
        <time>2021-11-20T09:46:34.000Z</time>
      </trkpt>
      <trkpt lat="43.71236" lon="3.51326">
        <ele>444</ele>
        <time>2021-11-20T09:46:56.000Z</time>
      </trkpt>
      <trkpt lat="43.71233" lon="3.51306">
        <ele>445</ele>
        <time>2021-11-20T09:47:17.000Z</time>
      </trkpt>
      <trkpt lat="43.71231" lon="3.51293">
        <ele>445</ele>
        <time>2021-11-20T09:47:25.000Z</time>
      </trkpt>
      <trkpt lat="43.71229" lon="3.51281">
        <ele>445</ele>
        <time>2021-11-20T09:47:33.000Z</time>
      </trkpt>
      <trkpt lat="43.71227" lon="3.51269">
        <ele>445</ele>
        <time>2021-11-20T09:47:40.000Z</time>
      </trkpt>
      <trkpt lat="43.71225" lon="3.51258">
        <ele>444</ele>
        <time>2021-11-20T09:47:48.000Z</time>
      </trkpt>
      <trkpt lat="43.71222" lon="3.51246">
        <ele>444</ele>
        <time>2021-11-20T09:47:57.000Z</time>
      </trkpt>
      <trkpt lat="43.71219" lon="3.51234">
        <ele>443</ele>
        <time>2021-11-20T09:48:07.000Z</time>
      </trkpt>
      <trkpt lat="43.71216" lon="3.51223">
        <ele>443</ele>
        <time>2021-11-20T09:48:16.000Z</time>
      </trkpt>
      <trkpt lat="43.71212" lon="3.51211">
        <ele>442</ele>
        <time>2021-11-20T09:48:25.000Z</time>
      </trkpt>
      <trkpt lat="43.71212" lon="3.51187">
        <ele>443</ele>
        <time>2021-11-20T09:48:42.000Z</time>
      </trkpt>
      <trkpt lat="43.71216" lon="3.51163">
        <ele>444</ele>
        <time>2021-11-20T09:48:58.000Z</time>
      </trkpt>
      <trkpt lat="43.71218" lon="3.51153">
        <ele>444</ele>
        <time>2021-11-20T09:49:04.000Z</time>
      </trkpt>
      <trkpt lat="43.7122" lon="3.51146">
        <ele>444</ele>
        <time>2021-11-20T09:49:10.000Z</time>
      </trkpt>
      <trkpt lat="43.71222" lon="3.51138">
        <ele>444</ele>
        <time>2021-11-20T09:49:15.000Z</time>
      </trkpt>
      <trkpt lat="43.71225" lon="3.51132">
        <ele>444</ele>
        <time>2021-11-20T09:49:21.000Z</time>
      </trkpt>
      <trkpt lat="43.7123" lon="3.51125">
        <ele>444</ele>
        <time>2021-11-20T09:49:28.000Z</time>
      </trkpt>
      <trkpt lat="43.71235" lon="3.51121">
        <ele>444</ele>
        <time>2021-11-20T09:49:35.000Z</time>
      </trkpt>
      <trkpt lat="43.7124" lon="3.51123">
        <ele>445</ele>
        <time>2021-11-20T09:49:43.000Z</time>
      </trkpt>
      <trkpt lat="43.71245" lon="3.51126">
        <ele>446</ele>
        <time>2021-11-20T09:49:50.000Z</time>
      </trkpt>
      <trkpt lat="43.71251" lon="3.5113">
        <ele>447</ele>
        <time>2021-11-20T09:49:58.000Z</time>
      </trkpt>
      <trkpt lat="43.71257" lon="3.51135">
        <ele>448</ele>
        <time>2021-11-20T09:50:05.000Z</time>
      </trkpt>
      <trkpt lat="43.71257" lon="3.51141">
        <ele>448</ele>
        <time>2021-11-20T09:50:13.000Z</time>
      </trkpt>
      <trkpt lat="43.71256" lon="3.51149">
        <ele>449</ele>
        <time>2021-11-20T09:50:20.000Z</time>
      </trkpt>
      <trkpt lat="43.71254" lon="3.51157">
        <ele>449</ele>
        <time>2021-11-20T09:50:28.000Z</time>
      </trkpt>
      <trkpt lat="43.71251" lon="3.51166">
        <ele>450</ele>
        <time>2021-11-20T09:50:35.000Z</time>
      </trkpt>
      <trkpt lat="43.71253" lon="3.5118">
        <ele>451</ele>
        <time>2021-11-20T09:50:48.000Z</time>
      </trkpt>
      <trkpt lat="43.71256" lon="3.51195">
        <ele>452</ele>
        <time>2021-11-20T09:51:01.000Z</time>
      </trkpt>
      <trkpt lat="43.71259" lon="3.51199">
        <ele>452</ele>
        <time>2021-11-20T09:51:06.000Z</time>
      </trkpt>
      <trkpt lat="43.71262" lon="3.51203">
        <ele>453</ele>
        <time>2021-11-20T09:51:10.000Z</time>
      </trkpt>
      <trkpt lat="43.71265" lon="3.51206">
        <ele>453</ele>
        <time>2021-11-20T09:51:15.000Z</time>
      </trkpt>
      <trkpt lat="43.71269" lon="3.51209">
        <ele>454</ele>
        <time>2021-11-20T09:51:19.000Z</time>
      </trkpt>
      <trkpt lat="43.71273" lon="3.51214">
        <ele>454</ele>
        <time>2021-11-20T09:51:26.000Z</time>
      </trkpt>
      <trkpt lat="43.71277" lon="3.51221">
        <ele>455</ele>
        <time>2021-11-20T09:51:34.000Z</time>
      </trkpt>
      <trkpt lat="43.71281" lon="3.51227">
        <ele>456</ele>
        <time>2021-11-20T09:51:41.000Z</time>
      </trkpt>
      <trkpt lat="43.71286" lon="3.51235">
        <ele>456</ele>
        <time>2021-11-20T09:51:48.000Z</time>
      </trkpt>
      <trkpt lat="43.71288" lon="3.51235">
        <ele>457</ele>
        <time>2021-11-20T09:51:52.000Z</time>
      </trkpt>
      <trkpt lat="43.7129" lon="3.51233">
        <ele>457</ele>
        <time>2021-11-20T09:51:56.000Z</time>
      </trkpt>
      <trkpt lat="43.71291" lon="3.51229">
        <ele>458</ele>
        <time>2021-11-20T09:51:59.000Z</time>
      </trkpt>
      <trkpt lat="43.71292" lon="3.51224">
        <ele>458</ele>
        <time>2021-11-20T09:52:03.000Z</time>
      </trkpt>
      <trkpt lat="43.71294" lon="3.51213">
        <ele>459</ele>
        <time>2021-11-20T09:52:12.000Z</time>
      </trkpt>
      <trkpt lat="43.71296" lon="3.51201">
        <ele>459</ele>
        <time>2021-11-20T09:52:21.000Z</time>
      </trkpt>
      <trkpt lat="43.71298" lon="3.51195">
        <ele>461</ele>
        <time>2021-11-20T09:52:30.000Z</time>
      </trkpt>
      <trkpt lat="43.71301" lon="3.51191">
        <ele>462</ele>
        <time>2021-11-20T09:52:39.000Z</time>
      </trkpt>
      <trkpt lat="43.71304" lon="3.51191">
        <ele>462</ele>
        <time>2021-11-20T09:52:44.000Z</time>
      </trkpt>
      <trkpt lat="43.71307" lon="3.51192">
        <ele>463</ele>
        <time>2021-11-20T09:52:49.000Z</time>
      </trkpt>
      <trkpt lat="43.7131" lon="3.51193">
        <ele>464</ele>
        <time>2021-11-20T09:52:54.000Z</time>
      </trkpt>
      <trkpt lat="43.71313" lon="3.51195">
        <ele>464</ele>
        <time>2021-11-20T09:52:59.000Z</time>
      </trkpt>
      <trkpt lat="43.71317" lon="3.51195">
        <ele>465</ele>
        <time>2021-11-20T09:53:04.000Z</time>
      </trkpt>
      <trkpt lat="43.71321" lon="3.51196">
        <ele>466</ele>
        <time>2021-11-20T09:53:10.000Z</time>
      </trkpt>
      <trkpt lat="43.71326" lon="3.51198">
        <ele>466</ele>
        <time>2021-11-20T09:53:15.000Z</time>
      </trkpt>
      <trkpt lat="43.71331" lon="3.51199">
        <ele>467</ele>
        <time>2021-11-20T09:53:20.000Z</time>
      </trkpt>
      <trkpt lat="43.71334" lon="3.51197">
        <ele>468</ele>
        <time>2021-11-20T09:53:28.000Z</time>
      </trkpt>
      <trkpt lat="43.71337" lon="3.51195">
        <ele>468</ele>
        <time>2021-11-20T09:53:36.000Z</time>
      </trkpt>
      <trkpt lat="43.7134" lon="3.51193">
        <ele>469</ele>
        <time>2021-11-20T09:53:44.000Z</time>
      </trkpt>
      <trkpt lat="43.71342" lon="3.5119">
        <ele>469</ele>
        <time>2021-11-20T09:53:52.000Z</time>
      </trkpt>
      <trkpt lat="43.71346" lon="3.5119">
        <ele>470</ele>
        <time>2021-11-20T09:54:24.000Z</time>
      </trkpt>
      <trkpt lat="43.7135" lon="3.51192">
        <ele>470</ele>
        <time>2021-11-20T09:54:56.000Z</time>
      </trkpt>
      <trkpt lat="43.71354" lon="3.51194">
        <ele>471</ele>
        <time>2021-11-20T09:55:28.000Z</time>
      </trkpt>
      <trkpt lat="43.71358" lon="3.51197">
        <ele>472</ele>
        <time>2021-11-20T09:56:00.000Z</time>
      </trkpt>
      <trkpt lat="43.71361" lon="3.51196">
        <ele>472</ele>
        <time>2021-11-20T09:56:03.000Z</time>
      </trkpt>
      <trkpt lat="43.71362" lon="3.51195">
        <ele>472</ele>
        <time>2021-11-20T09:56:07.000Z</time>
      </trkpt>
      <trkpt lat="43.71363" lon="3.51194">
        <ele>472</ele>
        <time>2021-11-20T09:56:10.000Z</time>
      </trkpt>
      <trkpt lat="43.71364" lon="3.51192">
        <ele>472</ele>
        <time>2021-11-20T09:56:13.000Z</time>
      </trkpt>
      <trkpt lat="43.71371" lon="3.51191">
        <ele>474</ele>
        <time>2021-11-20T09:56:24.000Z</time>
      </trkpt>
      <trkpt lat="43.7138" lon="3.51191">
        <ele>476</ele>
        <time>2021-11-20T09:56:35.000Z</time>
      </trkpt>
      <trkpt lat="43.71384" lon="3.51194">
        <ele>477</ele>
        <time>2021-11-20T09:56:42.000Z</time>
      </trkpt>
      <trkpt lat="43.71388" lon="3.51199">
        <ele>477</ele>
        <time>2021-11-20T09:56:48.000Z</time>
      </trkpt>
      <trkpt lat="43.71392" lon="3.51205">
        <ele>478</ele>
        <time>2021-11-20T09:56:55.000Z</time>
      </trkpt>
      <trkpt lat="43.71396" lon="3.51211">
        <ele>479</ele>
        <time>2021-11-20T09:57:01.000Z</time>
      </trkpt>
      <trkpt lat="43.71402" lon="3.51217">
        <ele>480</ele>
        <time>2021-11-20T09:57:10.000Z</time>
      </trkpt>
      <trkpt lat="43.71409" lon="3.51224">
        <ele>481</ele>
        <time>2021-11-20T09:57:19.000Z</time>
      </trkpt>
      <trkpt lat="43.71416" lon="3.51232">
        <ele>482</ele>
        <time>2021-11-20T09:57:28.000Z</time>
      </trkpt>
      <trkpt lat="43.71424" lon="3.51239">
        <ele>483</ele>
        <time>2021-11-20T09:57:37.000Z</time>
      </trkpt>
      <trkpt lat="43.7143" lon="3.51247">
        <ele>484</ele>
        <time>2021-11-20T09:57:50.000Z</time>
      </trkpt>
      <trkpt lat="43.71437" lon="3.51255">
        <ele>486</ele>
        <time>2021-11-20T09:58:02.000Z</time>
      </trkpt>
      <trkpt lat="43.71443" lon="3.51264">
        <ele>487</ele>
        <time>2021-11-20T09:58:15.000Z</time>
      </trkpt>
      <trkpt lat="43.7145" lon="3.51273">
        <ele>488</ele>
        <time>2021-11-20T09:58:27.000Z</time>
      </trkpt>
      <trkpt lat="43.71457" lon="3.51279">
        <ele>490</ele>
        <time>2021-11-20T09:58:38.000Z</time>
      </trkpt>
      <trkpt lat="43.71464" lon="3.51285">
        <ele>491</ele>
        <time>2021-11-20T09:58:49.000Z</time>
      </trkpt>
      <trkpt lat="43.71472" lon="3.51291">
        <ele>491</ele>
        <time>2021-11-20T09:59:00.000Z</time>
      </trkpt>
      <trkpt lat="43.7148" lon="3.51296">
        <ele>492</ele>
        <time>2021-11-20T09:59:11.000Z</time>
      </trkpt>
      <trkpt lat="43.71487" lon="3.51302">
        <ele>493</ele>
        <time>2021-11-20T09:59:23.000Z</time>
      </trkpt>
      <trkpt lat="43.71495" lon="3.51307">
        <ele>495</ele>
        <time>2021-11-20T09:59:35.000Z</time>
      </trkpt>
      <trkpt lat="43.71502" lon="3.51312">
        <ele>496</ele>
        <time>2021-11-20T09:59:46.000Z</time>
      </trkpt>
      <trkpt lat="43.7151" lon="3.51317">
        <ele>497</ele>
        <time>2021-11-20T09:59:58.000Z</time>
      </trkpt>
      <trkpt lat="43.71517" lon="3.51322">
        <ele>497</ele>
        <time>2021-11-20T10:00:07.000Z</time>
      </trkpt>
      <trkpt lat="43.71524" lon="3.51326">
        <ele>498</ele>
        <time>2021-11-20T10:00:16.000Z</time>
      </trkpt>
      <trkpt lat="43.71532" lon="3.51331">
        <ele>498</ele>
        <time>2021-11-20T10:00:25.000Z</time>
      </trkpt>
      <trkpt lat="43.71539" lon="3.51335">
        <ele>498</ele>
        <time>2021-11-20T10:00:34.000Z</time>
      </trkpt>
      <trkpt lat="43.71541" lon="3.51338">
        <ele>498</ele>
        <time>2021-11-20T10:01:01.000Z</time>
      </trkpt>
      <trkpt lat="43.71542" lon="3.51341">
        <ele>498</ele>
        <time>2021-11-20T10:01:27.000Z</time>
      </trkpt>
      <trkpt lat="43.7154" lon="3.51343">
        <ele>498</ele>
        <time>2021-11-20T10:01:54.000Z</time>
      </trkpt>
      <trkpt lat="43.71538" lon="3.51345">
        <ele>498</ele>
        <time>2021-11-20T10:02:20.000Z</time>
      </trkpt>
      <trkpt lat="43.71541" lon="3.51347">
        <ele>498</ele>
        <time>2021-11-20T10:02:30.000Z</time>
      </trkpt>
      <trkpt lat="43.71545" lon="3.51349">
        <ele>498</ele>
        <time>2021-11-20T10:02:39.000Z</time>
      </trkpt>
      <trkpt lat="43.7155" lon="3.5135">
        <ele>498</ele>
        <time>2021-11-20T10:02:49.000Z</time>
      </trkpt>
      <trkpt lat="43.71555" lon="3.51352">
        <ele>499</ele>
        <time>2021-11-20T10:02:58.000Z</time>
      </trkpt>
      <trkpt lat="43.71564" lon="3.5135">
        <ele>499</ele>
        <time>2021-11-20T10:03:17.000Z</time>
      </trkpt>
      <trkpt lat="43.71574" lon="3.51347">
        <ele>499</ele>
        <time>2021-11-20T10:03:35.000Z</time>
      </trkpt>
      <trkpt lat="43.71581" lon="3.51345">
        <ele>499</ele>
        <time>2021-11-20T10:03:42.000Z</time>
      </trkpt>
      <trkpt lat="43.71589" lon="3.51343">
        <ele>499</ele>
        <time>2021-11-20T10:03:48.000Z</time>
      </trkpt>
      <trkpt lat="43.71597" lon="3.51341">
        <ele>499</ele>
        <time>2021-11-20T10:03:55.000Z</time>
      </trkpt>
      <trkpt lat="43.71606" lon="3.51338">
        <ele>499</ele>
        <time>2021-11-20T10:04:01.000Z</time>
      </trkpt>
      <trkpt lat="43.71613" lon="3.51336">
        <ele>498</ele>
        <time>2021-11-20T10:04:06.000Z</time>
      </trkpt>
      <trkpt lat="43.71618" lon="3.51334">
        <ele>498</ele>
        <time>2021-11-20T10:04:11.000Z</time>
      </trkpt>
      <trkpt lat="43.71623" lon="3.51332">
        <ele>498</ele>
        <time>2021-11-20T10:04:16.000Z</time>
      </trkpt>
      <trkpt lat="43.71628" lon="3.51331">
        <ele>498</ele>
        <time>2021-11-20T10:04:21.000Z</time>
      </trkpt>
      <trkpt lat="43.71632" lon="3.51331">
        <ele>498</ele>
        <time>2021-11-20T10:04:25.000Z</time>
      </trkpt>
      <trkpt lat="43.71635" lon="3.51333">
        <ele>498</ele>
        <time>2021-11-20T10:04:29.000Z</time>
      </trkpt>
      <trkpt lat="43.71638" lon="3.51336">
        <ele>497</ele>
        <time>2021-11-20T10:04:33.000Z</time>
      </trkpt>
      <trkpt lat="43.71641" lon="3.51339">
        <ele>497</ele>
        <time>2021-11-20T10:04:37.000Z</time>
      </trkpt>
      <trkpt lat="43.71648" lon="3.51342">
        <ele>497</ele>
        <time>2021-11-20T10:04:44.000Z</time>
      </trkpt>
      <trkpt lat="43.71656" lon="3.51347">
        <ele>496</ele>
        <time>2021-11-20T10:04:50.000Z</time>
      </trkpt>
      <trkpt lat="43.71664" lon="3.51351">
        <ele>496</ele>
        <time>2021-11-20T10:04:57.000Z</time>
      </trkpt>
      <trkpt lat="43.71674" lon="3.51356">
        <ele>495</ele>
        <time>2021-11-20T10:05:03.000Z</time>
      </trkpt>
      <trkpt lat="43.71679" lon="3.51365">
        <ele>495</ele>
        <time>2021-11-20T10:05:11.000Z</time>
      </trkpt>
      <trkpt lat="43.71682" lon="3.51376">
        <ele>494</ele>
        <time>2021-11-20T10:05:19.000Z</time>
      </trkpt>
      <trkpt lat="43.71685" lon="3.51389">
        <ele>493</ele>
        <time>2021-11-20T10:05:27.000Z</time>
      </trkpt>
      <trkpt lat="43.71688" lon="3.51402">
        <ele>492</ele>
        <time>2021-11-20T10:05:35.000Z</time>
      </trkpt>
      <trkpt lat="43.71691" lon="3.51413">
        <ele>491</ele>
        <time>2021-11-20T10:05:43.000Z</time>
      </trkpt>
      <trkpt lat="43.71694" lon="3.51425">
        <ele>490</ele>
        <time>2021-11-20T10:05:51.000Z</time>
      </trkpt>
      <trkpt lat="43.71697" lon="3.51436">
        <ele>489</ele>
        <time>2021-11-20T10:05:59.000Z</time>
      </trkpt>
      <trkpt lat="43.717" lon="3.51448">
        <ele>488</ele>
        <time>2021-11-20T10:06:07.000Z</time>
      </trkpt>
      <trkpt lat="43.71703" lon="3.5146">
        <ele>487</ele>
        <time>2021-11-20T10:06:15.000Z</time>
      </trkpt>
      <trkpt lat="43.71705" lon="3.51471">
        <ele>486</ele>
        <time>2021-11-20T10:06:24.000Z</time>
      </trkpt>
      <trkpt lat="43.71707" lon="3.51484">
        <ele>485</ele>
        <time>2021-11-20T10:06:32.000Z</time>
      </trkpt>
      <trkpt lat="43.71709" lon="3.51496">
        <ele>484</ele>
        <time>2021-11-20T10:06:40.000Z</time>
      </trkpt>
      <trkpt lat="43.71717" lon="3.5151">
        <ele>484</ele>
        <time>2021-11-20T10:06:50.000Z</time>
      </trkpt>
      <trkpt lat="43.71727" lon="3.5152">
        <ele>485</ele>
        <time>2021-11-20T10:07:00.000Z</time>
      </trkpt>
      <trkpt lat="43.7173" lon="3.51522">
        <ele>485</ele>
        <time>2021-11-20T10:07:10.000Z</time>
      </trkpt>
      <trkpt lat="43.71733" lon="3.51523">
        <ele>485</ele>
        <time>2021-11-20T10:07:20.000Z</time>
      </trkpt>
      <trkpt lat="43.71737" lon="3.51522">
        <ele>484</ele>
        <time>2021-11-20T10:07:29.000Z</time>
      </trkpt>
      <trkpt lat="43.7174" lon="3.5152">
        <ele>484</ele>
        <time>2021-11-20T10:07:39.000Z</time>
      </trkpt>
      <trkpt lat="43.71746" lon="3.51517">
        <ele>484</ele>
        <time>2021-11-20T10:08:06.000Z</time>
      </trkpt>
      <trkpt lat="43.71754" lon="3.51512">
        <ele>484</ele>
        <time>2021-11-20T10:08:34.000Z</time>
      </trkpt>
      <trkpt lat="43.71762" lon="3.51506">
        <ele>484</ele>
        <time>2021-11-20T10:09:01.000Z</time>
      </trkpt>
      <trkpt lat="43.71772" lon="3.515">
        <ele>484</ele>
        <time>2021-11-20T10:09:28.000Z</time>
      </trkpt>
      <trkpt lat="43.71779" lon="3.51494">
        <ele>484</ele>
        <time>2021-11-20T10:09:37.000Z</time>
      </trkpt>
      <trkpt lat="43.71787" lon="3.51488">
        <ele>484</ele>
        <time>2021-11-20T10:09:45.000Z</time>
      </trkpt>
      <trkpt lat="43.71794" lon="3.51482">
        <ele>484</ele>
        <time>2021-11-20T10:09:54.000Z</time>
      </trkpt>
      <trkpt lat="43.71801" lon="3.51476">
        <ele>484</ele>
        <time>2021-11-20T10:10:02.000Z</time>
      </trkpt>
      <trkpt lat="43.71809" lon="3.51471">
        <ele>484</ele>
        <time>2021-11-20T10:10:09.000Z</time>
      </trkpt>
      <trkpt lat="43.71817" lon="3.51466">
        <ele>484</ele>
        <time>2021-11-20T10:10:16.000Z</time>
      </trkpt>
      <trkpt lat="43.71825" lon="3.51462">
        <ele>484</ele>
        <time>2021-11-20T10:10:23.000Z</time>
      </trkpt>
      <trkpt lat="43.71833" lon="3.51457">
        <ele>484</ele>
        <time>2021-11-20T10:10:30.000Z</time>
      </trkpt>
      <trkpt lat="43.71841" lon="3.51451">
        <ele>484</ele>
        <time>2021-11-20T10:10:38.000Z</time>
      </trkpt>
      <trkpt lat="43.71848" lon="3.51444">
        <ele>484</ele>
        <time>2021-11-20T10:10:45.000Z</time>
      </trkpt>
      <trkpt lat="43.71855" lon="3.51437">
        <ele>485</ele>
        <time>2021-11-20T10:10:53.000Z</time>
      </trkpt>
      <trkpt lat="43.71862" lon="3.51429">
        <ele>485</ele>
        <time>2021-11-20T10:11:00.000Z</time>
      </trkpt>
      <trkpt lat="43.7187" lon="3.51423">
        <ele>485</ele>
        <time>2021-11-20T10:11:09.000Z</time>
      </trkpt>
      <trkpt lat="43.71878" lon="3.51418">
        <ele>485</ele>
        <time>2021-11-20T10:11:18.000Z</time>
      </trkpt>
      <trkpt lat="43.71886" lon="3.51414">
        <ele>485</ele>
        <time>2021-11-20T10:11:26.000Z</time>
      </trkpt>
      <trkpt lat="43.71895" lon="3.5141">
        <ele>486</ele>
        <time>2021-11-20T10:11:35.000Z</time>
      </trkpt>
      <trkpt lat="43.71927" lon="3.51395">
        <ele>488</ele>
        <time>2021-11-20T10:12:07.000Z</time>
      </trkpt>
      <trkpt lat="43.71947" lon="3.51387">
        <ele>490</ele>
        <time>2021-11-20T10:12:28.000Z</time>
      </trkpt>
      <trkpt lat="43.7196" lon="3.51376">
        <ele>492</ele>
        <time>2021-11-20T10:12:43.000Z</time>
      </trkpt>
      <trkpt lat="43.71989" lon="3.51349">
        <ele>495</ele>
        <time>2021-11-20T10:13:20.000Z</time>
      </trkpt>
      <trkpt lat="43.7202" lon="3.51329">
        <ele>498</ele>
        <time>2021-11-20T10:13:51.000Z</time>
      </trkpt>
      <trkpt lat="43.72054" lon="3.51319">
        <ele>503</ele>
        <time>2021-11-20T10:14:29.000Z</time>
      </trkpt>
      <trkpt lat="43.72086" lon="3.51308">
        <ele>506</ele>
        <time>2021-11-20T10:15:01.000Z</time>
      </trkpt>
      <trkpt lat="43.72105" lon="3.51303">
        <ele>508</ele>
        <time>2021-11-20T10:15:19.000Z</time>
      </trkpt>
      <trkpt lat="43.72119" lon="3.5129">
        <ele>510</ele>
        <time>2021-11-20T10:15:35.000Z</time>
      </trkpt>
      <trkpt lat="43.72131" lon="3.5128">
        <ele>512</ele>
        <time>2021-11-20T10:15:49.000Z</time>
      </trkpt>
      <trkpt lat="43.72152" lon="3.51273">
        <ele>514</ele>
        <time>2021-11-20T10:16:12.000Z</time>
      </trkpt>
      <trkpt lat="43.72176" lon="3.51272">
        <ele>517</ele>
        <time>2021-11-20T10:16:34.000Z</time>
      </trkpt>
      <trkpt lat="43.72178" lon="3.51277">
        <ele>517</ele>
        <time>2021-11-20T10:16:41.000Z</time>
      </trkpt>
      <trkpt lat="43.7218" lon="3.51283">
        <ele>518</ele>
        <time>2021-11-20T10:16:48.000Z</time>
      </trkpt>
      <trkpt lat="43.72181" lon="3.5129">
        <ele>519</ele>
        <time>2021-11-20T10:16:55.000Z</time>
      </trkpt>
      <trkpt lat="43.72181" lon="3.51298">
        <ele>520</ele>
        <time>2021-11-20T10:17:02.000Z</time>
      </trkpt>
      <trkpt lat="43.72186" lon="3.51305">
        <ele>521</ele>
        <time>2021-11-20T10:17:11.000Z</time>
      </trkpt>
      <trkpt lat="43.72193" lon="3.51312">
        <ele>521</ele>
        <time>2021-11-20T10:17:19.000Z</time>
      </trkpt>
      <trkpt lat="43.72201" lon="3.51319">
        <ele>522</ele>
        <time>2021-11-20T10:17:28.000Z</time>
      </trkpt>
      <trkpt lat="43.7221" lon="3.51325">
        <ele>523</ele>
        <time>2021-11-20T10:17:36.000Z</time>
      </trkpt>
      <trkpt lat="43.72226" lon="3.51331">
        <ele>524</ele>
        <time>2021-11-20T10:17:52.000Z</time>
      </trkpt>
      <trkpt lat="43.72244" lon="3.51332">
        <ele>526</ele>
        <time>2021-11-20T10:18:08.000Z</time>
      </trkpt>
      <trkpt lat="43.72259" lon="3.51343">
        <ele>529</ele>
        <time>2021-11-20T10:18:26.000Z</time>
      </trkpt>
      <trkpt lat="43.72274" lon="3.51358">
        <ele>531</ele>
        <time>2021-11-20T10:18:43.000Z</time>
      </trkpt>
      <trkpt lat="43.72281" lon="3.51366">
        <ele>532</ele>
        <time>2021-11-20T10:18:52.000Z</time>
      </trkpt>
      <trkpt lat="43.72287" lon="3.51374">
        <ele>533</ele>
        <time>2021-11-20T10:19:00.000Z</time>
      </trkpt>
      <trkpt lat="43.72294" lon="3.51382">
        <ele>534</ele>
        <time>2021-11-20T10:19:09.000Z</time>
      </trkpt>
      <trkpt lat="43.723" lon="3.51391">
        <ele>535</ele>
        <time>2021-11-20T10:19:17.000Z</time>
      </trkpt>
      <trkpt lat="43.72303" lon="3.51402">
        <ele>535</ele>
        <time>2021-11-20T10:19:26.000Z</time>
      </trkpt>
      <trkpt lat="43.72305" lon="3.51413">
        <ele>536</ele>
        <time>2021-11-20T10:19:35.000Z</time>
      </trkpt>
      <trkpt lat="43.72305" lon="3.51426">
        <ele>537</ele>
        <time>2021-11-20T10:19:44.000Z</time>
      </trkpt>
      <trkpt lat="43.72304" lon="3.51439">
        <ele>538</ele>
        <time>2021-11-20T10:19:53.000Z</time>
      </trkpt>
      <trkpt lat="43.72303" lon="3.5145">
        <ele>539</ele>
        <time>2021-11-20T10:20:02.000Z</time>
      </trkpt>
      <trkpt lat="43.72301" lon="3.51462">
        <ele>540</ele>
        <time>2021-11-20T10:20:10.000Z</time>
      </trkpt>
      <trkpt lat="43.72298" lon="3.51473">
        <ele>541</ele>
        <time>2021-11-20T10:20:19.000Z</time>
      </trkpt>
      <trkpt lat="43.72295" lon="3.51485">
        <ele>542</ele>
        <time>2021-11-20T10:20:27.000Z</time>
      </trkpt>
      <trkpt lat="43.72294" lon="3.51497">
        <ele>543</ele>
        <time>2021-11-20T10:20:35.000Z</time>
      </trkpt>
      <trkpt lat="43.72294" lon="3.51509">
        <ele>544</ele>
        <time>2021-11-20T10:20:43.000Z</time>
      </trkpt>
      <trkpt lat="43.72295" lon="3.51522">
        <ele>544</ele>
        <time>2021-11-20T10:20:50.000Z</time>
      </trkpt>
      <trkpt lat="43.72296" lon="3.51534">
        <ele>545</ele>
        <time>2021-11-20T10:20:58.000Z</time>
      </trkpt>
      <trkpt lat="43.72298" lon="3.51541">
        <ele>546</ele>
        <time>2021-11-20T10:21:02.000Z</time>
      </trkpt>
      <trkpt lat="43.72301" lon="3.51546">
        <ele>546</ele>
        <time>2021-11-20T10:21:07.000Z</time>
      </trkpt>
      <trkpt lat="43.72305" lon="3.51548">
        <ele>547</ele>
        <time>2021-11-20T10:21:11.000Z</time>
      </trkpt>
      <trkpt lat="43.72309" lon="3.51551">
        <ele>547</ele>
        <time>2021-11-20T10:21:15.000Z</time>
      </trkpt>
      <trkpt lat="43.72318" lon="3.51554">
        <ele>548</ele>
        <time>2021-11-20T10:21:24.000Z</time>
      </trkpt>
      <trkpt lat="43.72328" lon="3.51554">
        <ele>549</ele>
        <time>2021-11-20T10:21:32.000Z</time>
      </trkpt>
      <trkpt lat="43.72331" lon="3.51554">
        <ele>549</ele>
        <time>2021-11-20T10:21:35.000Z</time>
      </trkpt>
      <trkpt lat="43.72334" lon="3.51554">
        <ele>549</ele>
        <time>2021-11-20T10:21:38.000Z</time>
      </trkpt>
      <trkpt lat="43.72336" lon="3.51553">
        <ele>549</ele>
        <time>2021-11-20T10:21:41.000Z</time>
      </trkpt>
      <trkpt lat="43.72338" lon="3.51552">
        <ele>549</ele>
        <time>2021-11-20T10:21:44.000Z</time>
      </trkpt>
      <trkpt lat="43.7234" lon="3.51552">
        <ele>549</ele>
        <time>2021-11-20T10:21:59.000Z</time>
      </trkpt>
      <trkpt lat="43.72342" lon="3.51553">
        <ele>549</ele>
        <time>2021-11-20T10:22:15.000Z</time>
      </trkpt>
      <trkpt lat="43.72342" lon="3.51554">
        <ele>549</ele>
        <time>2021-11-20T10:22:30.000Z</time>
      </trkpt>
      <trkpt lat="43.72343" lon="3.51556">
        <ele>549</ele>
        <time>2021-11-20T10:22:45.000Z</time>
      </trkpt>
      <trkpt lat="43.72343" lon="3.51554">
        <ele>549</ele>
        <time>2021-11-20T10:24:07.000Z</time>
      </trkpt>
      <trkpt lat="43.72342" lon="3.51551">
        <ele>549</ele>
        <time>2021-11-20T10:25:30.000Z</time>
      </trkpt>
      <trkpt lat="43.7234" lon="3.51548">
        <ele>549</ele>
        <time>2021-11-20T10:26:52.000Z</time>
      </trkpt>
      <trkpt lat="43.72338" lon="3.51544">
        <ele>549</ele>
        <time>2021-11-20T10:28:14.000Z</time>
      </trkpt>
      <trkpt lat="43.72342" lon="3.51545">
        <ele>549</ele>
        <time>2021-11-20T10:28:19.000Z</time>
      </trkpt>
      <trkpt lat="43.72348" lon="3.51548">
        <ele>549</ele>
        <time>2021-11-20T10:28:25.000Z</time>
      </trkpt>
      <trkpt lat="43.72354" lon="3.51552">
        <ele>549</ele>
        <time>2021-11-20T10:28:30.000Z</time>
      </trkpt>
      <trkpt lat="43.72362" lon="3.51557">
        <ele>550</ele>
        <time>2021-11-20T10:28:35.000Z</time>
      </trkpt>
      <trkpt lat="43.72369" lon="3.51559">
        <ele>550</ele>
        <time>2021-11-20T10:28:41.000Z</time>
      </trkpt>
      <trkpt lat="43.72378" lon="3.51561">
        <ele>550</ele>
        <time>2021-11-20T10:28:48.000Z</time>
      </trkpt>
      <trkpt lat="43.72387" lon="3.51562">
        <ele>550</ele>
        <time>2021-11-20T10:28:54.000Z</time>
      </trkpt>
      <trkpt lat="43.72396" lon="3.51563">
        <ele>550</ele>
        <time>2021-11-20T10:29:00.000Z</time>
      </trkpt>
      <trkpt lat="43.72404" lon="3.51565">
        <ele>550</ele>
        <time>2021-11-20T10:29:07.000Z</time>
      </trkpt>
      <trkpt lat="43.72413" lon="3.51567">
        <ele>549</ele>
        <time>2021-11-20T10:29:14.000Z</time>
      </trkpt>
      <trkpt lat="43.72421" lon="3.51569">
        <ele>549</ele>
        <time>2021-11-20T10:29:20.000Z</time>
      </trkpt>
      <trkpt lat="43.7243" lon="3.51572">
        <ele>549</ele>
        <time>2021-11-20T10:29:27.000Z</time>
      </trkpt>
      <trkpt lat="43.72438" lon="3.51571">
        <ele>548</ele>
        <time>2021-11-20T10:29:36.000Z</time>
      </trkpt>
      <trkpt lat="43.72447" lon="3.5157">
        <ele>547</ele>
        <time>2021-11-20T10:29:44.000Z</time>
      </trkpt>
      <trkpt lat="43.72456" lon="3.51568">
        <ele>546</ele>
        <time>2021-11-20T10:29:53.000Z</time>
      </trkpt>
      <trkpt lat="43.72464" lon="3.51566">
        <ele>545</ele>
        <time>2021-11-20T10:30:01.000Z</time>
      </trkpt>
      <trkpt lat="43.72473" lon="3.51566">
        <ele>545</ele>
        <time>2021-11-20T10:30:09.000Z</time>
      </trkpt>
      <trkpt lat="43.72482" lon="3.51567">
        <ele>544</ele>
        <time>2021-11-20T10:30:16.000Z</time>
      </trkpt>
      <trkpt lat="43.7249" lon="3.51568">
        <ele>544</ele>
        <time>2021-11-20T10:30:24.000Z</time>
      </trkpt>
      <trkpt lat="43.72499" lon="3.5157">
        <ele>544</ele>
        <time>2021-11-20T10:30:31.000Z</time>
      </trkpt>
      <trkpt lat="43.72503" lon="3.51571">
        <ele>544</ele>
        <time>2021-11-20T10:30:34.000Z</time>
      </trkpt>
      <trkpt lat="43.72506" lon="3.51572">
        <ele>544</ele>
        <time>2021-11-20T10:30:36.000Z</time>
      </trkpt>
      <trkpt lat="43.72508" lon="3.51572">
        <ele>544</ele>
        <time>2021-11-20T10:30:39.000Z</time>
      </trkpt>
      <trkpt lat="43.72509" lon="3.51573">
        <ele>544</ele>
        <time>2021-11-20T10:30:41.000Z</time>
      </trkpt>
      <trkpt lat="43.72513" lon="3.51576">
        <ele>543</ele>
        <time>2021-11-20T10:30:46.000Z</time>
      </trkpt>
      <trkpt lat="43.72515" lon="3.5158">
        <ele>543</ele>
        <time>2021-11-20T10:30:50.000Z</time>
      </trkpt>
      <trkpt lat="43.72518" lon="3.51593">
        <ele>543</ele>
        <time>2021-11-20T10:31:03.000Z</time>
      </trkpt>
      <trkpt lat="43.7252" lon="3.5161">
        <ele>544</ele>
        <time>2021-11-20T10:31:15.000Z</time>
      </trkpt>
      <trkpt lat="43.72517" lon="3.5162">
        <ele>544</ele>
        <time>2021-11-20T10:31:22.000Z</time>
      </trkpt>
      <trkpt lat="43.72513" lon="3.5163">
        <ele>544</ele>
        <time>2021-11-20T10:31:30.000Z</time>
      </trkpt>
      <trkpt lat="43.72507" lon="3.51641">
        <ele>544</ele>
        <time>2021-11-20T10:31:37.000Z</time>
      </trkpt>
      <trkpt lat="43.72501" lon="3.51652">
        <ele>544</ele>
        <time>2021-11-20T10:31:44.000Z</time>
      </trkpt>
      <trkpt lat="43.72498" lon="3.51658">
        <ele>544</ele>
        <time>2021-11-20T10:31:47.000Z</time>
      </trkpt>
      <trkpt lat="43.72495" lon="3.51662">
        <ele>544</ele>
        <time>2021-11-20T10:31:50.000Z</time>
      </trkpt>
      <trkpt lat="43.72493" lon="3.51665">
        <ele>544</ele>
        <time>2021-11-20T10:31:52.000Z</time>
      </trkpt>
      <trkpt lat="43.72491" lon="3.51668">
        <ele>544</ele>
        <time>2021-11-20T10:31:55.000Z</time>
      </trkpt>
      <trkpt lat="43.7249" lon="3.51673">
        <ele>544</ele>
        <time>2021-11-20T10:31:59.000Z</time>
      </trkpt>
      <trkpt lat="43.72488" lon="3.5168">
        <ele>544</ele>
        <time>2021-11-20T10:32:03.000Z</time>
      </trkpt>
      <trkpt lat="43.72486" lon="3.51687">
        <ele>544</ele>
        <time>2021-11-20T10:32:07.000Z</time>
      </trkpt>
      <trkpt lat="43.72484" lon="3.51694">
        <ele>544</ele>
        <time>2021-11-20T10:32:11.000Z</time>
      </trkpt>
      <trkpt lat="43.72483" lon="3.517">
        <ele>544</ele>
        <time>2021-11-20T10:32:14.000Z</time>
      </trkpt>
      <trkpt lat="43.72481" lon="3.51704">
        <ele>544</ele>
        <time>2021-11-20T10:32:18.000Z</time>
      </trkpt>
      <trkpt lat="43.7248" lon="3.51708">
        <ele>544</ele>
        <time>2021-11-20T10:32:21.000Z</time>
      </trkpt>
      <trkpt lat="43.72479" lon="3.51712">
        <ele>544</ele>
        <time>2021-11-20T10:32:24.000Z</time>
      </trkpt>
      <trkpt lat="43.72477" lon="3.51718">
        <ele>545</ele>
        <time>2021-11-20T10:32:29.000Z</time>
      </trkpt>
      <trkpt lat="43.72474" lon="3.51724">
        <ele>545</ele>
        <time>2021-11-20T10:32:33.000Z</time>
      </trkpt>
      <trkpt lat="43.7247" lon="3.51731">
        <ele>546</ele>
        <time>2021-11-20T10:32:38.000Z</time>
      </trkpt>
      <trkpt lat="43.72467" lon="3.51737">
        <ele>546</ele>
        <time>2021-11-20T10:32:42.000Z</time>
      </trkpt>
      <trkpt lat="43.72464" lon="3.51742">
        <ele>546</ele>
        <time>2021-11-20T10:32:45.000Z</time>
      </trkpt>
      <trkpt lat="43.72462" lon="3.51747">
        <ele>546</ele>
        <time>2021-11-20T10:32:49.000Z</time>
      </trkpt>
      <trkpt lat="43.72459" lon="3.51751">
        <ele>546</ele>
        <time>2021-11-20T10:32:52.000Z</time>
      </trkpt>
      <trkpt lat="43.72457" lon="3.51754">
        <ele>547</ele>
        <time>2021-11-20T10:32:55.000Z</time>
      </trkpt>
      <trkpt lat="43.72446" lon="3.51776">
        <ele>548</ele>
        <time>2021-11-20T10:33:12.000Z</time>
      </trkpt>
      <trkpt lat="43.72429" lon="3.51818">
        <ele>551</ele>
        <time>2021-11-20T10:33:47.000Z</time>
      </trkpt>
      <trkpt lat="43.72426" lon="3.51835">
        <ele>552</ele>
        <time>2021-11-20T10:33:57.000Z</time>
      </trkpt>
      <trkpt lat="43.72427" lon="3.51849">
        <ele>552</ele>
        <time>2021-11-20T10:34:07.000Z</time>
      </trkpt>
      <trkpt lat="43.72428" lon="3.51855">
        <ele>552</ele>
        <time>2021-11-20T10:34:10.000Z</time>
      </trkpt>
      <trkpt lat="43.72429" lon="3.51859">
        <ele>552</ele>
        <time>2021-11-20T10:34:13.000Z</time>
      </trkpt>
      <trkpt lat="43.7243" lon="3.51863">
        <ele>552</ele>
        <time>2021-11-20T10:34:16.000Z</time>
      </trkpt>
      <trkpt lat="43.72431" lon="3.51867">
        <ele>552</ele>
        <time>2021-11-20T10:34:19.000Z</time>
      </trkpt>
      <trkpt lat="43.72432" lon="3.51872">
        <ele>552</ele>
        <time>2021-11-20T10:34:23.000Z</time>
      </trkpt>
      <trkpt lat="43.72434" lon="3.51877">
        <ele>553</ele>
        <time>2021-11-20T10:34:27.000Z</time>
      </trkpt>
      <trkpt lat="43.72436" lon="3.51882">
        <ele>553</ele>
        <time>2021-11-20T10:34:31.000Z</time>
      </trkpt>
      <trkpt lat="43.72438" lon="3.51888">
        <ele>553</ele>
        <time>2021-11-20T10:34:35.000Z</time>
      </trkpt>
      <trkpt lat="43.72442" lon="3.51891">
        <ele>553</ele>
        <time>2021-11-20T10:34:39.000Z</time>
      </trkpt>
      <trkpt lat="43.72447" lon="3.51893">
        <ele>554</ele>
        <time>2021-11-20T10:34:44.000Z</time>
      </trkpt>
      <trkpt lat="43.72453" lon="3.51894">
        <ele>554</ele>
        <time>2021-11-20T10:34:48.000Z</time>
      </trkpt>
      <trkpt lat="43.72459" lon="3.51895">
        <ele>555</ele>
        <time>2021-11-20T10:34:52.000Z</time>
      </trkpt>
      <trkpt lat="43.72464" lon="3.51896">
        <ele>555</ele>
        <time>2021-11-20T10:34:56.000Z</time>
      </trkpt>
      <trkpt lat="43.72469" lon="3.51896">
        <ele>555</ele>
        <time>2021-11-20T10:35:00.000Z</time>
      </trkpt>
      <trkpt lat="43.72473" lon="3.51896">
        <ele>555</ele>
        <time>2021-11-20T10:35:04.000Z</time>
      </trkpt>
      <trkpt lat="43.72477" lon="3.51895">
        <ele>555</ele>
        <time>2021-11-20T10:35:08.000Z</time>
      </trkpt>
      <trkpt lat="43.72481" lon="3.51896">
        <ele>555</ele>
        <time>2021-11-20T10:35:12.000Z</time>
      </trkpt>
      <trkpt lat="43.72485" lon="3.51898">
        <ele>555</ele>
        <time>2021-11-20T10:35:15.000Z</time>
      </trkpt>
      <trkpt lat="43.7249" lon="3.51899">
        <ele>556</ele>
        <time>2021-11-20T10:35:19.000Z</time>
      </trkpt>
      <trkpt lat="43.72493" lon="3.51901">
        <ele>556</ele>
        <time>2021-11-20T10:35:22.000Z</time>
      </trkpt>
      <trkpt lat="43.72498" lon="3.51904">
        <ele>556</ele>
        <time>2021-11-20T10:35:26.000Z</time>
      </trkpt>
      <trkpt lat="43.72502" lon="3.51908">
        <ele>556</ele>
        <time>2021-11-20T10:35:31.000Z</time>
      </trkpt>
      <trkpt lat="43.72506" lon="3.51912">
        <ele>556</ele>
        <time>2021-11-20T10:35:35.000Z</time>
      </trkpt>
      <trkpt lat="43.72511" lon="3.51916">
        <ele>557</ele>
        <time>2021-11-20T10:35:39.000Z</time>
      </trkpt>
      <trkpt lat="43.72514" lon="3.5192">
        <ele>557</ele>
        <time>2021-11-20T10:35:43.000Z</time>
      </trkpt>
      <trkpt lat="43.72516" lon="3.51924">
        <ele>557</ele>
        <time>2021-11-20T10:35:46.000Z</time>
      </trkpt>
      <trkpt lat="43.72518" lon="3.51929">
        <ele>557</ele>
        <time>2021-11-20T10:35:50.000Z</time>
      </trkpt>
      <trkpt lat="43.7252" lon="3.51933">
        <ele>557</ele>
        <time>2021-11-20T10:35:53.000Z</time>
      </trkpt>
      <trkpt lat="43.72525" lon="3.5194">
        <ele>558</ele>
        <time>2021-11-20T10:36:01.000Z</time>
      </trkpt>
      <trkpt lat="43.72532" lon="3.51948">
        <ele>558</ele>
        <time>2021-11-20T10:36:09.000Z</time>
      </trkpt>
      <trkpt lat="43.72539" lon="3.51956">
        <ele>559</ele>
        <time>2021-11-20T10:36:16.000Z</time>
      </trkpt>
      <trkpt lat="43.72547" lon="3.51965">
        <ele>560</ele>
        <time>2021-11-20T10:36:24.000Z</time>
      </trkpt>
      <trkpt lat="43.72578" lon="3.51989">
        <ele>561</ele>
        <time>2021-11-20T10:36:52.000Z</time>
      </trkpt>
      <trkpt lat="43.72595" lon="3.51993">
        <ele>562</ele>
        <time>2021-11-20T10:37:08.000Z</time>
      </trkpt>
      <trkpt lat="43.72613" lon="3.51992">
        <ele>563</ele>
        <time>2021-11-20T10:37:24.000Z</time>
      </trkpt>
      <trkpt lat="43.72625" lon="3.51987">
        <ele>564</ele>
        <time>2021-11-20T10:37:37.000Z</time>
      </trkpt>
      <trkpt lat="43.72634" lon="3.51979">
        <ele>565</ele>
        <time>2021-11-20T10:37:49.000Z</time>
      </trkpt>
      <trkpt lat="43.72638" lon="3.51979">
        <ele>566</ele>
        <time>2021-11-20T10:37:55.000Z</time>
      </trkpt>
      <trkpt lat="43.72637" lon="3.51981">
        <ele>566</ele>
        <time>2021-11-20T10:38:00.000Z</time>
      </trkpt>
      <trkpt lat="43.72636" lon="3.51982">
        <ele>566</ele>
        <time>2021-11-20T10:38:08.000Z</time>
      </trkpt>
      <trkpt lat="43.72633" lon="3.51983">
        <ele>566</ele>
        <time>2021-11-20T10:38:16.000Z</time>
      </trkpt>
      <trkpt lat="43.72631" lon="3.51984">
        <ele>566</ele>
        <time>2021-11-20T10:38:23.000Z</time>
      </trkpt>
      <trkpt lat="43.72627" lon="3.51985">
        <ele>566</ele>
        <time>2021-11-20T10:38:31.000Z</time>
      </trkpt>
      <trkpt lat="43.72627" lon="3.51984">
        <ele>566</ele>
        <time>2021-11-20T10:38:42.000Z</time>
      </trkpt>
      <trkpt lat="43.72627" lon="3.51981">
        <ele>566</ele>
        <time>2021-11-20T10:38:53.000Z</time>
      </trkpt>
      <trkpt lat="43.72628" lon="3.51977">
        <ele>566</ele>
        <time>2021-11-20T10:39:04.000Z</time>
      </trkpt>
      <trkpt lat="43.7263" lon="3.51974">
        <ele>566</ele>
        <time>2021-11-20T10:39:15.000Z</time>
      </trkpt>
      <trkpt lat="43.72632" lon="3.51971">
        <ele>566</ele>
        <time>2021-11-20T10:39:19.000Z</time>
      </trkpt>
      <trkpt lat="43.72635" lon="3.51968">
        <ele>566</ele>
        <time>2021-11-20T10:39:22.000Z</time>
      </trkpt>
      <trkpt lat="43.72638" lon="3.51966">
        <ele>567</ele>
        <time>2021-11-20T10:39:26.000Z</time>
      </trkpt>
      <trkpt lat="43.72641" lon="3.51963">
        <ele>567</ele>
        <time>2021-11-20T10:39:29.000Z</time>
      </trkpt>
      <trkpt lat="43.72646" lon="3.51956">
        <ele>568</ele>
        <time>2021-11-20T10:39:37.000Z</time>
      </trkpt>
      <trkpt lat="43.72652" lon="3.51948">
        <ele>569</ele>
        <time>2021-11-20T10:39:45.000Z</time>
      </trkpt>
      <trkpt lat="43.72659" lon="3.51939">
        <ele>569</ele>
        <time>2021-11-20T10:39:53.000Z</time>
      </trkpt>
      <trkpt lat="43.72666" lon="3.5193">
        <ele>570</ele>
        <time>2021-11-20T10:40:01.000Z</time>
      </trkpt>
      <trkpt lat="43.72673" lon="3.51922">
        <ele>571</ele>
        <time>2021-11-20T10:40:10.000Z</time>
      </trkpt>
      <trkpt lat="43.7268" lon="3.51914">
        <ele>572</ele>
        <time>2021-11-20T10:40:18.000Z</time>
      </trkpt>
      <trkpt lat="43.72686" lon="3.51906">
        <ele>572</ele>
        <time>2021-11-20T10:40:27.000Z</time>
      </trkpt>
      <trkpt lat="43.72693" lon="3.51899">
        <ele>573</ele>
        <time>2021-11-20T10:40:35.000Z</time>
      </trkpt>
      <trkpt lat="43.72699" lon="3.51893">
        <ele>574</ele>
        <time>2021-11-20T10:40:41.000Z</time>
      </trkpt>
      <trkpt lat="43.72704" lon="3.51889">
        <ele>574</ele>
        <time>2021-11-20T10:40:46.000Z</time>
      </trkpt>
      <trkpt lat="43.72708" lon="3.51886">
        <ele>575</ele>
        <time>2021-11-20T10:40:52.000Z</time>
      </trkpt>
      <trkpt lat="43.72712" lon="3.51883">
        <ele>575</ele>
        <time>2021-11-20T10:40:57.000Z</time>
      </trkpt>
      <trkpt lat="43.72719" lon="3.51881">
        <ele>575</ele>
        <time>2021-11-20T10:41:04.000Z</time>
      </trkpt>
      <trkpt lat="43.72726" lon="3.51881">
        <ele>576</ele>
        <time>2021-11-20T10:41:11.000Z</time>
      </trkpt>
      <trkpt lat="43.7273" lon="3.51883">
        <ele>576</ele>
        <time>2021-11-20T10:41:16.000Z</time>
      </trkpt>
      <trkpt lat="43.72734" lon="3.51886">
        <ele>576</ele>
        <time>2021-11-20T10:41:20.000Z</time>
      </trkpt>
      <trkpt lat="43.72739" lon="3.5189">
        <ele>577</ele>
        <time>2021-11-20T10:41:25.000Z</time>
      </trkpt>
      <trkpt lat="43.72743" lon="3.51895">
        <ele>578</ele>
        <time>2021-11-20T10:41:29.000Z</time>
      </trkpt>
      <trkpt lat="43.72749" lon="3.51904">
        <ele>579</ele>
        <time>2021-11-20T10:41:36.000Z</time>
      </trkpt>
      <trkpt lat="43.72752" lon="3.51913">
        <ele>580</ele>
        <time>2021-11-20T10:41:43.000Z</time>
      </trkpt>
      <trkpt lat="43.72752" lon="3.51916">
        <ele>580</ele>
        <time>2021-11-20T10:41:45.000Z</time>
      </trkpt>
      <trkpt lat="43.72752" lon="3.51918">
        <ele>580</ele>
        <time>2021-11-20T10:41:48.000Z</time>
      </trkpt>
      <trkpt lat="43.7275" lon="3.51919">
        <ele>580</ele>
        <time>2021-11-20T10:41:50.000Z</time>
      </trkpt>
      <trkpt lat="43.72749" lon="3.5192">
        <ele>580</ele>
        <time>2021-11-20T10:41:52.000Z</time>
      </trkpt>
      <trkpt lat="43.72749" lon="3.51924">
        <ele>580</ele>
        <time>2021-11-20T10:41:57.000Z</time>
      </trkpt>
      <trkpt lat="43.7275" lon="3.5193">
        <ele>580</ele>
        <time>2021-11-20T10:42:01.000Z</time>
      </trkpt>
      <trkpt lat="43.72751" lon="3.51935">
        <ele>580</ele>
        <time>2021-11-20T10:42:06.000Z</time>
      </trkpt>
      <trkpt lat="43.72753" lon="3.51942">
        <ele>580</ele>
        <time>2021-11-20T10:42:10.000Z</time>
      </trkpt>
      <trkpt lat="43.72753" lon="3.51944">
        <ele>580</ele>
        <time>2021-11-20T10:42:12.000Z</time>
      </trkpt>
      <trkpt lat="43.72752" lon="3.51946">
        <ele>580</ele>
        <time>2021-11-20T10:42:14.000Z</time>
      </trkpt>
      <trkpt lat="43.7275" lon="3.51946">
        <ele>580</ele>
        <time>2021-11-20T10:42:16.000Z</time>
      </trkpt>
      <trkpt lat="43.72749" lon="3.51946">
        <ele>581</ele>
        <time>2021-11-20T10:42:18.000Z</time>
      </trkpt>
      <trkpt lat="43.72749" lon="3.51949">
        <ele>581</ele>
        <time>2021-11-20T10:42:22.000Z</time>
      </trkpt>
      <trkpt lat="43.7275" lon="3.51953">
        <ele>581</ele>
        <time>2021-11-20T10:42:26.000Z</time>
      </trkpt>
      <trkpt lat="43.72752" lon="3.51957">
        <ele>581</ele>
        <time>2021-11-20T10:42:29.000Z</time>
      </trkpt>
      <trkpt lat="43.72754" lon="3.51961">
        <ele>582</ele>
        <time>2021-11-20T10:42:33.000Z</time>
      </trkpt>
      <trkpt lat="43.72757" lon="3.51966">
        <ele>582</ele>
        <time>2021-11-20T10:42:42.000Z</time>
      </trkpt>
      <trkpt lat="43.72759" lon="3.51972">
        <ele>582</ele>
        <time>2021-11-20T10:42:51.000Z</time>
      </trkpt>
      <trkpt lat="43.72762" lon="3.51978">
        <ele>582</ele>
        <time>2021-11-20T10:42:59.000Z</time>
      </trkpt>
      <trkpt lat="43.72766" lon="3.51984">
        <ele>583</ele>
        <time>2021-11-20T10:43:08.000Z</time>
      </trkpt>
      <trkpt lat="43.72765" lon="3.51987">
        <ele>583</ele>
        <time>2021-11-20T10:43:14.000Z</time>
      </trkpt>
      <trkpt lat="43.72764" lon="3.51987">
        <ele>583</ele>
        <time>2021-11-20T10:43:19.000Z</time>
      </trkpt>
      <trkpt lat="43.72762" lon="3.51987">
        <ele>583</ele>
        <time>2021-11-20T10:43:25.000Z</time>
      </trkpt>
      <trkpt lat="43.7276" lon="3.51986">
        <ele>583</ele>
        <time>2021-11-20T10:43:30.000Z</time>
      </trkpt>
      <trkpt lat="43.72763" lon="3.51988">
        <ele>583</ele>
        <time>2021-11-20T10:43:47.000Z</time>
      </trkpt>
      <trkpt lat="43.72767" lon="3.51989">
        <ele>583</ele>
        <time>2021-11-20T10:44:04.000Z</time>
      </trkpt>
      <trkpt lat="43.72773" lon="3.51991">
        <ele>583</ele>
        <time>2021-11-20T10:44:21.000Z</time>
      </trkpt>
      <trkpt lat="43.72779" lon="3.51992">
        <ele>582</ele>
        <time>2021-11-20T10:44:38.000Z</time>
      </trkpt>
      <trkpt lat="43.72787" lon="3.51994">
        <ele>582</ele>
        <time>2021-11-20T10:44:44.000Z</time>
      </trkpt>
      <trkpt lat="43.72795" lon="3.51996">
        <ele>582</ele>
        <time>2021-11-20T10:44:50.000Z</time>
      </trkpt>
      <trkpt lat="43.72804" lon="3.51997">
        <ele>582</ele>
        <time>2021-11-20T10:44:55.000Z</time>
      </trkpt>
      <trkpt lat="43.72813" lon="3.51999">
        <ele>582</ele>
        <time>2021-11-20T10:45:01.000Z</time>
      </trkpt>
      <trkpt lat="43.72819" lon="3.52001">
        <ele>582</ele>
        <time>2021-11-20T10:45:05.000Z</time>
      </trkpt>
      <trkpt lat="43.72824" lon="3.52002">
        <ele>581</ele>
        <time>2021-11-20T10:45:09.000Z</time>
      </trkpt>
      <trkpt lat="43.72828" lon="3.52004">
        <ele>581</ele>
        <time>2021-11-20T10:45:12.000Z</time>
      </trkpt>
      <trkpt lat="43.72832" lon="3.52005">
        <ele>581</ele>
        <time>2021-11-20T10:45:16.000Z</time>
      </trkpt>
      <trkpt lat="43.72835" lon="3.52006">
        <ele>581</ele>
        <time>2021-11-20T10:45:18.000Z</time>
      </trkpt>
      <trkpt lat="43.72838" lon="3.52007">
        <ele>581</ele>
        <time>2021-11-20T10:45:20.000Z</time>
      </trkpt>
      <trkpt lat="43.7284" lon="3.52007">
        <ele>581</ele>
        <time>2021-11-20T10:45:22.000Z</time>
      </trkpt>
      <trkpt lat="43.72842" lon="3.52007">
        <ele>581</ele>
        <time>2021-11-20T10:45:24.000Z</time>
      </trkpt>
      <trkpt lat="43.72844" lon="3.52008">
        <ele>581</ele>
        <time>2021-11-20T10:45:26.000Z</time>
      </trkpt>
      <trkpt lat="43.72845" lon="3.52008">
        <ele>581</ele>
        <time>2021-11-20T10:45:27.000Z</time>
      </trkpt>
      <trkpt lat="43.72847" lon="3.52008">
        <ele>581</ele>
        <time>2021-11-20T10:45:29.000Z</time>
      </trkpt>
      <trkpt lat="43.72848" lon="3.52007">
        <ele>581</ele>
        <time>2021-11-20T10:45:30.000Z</time>
      </trkpt>
      <trkpt lat="43.72857" lon="3.51996">
        <ele>581</ele>
        <time>2021-11-20T10:45:45.000Z</time>
      </trkpt>
      <trkpt lat="43.72868" lon="3.5198">
        <ele>580</ele>
        <time>2021-11-20T10:46:00.000Z</time>
      </trkpt>
      <trkpt lat="43.72871" lon="3.51978">
        <ele>579</ele>
        <time>2021-11-20T10:46:03.000Z</time>
      </trkpt>
      <trkpt lat="43.72874" lon="3.51978">
        <ele>579</ele>
        <time>2021-11-20T10:46:05.000Z</time>
      </trkpt>
      <trkpt lat="43.72876" lon="3.51979">
        <ele>579</ele>
        <time>2021-11-20T10:46:08.000Z</time>
      </trkpt>
      <trkpt lat="43.72878" lon="3.51981">
        <ele>579</ele>
        <time>2021-11-20T10:46:10.000Z</time>
      </trkpt>
      <trkpt lat="43.7288" lon="3.51982">
        <ele>579</ele>
        <time>2021-11-20T10:46:12.000Z</time>
      </trkpt>
      <trkpt lat="43.72881" lon="3.51984">
        <ele>579</ele>
        <time>2021-11-20T10:46:13.000Z</time>
      </trkpt>
      <trkpt lat="43.72882" lon="3.51987">
        <ele>579</ele>
        <time>2021-11-20T10:46:15.000Z</time>
      </trkpt>
      <trkpt lat="43.72883" lon="3.5199">
        <ele>579</ele>
        <time>2021-11-20T10:46:16.000Z</time>
      </trkpt>
      <trkpt lat="43.72884" lon="3.51997">
        <ele>579</ele>
        <time>2021-11-20T10:46:23.000Z</time>
      </trkpt>
      <trkpt lat="43.72885" lon="3.52006">
        <ele>579</ele>
        <time>2021-11-20T10:46:29.000Z</time>
      </trkpt>
      <trkpt lat="43.72886" lon="3.52017">
        <ele>578</ele>
        <time>2021-11-20T10:46:36.000Z</time>
      </trkpt>
      <trkpt lat="43.72887" lon="3.52028">
        <ele>578</ele>
        <time>2021-11-20T10:46:42.000Z</time>
      </trkpt>
      <trkpt lat="43.72889" lon="3.52034">
        <ele>578</ele>
        <time>2021-11-20T10:46:46.000Z</time>
      </trkpt>
      <trkpt lat="43.72892" lon="3.52037">
        <ele>578</ele>
        <time>2021-11-20T10:46:50.000Z</time>
      </trkpt>
      <trkpt lat="43.72894" lon="3.5204">
        <ele>577</ele>
        <time>2021-11-20T10:46:54.000Z</time>
      </trkpt>
      <trkpt lat="43.72897" lon="3.52042">
        <ele>577</ele>
        <time>2021-11-20T10:46:58.000Z</time>
      </trkpt>
      <trkpt lat="43.72902" lon="3.52044">
        <ele>577</ele>
        <time>2021-11-20T10:47:03.000Z</time>
      </trkpt>
      <trkpt lat="43.72907" lon="3.52047">
        <ele>577</ele>
        <time>2021-11-20T10:47:08.000Z</time>
      </trkpt>
      <trkpt lat="43.72912" lon="3.52049">
        <ele>576</ele>
        <time>2021-11-20T10:47:13.000Z</time>
      </trkpt>
      <trkpt lat="43.72918" lon="3.52052">
        <ele>576</ele>
        <time>2021-11-20T10:47:18.000Z</time>
      </trkpt>
      <trkpt lat="43.7292" lon="3.52057">
        <ele>576</ele>
        <time>2021-11-20T10:47:21.000Z</time>
      </trkpt>
      <trkpt lat="43.7292" lon="3.52063">
        <ele>576</ele>
        <time>2021-11-20T10:47:24.000Z</time>
      </trkpt>
      <trkpt lat="43.72919" lon="3.52071">
        <ele>576</ele>
        <time>2021-11-20T10:47:27.000Z</time>
      </trkpt>
      <trkpt lat="43.72918" lon="3.52078">
        <ele>576</ele>
        <time>2021-11-20T10:47:30.000Z</time>
      </trkpt>
      <trkpt lat="43.72918" lon="3.52085">
        <ele>576</ele>
        <time>2021-11-20T10:47:36.000Z</time>
      </trkpt>
      <trkpt lat="43.72918" lon="3.52092">
        <ele>575</ele>
        <time>2021-11-20T10:47:42.000Z</time>
      </trkpt>
      <trkpt lat="43.72918" lon="3.52098">
        <ele>575</ele>
        <time>2021-11-20T10:47:47.000Z</time>
      </trkpt>
      <trkpt lat="43.72918" lon="3.52105">
        <ele>574</ele>
        <time>2021-11-20T10:47:53.000Z</time>
      </trkpt>
      <trkpt lat="43.7292" lon="3.52111">
        <ele>574</ele>
        <time>2021-11-20T10:47:57.000Z</time>
      </trkpt>
      <trkpt lat="43.72923" lon="3.52115">
        <ele>573</ele>
        <time>2021-11-20T10:48:02.000Z</time>
      </trkpt>
      <trkpt lat="43.72926" lon="3.5212">
        <ele>573</ele>
        <time>2021-11-20T10:48:06.000Z</time>
      </trkpt>
      <trkpt lat="43.7293" lon="3.52124">
        <ele>573</ele>
        <time>2021-11-20T10:48:10.000Z</time>
      </trkpt>
      <trkpt lat="43.72936" lon="3.52126">
        <ele>572</ele>
        <time>2021-11-20T10:48:16.000Z</time>
      </trkpt>
      <trkpt lat="43.72944" lon="3.52128">
        <ele>572</ele>
        <time>2021-11-20T10:48:22.000Z</time>
      </trkpt>
      <trkpt lat="43.72953" lon="3.52129">
        <ele>571</ele>
        <time>2021-11-20T10:48:28.000Z</time>
      </trkpt>
      <trkpt lat="43.72963" lon="3.52129">
        <ele>571</ele>
        <time>2021-11-20T10:48:34.000Z</time>
      </trkpt>
      <trkpt lat="43.72968" lon="3.52131">
        <ele>571</ele>
        <time>2021-11-20T10:48:37.000Z</time>
      </trkpt>
      <trkpt lat="43.72972" lon="3.52133">
        <ele>570</ele>
        <time>2021-11-20T10:48:41.000Z</time>
      </trkpt>
      <trkpt lat="43.72976" lon="3.52136">
        <ele>570</ele>
        <time>2021-11-20T10:48:44.000Z</time>
      </trkpt>
      <trkpt lat="43.72979" lon="3.52138">
        <ele>570</ele>
        <time>2021-11-20T10:48:47.000Z</time>
      </trkpt>
      <trkpt lat="43.72972" lon="3.52142">
        <ele>569</ele>
        <time>2021-11-20T10:48:59.000Z</time>
      </trkpt>
      <trkpt lat="43.72962" lon="3.52147">
        <ele>567</ele>
        <time>2021-11-20T10:49:10.000Z</time>
      </trkpt>
      <trkpt lat="43.72949" lon="3.52152">
        <ele>566</ele>
        <time>2021-11-20T10:49:22.000Z</time>
      </trkpt>
      <trkpt lat="43.72934" lon="3.52157">
        <ele>564</ele>
        <time>2021-11-20T10:49:33.000Z</time>
      </trkpt>
      <trkpt lat="43.72925" lon="3.52162">
        <ele>563</ele>
        <time>2021-11-20T10:49:40.000Z</time>
      </trkpt>
      <trkpt lat="43.72917" lon="3.52166">
        <ele>562</ele>
        <time>2021-11-20T10:49:47.000Z</time>
      </trkpt>
      <trkpt lat="43.72909" lon="3.52171">
        <ele>562</ele>
        <time>2021-11-20T10:49:53.000Z</time>
      </trkpt>
      <trkpt lat="43.72902" lon="3.52175">
        <ele>561</ele>
        <time>2021-11-20T10:50:00.000Z</time>
      </trkpt>
      <trkpt lat="43.72897" lon="3.52178">
        <ele>561</ele>
        <time>2021-11-20T10:50:03.000Z</time>
      </trkpt>
      <trkpt lat="43.72894" lon="3.52179">
        <ele>560</ele>
        <time>2021-11-20T10:50:05.000Z</time>
      </trkpt>
      <trkpt lat="43.72892" lon="3.5218">
        <ele>560</ele>
        <time>2021-11-20T10:50:08.000Z</time>
      </trkpt>
      <trkpt lat="43.72891" lon="3.52181">
        <ele>560</ele>
        <time>2021-11-20T10:50:10.000Z</time>
      </trkpt>
      <trkpt lat="43.72887" lon="3.52184">
        <ele>560</ele>
        <time>2021-11-20T10:50:14.000Z</time>
      </trkpt>
      <trkpt lat="43.72882" lon="3.52188">
        <ele>559</ele>
        <time>2021-11-20T10:50:19.000Z</time>
      </trkpt>
      <trkpt lat="43.72876" lon="3.52193">
        <ele>559</ele>
        <time>2021-11-20T10:50:23.000Z</time>
      </trkpt>
      <trkpt lat="43.72871" lon="3.52198">
        <ele>558</ele>
        <time>2021-11-20T10:50:27.000Z</time>
      </trkpt>
      <trkpt lat="43.72866" lon="3.52203">
        <ele>558</ele>
        <time>2021-11-20T10:50:34.000Z</time>
      </trkpt>
      <trkpt lat="43.72861" lon="3.52208">
        <ele>557</ele>
        <time>2021-11-20T10:50:41.000Z</time>
      </trkpt>
      <trkpt lat="43.72856" lon="3.52213">
        <ele>557</ele>
        <time>2021-11-20T10:50:47.000Z</time>
      </trkpt>
      <trkpt lat="43.72851" lon="3.52218">
        <ele>556</ele>
        <time>2021-11-20T10:50:54.000Z</time>
      </trkpt>
      <trkpt lat="43.72849" lon="3.52221">
        <ele>556</ele>
        <time>2021-11-20T10:51:02.000Z</time>
      </trkpt>
      <trkpt lat="43.72849" lon="3.52223">
        <ele>555</ele>
        <time>2021-11-20T10:51:10.000Z</time>
      </trkpt>
      <trkpt lat="43.7285" lon="3.52225">
        <ele>556</ele>
        <time>2021-11-20T10:51:17.000Z</time>
      </trkpt>
      <trkpt lat="43.72852" lon="3.52227">
        <ele>556</ele>
        <time>2021-11-20T10:51:25.000Z</time>
      </trkpt>
      <trkpt lat="43.72852" lon="3.52226">
        <ele>556</ele>
        <time>2021-11-20T10:51:31.000Z</time>
      </trkpt>
      <trkpt lat="43.72852" lon="3.52225">
        <ele>555</ele>
        <time>2021-11-20T10:51:37.000Z</time>
      </trkpt>
      <trkpt lat="43.72852" lon="3.52223">
        <ele>555</ele>
        <time>2021-11-20T10:51:43.000Z</time>
      </trkpt>
      <trkpt lat="43.72852" lon="3.52221">
        <ele>555</ele>
        <time>2021-11-20T10:51:49.000Z</time>
      </trkpt>
      <trkpt lat="43.72854" lon="3.52221">
        <ele>555</ele>
        <time>2021-11-20T10:52:20.000Z</time>
      </trkpt>
      <trkpt lat="43.72857" lon="3.52222">
        <ele>554</ele>
        <time>2021-11-20T10:52:51.000Z</time>
      </trkpt>
      <trkpt lat="43.7286" lon="3.52223">
        <ele>553</ele>
        <time>2021-11-20T10:53:21.000Z</time>
      </trkpt>
      <trkpt lat="43.72864" lon="3.52224">
        <ele>552</ele>
        <time>2021-11-20T10:53:52.000Z</time>
      </trkpt>
      <trkpt lat="43.72863" lon="3.52227">
        <ele>551</ele>
        <time>2021-11-20T10:54:01.000Z</time>
      </trkpt>
      <trkpt lat="43.7286" lon="3.5223">
        <ele>551</ele>
        <time>2021-11-20T10:54:10.000Z</time>
      </trkpt>
      <trkpt lat="43.72857" lon="3.52234">
        <ele>551</ele>
        <time>2021-11-20T10:54:18.000Z</time>
      </trkpt>
      <trkpt lat="43.72852" lon="3.52238">
        <ele>551</ele>
        <time>2021-11-20T10:54:27.000Z</time>
      </trkpt>
      <trkpt lat="43.72848" lon="3.52244">
        <ele>550</ele>
        <time>2021-11-20T10:54:33.000Z</time>
      </trkpt>
      <trkpt lat="43.72843" lon="3.5225">
        <ele>550</ele>
        <time>2021-11-20T10:54:40.000Z</time>
      </trkpt>
      <trkpt lat="43.72837" lon="3.52258">
        <ele>549</ele>
        <time>2021-11-20T10:54:46.000Z</time>
      </trkpt>
      <trkpt lat="43.72832" lon="3.52265">
        <ele>549</ele>
        <time>2021-11-20T10:54:52.000Z</time>
      </trkpt>
      <trkpt lat="43.72831" lon="3.52268">
        <ele>549</ele>
        <time>2021-11-20T10:54:54.000Z</time>
      </trkpt>
      <trkpt lat="43.72832" lon="3.52268">
        <ele>549</ele>
        <time>2021-11-20T10:54:56.000Z</time>
      </trkpt>
      <trkpt lat="43.72835" lon="3.52267">
        <ele>549</ele>
        <time>2021-11-20T10:54:58.000Z</time>
      </trkpt>
      <trkpt lat="43.72838" lon="3.52265">
        <ele>549</ele>
        <time>2021-11-20T10:55:00.000Z</time>
      </trkpt>
      <trkpt lat="43.72843" lon="3.52261">
        <ele>549</ele>
        <time>2021-11-20T10:55:07.000Z</time>
      </trkpt>
      <trkpt lat="43.72849" lon="3.52255">
        <ele>549</ele>
        <time>2021-11-20T10:55:14.000Z</time>
      </trkpt>
      <trkpt lat="43.72855" lon="3.5225">
        <ele>549</ele>
        <time>2021-11-20T10:55:23.000Z</time>
      </trkpt>
      <trkpt lat="43.72862" lon="3.52243">
        <ele>549</ele>
        <time>2021-11-20T10:55:31.000Z</time>
      </trkpt>
      <trkpt lat="43.7287" lon="3.52237">
        <ele>549</ele>
        <time>2021-11-20T10:55:40.000Z</time>
      </trkpt>
      <trkpt lat="43.72879" lon="3.52229">
        <ele>549</ele>
        <time>2021-11-20T10:55:48.000Z</time>
      </trkpt>
      <trkpt lat="43.72885" lon="3.52226">
        <ele>549</ele>
        <time>2021-11-20T10:55:52.000Z</time>
      </trkpt>
      <trkpt lat="43.7289" lon="3.52224">
        <ele>549</ele>
        <time>2021-11-20T10:55:56.000Z</time>
      </trkpt>
      <trkpt lat="43.72895" lon="3.52223">
        <ele>548</ele>
        <time>2021-11-20T10:55:59.000Z</time>
      </trkpt>
      <trkpt lat="43.72899" lon="3.52222">
        <ele>548</ele>
        <time>2021-11-20T10:56:03.000Z</time>
      </trkpt>
      <trkpt lat="43.72906" lon="3.52224">
        <ele>548</ele>
        <time>2021-11-20T10:56:09.000Z</time>
      </trkpt>
      <trkpt lat="43.72911" lon="3.52228">
        <ele>547</ele>
        <time>2021-11-20T10:56:14.000Z</time>
      </trkpt>
      <trkpt lat="43.7291" lon="3.52236">
        <ele>548</ele>
        <time>2021-11-20T10:56:23.000Z</time>
      </trkpt>
      <trkpt lat="43.72907" lon="3.52246">
        <ele>548</ele>
        <time>2021-11-20T10:56:32.000Z</time>
      </trkpt>
      <trkpt lat="43.72903" lon="3.52257">
        <ele>548</ele>
        <time>2021-11-20T10:56:41.000Z</time>
      </trkpt>
      <trkpt lat="43.72898" lon="3.5227">
        <ele>549</ele>
        <time>2021-11-20T10:56:50.000Z</time>
      </trkpt>
      <trkpt lat="43.72895" lon="3.52281">
        <ele>549</ele>
        <time>2021-11-20T10:56:59.000Z</time>
      </trkpt>
      <trkpt lat="43.72891" lon="3.52292">
        <ele>549</ele>
        <time>2021-11-20T10:57:09.000Z</time>
      </trkpt>
      <trkpt lat="43.72887" lon="3.52303">
        <ele>550</ele>
        <time>2021-11-20T10:57:18.000Z</time>
      </trkpt>
      <trkpt lat="43.72883" lon="3.52314">
        <ele>550</ele>
        <time>2021-11-20T10:57:27.000Z</time>
      </trkpt>
      <trkpt lat="43.72881" lon="3.52321">
        <ele>550</ele>
        <time>2021-11-20T10:57:31.000Z</time>
      </trkpt>
      <trkpt lat="43.72879" lon="3.52327">
        <ele>550</ele>
        <time>2021-11-20T10:57:35.000Z</time>
      </trkpt>
      <trkpt lat="43.72878" lon="3.52333">
        <ele>550</ele>
        <time>2021-11-20T10:57:39.000Z</time>
      </trkpt>
      <trkpt lat="43.72877" lon="3.52337">
        <ele>551</ele>
        <time>2021-11-20T10:57:43.000Z</time>
      </trkpt>
      <trkpt lat="43.72876" lon="3.52343">
        <ele>551</ele>
        <time>2021-11-20T10:57:47.000Z</time>
      </trkpt>
      <trkpt lat="43.72876" lon="3.5235">
        <ele>551</ele>
        <time>2021-11-20T10:57:51.000Z</time>
      </trkpt>
      <trkpt lat="43.72876" lon="3.52356">
        <ele>551</ele>
        <time>2021-11-20T10:57:54.000Z</time>
      </trkpt>
      <trkpt lat="43.72876" lon="3.52362">
        <ele>551</ele>
        <time>2021-11-20T10:57:58.000Z</time>
      </trkpt>
      <trkpt lat="43.72878" lon="3.52366">
        <ele>552</ele>
        <time>2021-11-20T10:58:02.000Z</time>
      </trkpt>
      <trkpt lat="43.72881" lon="3.5237">
        <ele>552</ele>
        <time>2021-11-20T10:58:07.000Z</time>
      </trkpt>
      <trkpt lat="43.72884" lon="3.52372">
        <ele>552</ele>
        <time>2021-11-20T10:58:11.000Z</time>
      </trkpt>
      <trkpt lat="43.72888" lon="3.52375">
        <ele>553</ele>
        <time>2021-11-20T10:58:15.000Z</time>
      </trkpt>
      <trkpt lat="43.72893" lon="3.52375">
        <ele>553</ele>
        <time>2021-11-20T10:58:20.000Z</time>
      </trkpt>
      <trkpt lat="43.72898" lon="3.52374">
        <ele>554</ele>
        <time>2021-11-20T10:58:26.000Z</time>
      </trkpt>
      <trkpt lat="43.72904" lon="3.52372">
        <ele>554</ele>
        <time>2021-11-20T10:58:31.000Z</time>
      </trkpt>
      <trkpt lat="43.7291" lon="3.5237">
        <ele>555</ele>
        <time>2021-11-20T10:58:36.000Z</time>
      </trkpt>
      <trkpt lat="43.72918" lon="3.5237">
        <ele>555</ele>
        <time>2021-11-20T10:58:45.000Z</time>
      </trkpt>
      <trkpt lat="43.72927" lon="3.52371">
        <ele>556</ele>
        <time>2021-11-20T10:58:54.000Z</time>
      </trkpt>
      <trkpt lat="43.72936" lon="3.52372">
        <ele>556</ele>
        <time>2021-11-20T10:59:02.000Z</time>
      </trkpt>
      <trkpt lat="43.72945" lon="3.52374">
        <ele>556</ele>
        <time>2021-11-20T10:59:11.000Z</time>
      </trkpt>
      <trkpt lat="43.72952" lon="3.52375">
        <ele>557</ele>
        <time>2021-11-20T10:59:16.000Z</time>
      </trkpt>
      <trkpt lat="43.72956" lon="3.52376">
        <ele>557</ele>
        <time>2021-11-20T10:59:20.000Z</time>
      </trkpt>
      <trkpt lat="43.72961" lon="3.52377">
        <ele>557</ele>
        <time>2021-11-20T10:59:25.000Z</time>
      </trkpt>
      <trkpt lat="43.72965" lon="3.52377">
        <ele>557</ele>
        <time>2021-11-20T10:59:29.000Z</time>
      </trkpt>
      <trkpt lat="43.7297" lon="3.52381">
        <ele>557</ele>
        <time>2021-11-20T10:59:34.000Z</time>
      </trkpt>
      <trkpt lat="43.72972" lon="3.52385">
        <ele>557</ele>
        <time>2021-11-20T10:59:38.000Z</time>
      </trkpt>
      <trkpt lat="43.72973" lon="3.52388">
        <ele>557</ele>
        <time>2021-11-20T10:59:42.000Z</time>
      </trkpt>
      <trkpt lat="43.72973" lon="3.52391">
        <ele>557</ele>
        <time>2021-11-20T10:59:46.000Z</time>
      </trkpt>
      <trkpt lat="43.72972" lon="3.52395">
        <ele>557</ele>
        <time>2021-11-20T10:59:50.000Z</time>
      </trkpt>
      <trkpt lat="43.72972" lon="3.52398">
        <ele>557</ele>
        <time>2021-11-20T10:59:54.000Z</time>
      </trkpt>
      <trkpt lat="43.7297" lon="3.52403">
        <ele>558</ele>
        <time>2021-11-20T10:59:58.000Z</time>
      </trkpt>
      <trkpt lat="43.72967" lon="3.52407">
        <ele>558</ele>
        <time>2021-11-20T11:00:03.000Z</time>
      </trkpt>
      <trkpt lat="43.72963" lon="3.52413">
        <ele>558</ele>
        <time>2021-11-20T11:00:07.000Z</time>
      </trkpt>
      <trkpt lat="43.72958" lon="3.52418">
        <ele>558</ele>
        <time>2021-11-20T11:00:11.000Z</time>
      </trkpt>
      <trkpt lat="43.72955" lon="3.52422">
        <ele>558</ele>
        <time>2021-11-20T11:00:15.000Z</time>
      </trkpt>
      <trkpt lat="43.72951" lon="3.52427">
        <ele>558</ele>
        <time>2021-11-20T11:00:18.000Z</time>
      </trkpt>
      <trkpt lat="43.72947" lon="3.52431">
        <ele>558</ele>
        <time>2021-11-20T11:00:22.000Z</time>
      </trkpt>
      <trkpt lat="43.72943" lon="3.52435">
        <ele>557</ele>
        <time>2021-11-20T11:00:25.000Z</time>
      </trkpt>
      <trkpt lat="43.72937" lon="3.52452">
        <ele>558</ele>
        <time>2021-11-20T11:00:39.000Z</time>
      </trkpt>
      <trkpt lat="43.72931" lon="3.52472">
        <ele>558</ele>
        <time>2021-11-20T11:00:53.000Z</time>
      </trkpt>
      <trkpt lat="43.72929" lon="3.52479">
        <ele>558</ele>
        <time>2021-11-20T11:00:57.000Z</time>
      </trkpt>
      <trkpt lat="43.72927" lon="3.52486">
        <ele>558</ele>
        <time>2021-11-20T11:01:00.000Z</time>
      </trkpt>
      <trkpt lat="43.72927" lon="3.52492">
        <ele>558</ele>
        <time>2021-11-20T11:01:04.000Z</time>
      </trkpt>
      <trkpt lat="43.72926" lon="3.52498">
        <ele>558</ele>
        <time>2021-11-20T11:01:07.000Z</time>
      </trkpt>
      <trkpt lat="43.72924" lon="3.52508">
        <ele>558</ele>
        <time>2021-11-20T11:01:24.000Z</time>
      </trkpt>
      <trkpt lat="43.72921" lon="3.52519">
        <ele>558</ele>
        <time>2021-11-20T11:01:40.000Z</time>
      </trkpt>
      <trkpt lat="43.72919" lon="3.52531">
        <ele>558</ele>
        <time>2021-11-20T11:01:57.000Z</time>
      </trkpt>
      <trkpt lat="43.72916" lon="3.52544">
        <ele>558</ele>
        <time>2021-11-20T11:02:13.000Z</time>
      </trkpt>
      <trkpt lat="43.72915" lon="3.52556">
        <ele>558</ele>
        <time>2021-11-20T11:02:23.000Z</time>
      </trkpt>
      <trkpt lat="43.72914" lon="3.52568">
        <ele>558</ele>
        <time>2021-11-20T11:02:33.000Z</time>
      </trkpt>
      <trkpt lat="43.72914" lon="3.5258">
        <ele>559</ele>
        <time>2021-11-20T11:02:43.000Z</time>
      </trkpt>
      <trkpt lat="43.72914" lon="3.52592">
        <ele>559</ele>
        <time>2021-11-20T11:02:53.000Z</time>
      </trkpt>
      <trkpt lat="43.72916" lon="3.52603">
        <ele>559</ele>
        <time>2021-11-20T11:03:01.000Z</time>
      </trkpt>
      <trkpt lat="43.7292" lon="3.52608">
        <ele>559</ele>
        <time>2021-11-20T11:03:08.000Z</time>
      </trkpt>
      <trkpt lat="43.72923" lon="3.52612">
        <ele>559</ele>
        <time>2021-11-20T11:03:13.000Z</time>
      </trkpt>
      <trkpt lat="43.72926" lon="3.52616">
        <ele>559</ele>
        <time>2021-11-20T11:03:18.000Z</time>
      </trkpt>
      <trkpt lat="43.72929" lon="3.52619">
        <ele>559</ele>
        <time>2021-11-20T11:03:23.000Z</time>
      </trkpt>
      <trkpt lat="43.72932" lon="3.52623">
        <ele>559</ele>
        <time>2021-11-20T11:03:28.000Z</time>
      </trkpt>
      <trkpt lat="43.72933" lon="3.52626">
        <ele>559</ele>
        <time>2021-11-20T11:03:31.000Z</time>
      </trkpt>
      <trkpt lat="43.72933" lon="3.52627">
        <ele>559</ele>
        <time>2021-11-20T11:03:35.000Z</time>
      </trkpt>
      <trkpt lat="43.72932" lon="3.52629">
        <ele>559</ele>
        <time>2021-11-20T11:03:38.000Z</time>
      </trkpt>
      <trkpt lat="43.72931" lon="3.5263">
        <ele>559</ele>
        <time>2021-11-20T11:03:41.000Z</time>
      </trkpt>
      <trkpt lat="43.72932" lon="3.52631">
        <ele>559</ele>
        <time>2021-11-20T11:03:43.000Z</time>
      </trkpt>
      <trkpt lat="43.72933" lon="3.52631">
        <ele>559</ele>
        <time>2021-11-20T11:03:45.000Z</time>
      </trkpt>
      <trkpt lat="43.72934" lon="3.52631">
        <ele>559</ele>
        <time>2021-11-20T11:03:46.000Z</time>
      </trkpt>
      <trkpt lat="43.72935" lon="3.52631">
        <ele>559</ele>
        <time>2021-11-20T11:03:48.000Z</time>
      </trkpt>
      <trkpt lat="43.72941" lon="3.52631">
        <ele>559</ele>
        <time>2021-11-20T11:03:57.000Z</time>
      </trkpt>
      <trkpt lat="43.72949" lon="3.5263">
        <ele>559</ele>
        <time>2021-11-20T11:04:06.000Z</time>
      </trkpt>
      <trkpt lat="43.72958" lon="3.5263">
        <ele>559</ele>
        <time>2021-11-20T11:04:14.000Z</time>
      </trkpt>
      <trkpt lat="43.72968" lon="3.52629">
        <ele>559</ele>
        <time>2021-11-20T11:04:23.000Z</time>
      </trkpt>
      <trkpt lat="43.72976" lon="3.52627">
        <ele>559</ele>
        <time>2021-11-20T11:04:31.000Z</time>
      </trkpt>
      <trkpt lat="43.72984" lon="3.52625">
        <ele>559</ele>
        <time>2021-11-20T11:04:39.000Z</time>
      </trkpt>
      <trkpt lat="43.72993" lon="3.52623">
        <ele>559</ele>
        <time>2021-11-20T11:04:46.000Z</time>
      </trkpt>
      <trkpt lat="43.73001" lon="3.5262">
        <ele>559</ele>
        <time>2021-11-20T11:04:54.000Z</time>
      </trkpt>
      <trkpt lat="43.73006" lon="3.52619">
        <ele>560</ele>
        <time>2021-11-20T11:04:58.000Z</time>
      </trkpt>
      <trkpt lat="43.73011" lon="3.5262">
        <ele>560</ele>
        <time>2021-11-20T11:05:01.000Z</time>
      </trkpt>
      <trkpt lat="43.73015" lon="3.5262">
        <ele>560</ele>
        <time>2021-11-20T11:05:05.000Z</time>
      </trkpt>
      <trkpt lat="43.73019" lon="3.52621">
        <ele>560</ele>
        <time>2021-11-20T11:05:08.000Z</time>
      </trkpt>
      <trkpt lat="43.73032" lon="3.52633">
        <ele>560</ele>
        <time>2021-11-20T11:05:31.000Z</time>
      </trkpt>
      <trkpt lat="43.73047" lon="3.5265">
        <ele>560</ele>
        <time>2021-11-20T11:05:53.000Z</time>
      </trkpt>
      <trkpt lat="43.73056" lon="3.5267">
        <ele>559</ele>
        <time>2021-11-20T11:06:04.000Z</time>
      </trkpt>
      <trkpt lat="43.73063" lon="3.52693">
        <ele>559</ele>
        <time>2021-11-20T11:06:15.000Z</time>
      </trkpt>
      <trkpt lat="43.73065" lon="3.52701">
        <ele>559</ele>
        <time>2021-11-20T11:06:20.000Z</time>
      </trkpt>
      <trkpt lat="43.73067" lon="3.52708">
        <ele>559</ele>
        <time>2021-11-20T11:06:26.000Z</time>
      </trkpt>
      <trkpt lat="43.73069" lon="3.52714">
        <ele>559</ele>
        <time>2021-11-20T11:06:31.000Z</time>
      </trkpt>
      <trkpt lat="43.73071" lon="3.5272">
        <ele>559</ele>
        <time>2021-11-20T11:06:36.000Z</time>
      </trkpt>
      <trkpt lat="43.73076" lon="3.52728">
        <ele>559</ele>
        <time>2021-11-20T11:06:57.000Z</time>
      </trkpt>
      <trkpt lat="43.73082" lon="3.52734">
        <ele>560</ele>
        <time>2021-11-20T11:07:18.000Z</time>
      </trkpt>
      <trkpt lat="43.73085" lon="3.52739">
        <ele>560</ele>
        <time>2021-11-20T11:07:23.000Z</time>
      </trkpt>
      <trkpt lat="43.73089" lon="3.52743">
        <ele>559</ele>
        <time>2021-11-20T11:07:28.000Z</time>
      </trkpt>
      <trkpt lat="43.73093" lon="3.52749">
        <ele>559</ele>
        <time>2021-11-20T11:07:32.000Z</time>
      </trkpt>
      <trkpt lat="43.73098" lon="3.52754">
        <ele>559</ele>
        <time>2021-11-20T11:07:37.000Z</time>
      </trkpt>
      <trkpt lat="43.73096" lon="3.5276">
        <ele>559</ele>
        <time>2021-11-20T11:07:42.000Z</time>
      </trkpt>
      <trkpt lat="43.73091" lon="3.52767">
        <ele>559</ele>
        <time>2021-11-20T11:07:46.000Z</time>
      </trkpt>
      <trkpt lat="43.73085" lon="3.52775">
        <ele>559</ele>
        <time>2021-11-20T11:07:51.000Z</time>
      </trkpt>
      <trkpt lat="43.73079" lon="3.52782">
        <ele>559</ele>
        <time>2021-11-20T11:07:55.000Z</time>
      </trkpt>
      <trkpt lat="43.73073" lon="3.5279">
        <ele>559</ele>
        <time>2021-11-20T11:08:02.000Z</time>
      </trkpt>
      <trkpt lat="43.73066" lon="3.52797">
        <ele>559</ele>
        <time>2021-11-20T11:08:10.000Z</time>
      </trkpt>
      <trkpt lat="43.73059" lon="3.52805">
        <ele>559</ele>
        <time>2021-11-20T11:08:17.000Z</time>
      </trkpt>
      <trkpt lat="43.73053" lon="3.52813">
        <ele>559</ele>
        <time>2021-11-20T11:08:24.000Z</time>
      </trkpt>
      <trkpt lat="43.73045" lon="3.52834">
        <ele>559</ele>
        <time>2021-11-20T11:08:41.000Z</time>
      </trkpt>
      <trkpt lat="43.7304" lon="3.52858">
        <ele>559</ele>
        <time>2021-11-20T11:08:58.000Z</time>
      </trkpt>
      <trkpt lat="43.7304" lon="3.52882">
        <ele>559</ele>
        <time>2021-11-20T11:09:18.000Z</time>
      </trkpt>
      <trkpt lat="43.73042" lon="3.52907">
        <ele>559</ele>
        <time>2021-11-20T11:09:37.000Z</time>
      </trkpt>
      <trkpt lat="43.73043" lon="3.52915">
        <ele>559</ele>
        <time>2021-11-20T11:09:43.000Z</time>
      </trkpt>
      <trkpt lat="43.73045" lon="3.52921">
        <ele>559</ele>
        <time>2021-11-20T11:09:48.000Z</time>
      </trkpt>
      <trkpt lat="43.73046" lon="3.52926">
        <ele>559</ele>
        <time>2021-11-20T11:09:54.000Z</time>
      </trkpt>
      <trkpt lat="43.73048" lon="3.52931">
        <ele>559</ele>
        <time>2021-11-20T11:09:59.000Z</time>
      </trkpt>
      <trkpt lat="43.7305" lon="3.52936">
        <ele>559</ele>
        <time>2021-11-20T11:10:04.000Z</time>
      </trkpt>
      <trkpt lat="43.73053" lon="3.5294">
        <ele>558</ele>
        <time>2021-11-20T11:10:09.000Z</time>
      </trkpt>
      <trkpt lat="43.73056" lon="3.52944">
        <ele>558</ele>
        <time>2021-11-20T11:10:13.000Z</time>
      </trkpt>
      <trkpt lat="43.73059" lon="3.52949">
        <ele>558</ele>
        <time>2021-11-20T11:10:18.000Z</time>
      </trkpt>
      <trkpt lat="43.73064" lon="3.52956">
        <ele>558</ele>
        <time>2021-11-20T11:10:27.000Z</time>
      </trkpt>
      <trkpt lat="43.73071" lon="3.52964">
        <ele>558</ele>
        <time>2021-11-20T11:10:36.000Z</time>
      </trkpt>
      <trkpt lat="43.73077" lon="3.52973">
        <ele>558</ele>
        <time>2021-11-20T11:10:45.000Z</time>
      </trkpt>
      <trkpt lat="43.73083" lon="3.52983">
        <ele>558</ele>
        <time>2021-11-20T11:10:54.000Z</time>
      </trkpt>
      <trkpt lat="43.731" lon="3.52991">
        <ele>557</ele>
        <time>2021-11-20T11:11:09.000Z</time>
      </trkpt>
      <trkpt lat="43.73117" lon="3.52996">
        <ele>556</ele>
        <time>2021-11-20T11:11:24.000Z</time>
      </trkpt>
      <trkpt lat="43.73125" lon="3.52997">
        <ele>556</ele>
        <time>2021-11-20T11:11:32.000Z</time>
      </trkpt>
      <trkpt lat="43.73134" lon="3.52998">
        <ele>556</ele>
        <time>2021-11-20T11:11:40.000Z</time>
      </trkpt>
      <trkpt lat="43.73142" lon="3.52998">
        <ele>556</ele>
        <time>2021-11-20T11:11:47.000Z</time>
      </trkpt>
      <trkpt lat="43.73151" lon="3.52997">
        <ele>555</ele>
        <time>2021-11-20T11:11:55.000Z</time>
      </trkpt>
      <trkpt lat="43.73159" lon="3.52998">
        <ele>555</ele>
        <time>2021-11-20T11:12:04.000Z</time>
      </trkpt>
      <trkpt lat="43.73167" lon="3.52999">
        <ele>555</ele>
        <time>2021-11-20T11:12:13.000Z</time>
      </trkpt>
      <trkpt lat="43.73176" lon="3.53001">
        <ele>554</ele>
        <time>2021-11-20T11:12:22.000Z</time>
      </trkpt>
      <trkpt lat="43.73185" lon="3.53002">
        <ele>554</ele>
        <time>2021-11-20T11:12:31.000Z</time>
      </trkpt>
      <trkpt lat="43.73193" lon="3.53004">
        <ele>554</ele>
        <time>2021-11-20T11:12:39.000Z</time>
      </trkpt>
      <trkpt lat="43.73201" lon="3.53006">
        <ele>554</ele>
        <time>2021-11-20T11:12:47.000Z</time>
      </trkpt>
      <trkpt lat="43.73209" lon="3.53009">
        <ele>553</ele>
        <time>2021-11-20T11:12:54.000Z</time>
      </trkpt>
      <trkpt lat="43.73217" lon="3.53012">
        <ele>553</ele>
        <time>2021-11-20T11:13:02.000Z</time>
      </trkpt>
      <trkpt lat="43.73225" lon="3.53014">
        <ele>553</ele>
        <time>2021-11-20T11:13:11.000Z</time>
      </trkpt>
      <trkpt lat="43.73234" lon="3.53016">
        <ele>553</ele>
        <time>2021-11-20T11:13:19.000Z</time>
      </trkpt>
      <trkpt lat="43.73243" lon="3.53018">
        <ele>552</ele>
        <time>2021-11-20T11:13:28.000Z</time>
      </trkpt>
      <trkpt lat="43.73251" lon="3.53019">
        <ele>552</ele>
        <time>2021-11-20T11:13:36.000Z</time>
      </trkpt>
      <trkpt lat="43.73256" lon="3.5302">
        <ele>552</ele>
        <time>2021-11-20T11:13:39.000Z</time>
      </trkpt>
      <trkpt lat="43.73259" lon="3.53019">
        <ele>552</ele>
        <time>2021-11-20T11:13:43.000Z</time>
      </trkpt>
      <trkpt lat="43.73262" lon="3.53018">
        <ele>552</ele>
        <time>2021-11-20T11:13:46.000Z</time>
      </trkpt>
      <trkpt lat="43.73264" lon="3.53017">
        <ele>551</ele>
        <time>2021-11-20T11:13:49.000Z</time>
      </trkpt>
      <trkpt lat="43.73283" lon="3.53004">
        <ele>551</ele>
        <time>2021-11-20T11:14:08.000Z</time>
      </trkpt>
      <trkpt lat="43.73303" lon="3.52989">
        <ele>550</ele>
        <time>2021-11-20T11:14:27.000Z</time>
      </trkpt>
      <trkpt lat="43.73307" lon="3.52989">
        <ele>550</ele>
        <time>2021-11-20T11:14:31.000Z</time>
      </trkpt>
      <trkpt lat="43.7331" lon="3.5299">
        <ele>551</ele>
        <time>2021-11-20T11:14:35.000Z</time>
      </trkpt>
      <trkpt lat="43.73312" lon="3.52993">
        <ele>551</ele>
        <time>2021-11-20T11:14:39.000Z</time>
      </trkpt>
      <trkpt lat="43.73315" lon="3.52996">
        <ele>551</ele>
        <time>2021-11-20T11:14:43.000Z</time>
      </trkpt>
      <trkpt lat="43.73316" lon="3.52996">
        <ele>551</ele>
        <time>2021-11-20T11:15:03.000Z</time>
      </trkpt>
      <trkpt lat="43.73317" lon="3.52995">
        <ele>551</ele>
        <time>2021-11-20T11:15:23.000Z</time>
      </trkpt>
      <trkpt lat="43.73318" lon="3.52993">
        <ele>551</ele>
        <time>2021-11-20T11:15:42.000Z</time>
      </trkpt>
      <trkpt lat="43.73318" lon="3.52991">
        <ele>551</ele>
        <time>2021-11-20T11:16:02.000Z</time>
      </trkpt>
      <trkpt lat="43.73319" lon="3.52989">
        <ele>551</ele>
        <time>2021-11-20T11:16:10.000Z</time>
      </trkpt>
      <trkpt lat="43.7332" lon="3.52987">
        <ele>551</ele>
        <time>2021-11-20T11:16:18.000Z</time>
      </trkpt>
      <trkpt lat="43.73321" lon="3.52984">
        <ele>551</ele>
        <time>2021-11-20T11:16:25.000Z</time>
      </trkpt>
      <trkpt lat="43.73322" lon="3.52982">
        <ele>551</ele>
        <time>2021-11-20T11:16:33.000Z</time>
      </trkpt>
      <trkpt lat="43.73323" lon="3.52981">
        <ele>551</ele>
        <time>2021-11-20T11:16:35.000Z</time>
      </trkpt>
      <trkpt lat="43.73325" lon="3.52981">
        <ele>551</ele>
        <time>2021-11-20T11:16:37.000Z</time>
      </trkpt>
      <trkpt lat="43.73326" lon="3.52982">
        <ele>551</ele>
        <time>2021-11-20T11:16:39.000Z</time>
      </trkpt>
      <trkpt lat="43.73328" lon="3.52983">
        <ele>551</ele>
        <time>2021-11-20T11:16:41.000Z</time>
      </trkpt>
      <trkpt lat="43.73329" lon="3.52987">
        <ele>551</ele>
        <time>2021-11-20T11:16:46.000Z</time>
      </trkpt>
      <trkpt lat="43.73329" lon="3.52992">
        <ele>552</ele>
        <time>2021-11-20T11:16:50.000Z</time>
      </trkpt>
      <trkpt lat="43.73329" lon="3.52997">
        <ele>552</ele>
        <time>2021-11-20T11:16:55.000Z</time>
      </trkpt>
      <trkpt lat="43.73328" lon="3.53004">
        <ele>552</ele>
        <time>2021-11-20T11:16:59.000Z</time>
      </trkpt>
      <trkpt lat="43.73332" lon="3.53007">
        <ele>552</ele>
        <time>2021-11-20T11:17:08.000Z</time>
      </trkpt>
      <trkpt lat="43.73337" lon="3.5301">
        <ele>553</ele>
        <time>2021-11-20T11:17:17.000Z</time>
      </trkpt>
      <trkpt lat="43.73343" lon="3.53013">
        <ele>554</ele>
        <time>2021-11-20T11:17:26.000Z</time>
      </trkpt>
      <trkpt lat="43.73349" lon="3.53015">
        <ele>555</ele>
        <time>2021-11-20T11:17:35.000Z</time>
      </trkpt>
      <trkpt lat="43.73356" lon="3.53019">
        <ele>556</ele>
        <time>2021-11-20T11:17:45.000Z</time>
      </trkpt>
      <trkpt lat="43.73364" lon="3.53023">
        <ele>557</ele>
        <time>2021-11-20T11:17:55.000Z</time>
      </trkpt>
      <trkpt lat="43.73373" lon="3.53027">
        <ele>558</ele>
        <time>2021-11-20T11:18:04.000Z</time>
      </trkpt>
      <trkpt lat="43.73382" lon="3.53031">
        <ele>559</ele>
        <time>2021-11-20T11:18:14.000Z</time>
      </trkpt>
      <trkpt lat="43.73383" lon="3.5303">
        <ele>560</ele>
        <time>2021-11-20T11:18:27.000Z</time>
      </trkpt>
      <trkpt lat="43.73381" lon="3.53026">
        <ele>561</ele>
        <time>2021-11-20T11:18:41.000Z</time>
      </trkpt>
      <trkpt lat="43.73377" lon="3.53021">
        <ele>562</ele>
        <time>2021-11-20T11:18:54.000Z</time>
      </trkpt>
      <trkpt lat="43.73372" lon="3.53015">
        <ele>563</ele>
        <time>2021-11-20T11:19:07.000Z</time>
      </trkpt>
      <trkpt lat="43.73371" lon="3.53008">
        <ele>563</ele>
        <time>2021-11-20T11:19:17.000Z</time>
      </trkpt>
      <trkpt lat="43.73372" lon="3.53">
        <ele>564</ele>
        <time>2021-11-20T11:19:27.000Z</time>
      </trkpt>
      <trkpt lat="43.73373" lon="3.52992">
        <ele>564</ele>
        <time>2021-11-20T11:19:36.000Z</time>
      </trkpt>
      <trkpt lat="43.73375" lon="3.52984">
        <ele>564</ele>
        <time>2021-11-20T11:19:46.000Z</time>
      </trkpt>
      <trkpt lat="43.73373" lon="3.52973">
        <ele>566</ele>
        <time>2021-11-20T11:19:56.000Z</time>
      </trkpt>
      <trkpt lat="43.73369" lon="3.52966">
        <ele>568</ele>
        <time>2021-11-20T11:20:05.000Z</time>
      </trkpt>
      <trkpt lat="43.7337" lon="3.52963">
        <ele>568</ele>
        <time>2021-11-20T11:20:10.000Z</time>
      </trkpt>
      <trkpt lat="43.73371" lon="3.5296">
        <ele>569</ele>
        <time>2021-11-20T11:20:14.000Z</time>
      </trkpt>
      <trkpt lat="43.73372" lon="3.52958">
        <ele>569</ele>
        <time>2021-11-20T11:20:19.000Z</time>
      </trkpt>
      <trkpt lat="43.73373" lon="3.52956">
        <ele>570</ele>
        <time>2021-11-20T11:20:23.000Z</time>
      </trkpt>
      <trkpt lat="43.73375" lon="3.52955">
        <ele>570</ele>
        <time>2021-11-20T11:20:26.000Z</time>
      </trkpt>
      <trkpt lat="43.73377" lon="3.52955">
        <ele>571</ele>
        <time>2021-11-20T11:20:30.000Z</time>
      </trkpt>
      <trkpt lat="43.73379" lon="3.52955">
        <ele>571</ele>
        <time>2021-11-20T11:20:33.000Z</time>
      </trkpt>
      <trkpt lat="43.73381" lon="3.52956">
        <ele>571</ele>
        <time>2021-11-20T11:20:36.000Z</time>
      </trkpt>
      <trkpt lat="43.73394" lon="3.52969">
        <ele>573</ele>
        <time>2021-11-20T11:20:58.000Z</time>
      </trkpt>
      <trkpt lat="43.7341" lon="3.52988">
        <ele>574</ele>
        <time>2021-11-20T11:21:19.000Z</time>
      </trkpt>
      <trkpt lat="43.73415" lon="3.52994">
        <ele>575</ele>
        <time>2021-11-20T11:21:26.000Z</time>
      </trkpt>
      <trkpt lat="43.7342" lon="3.52999">
        <ele>575</ele>
        <time>2021-11-20T11:21:33.000Z</time>
      </trkpt>
      <trkpt lat="43.73423" lon="3.53003">
        <ele>575</ele>
        <time>2021-11-20T11:21:39.000Z</time>
      </trkpt>
      <trkpt lat="43.73427" lon="3.53006">
        <ele>575</ele>
        <time>2021-11-20T11:21:46.000Z</time>
      </trkpt>
      <trkpt lat="43.73431" lon="3.53013">
        <ele>577</ele>
        <time>2021-11-20T11:21:57.000Z</time>
      </trkpt>
      <trkpt lat="43.73432" lon="3.5302">
        <ele>578</ele>
        <time>2021-11-20T11:22:07.000Z</time>
      </trkpt>
      <trkpt lat="43.73433" lon="3.5302">
        <ele>579</ele>
        <time>2021-11-20T11:22:25.000Z</time>
      </trkpt>
      <trkpt lat="43.73435" lon="3.53019">
        <ele>579</ele>
        <time>2021-11-20T11:22:42.000Z</time>
      </trkpt>
      <trkpt lat="43.73436" lon="3.53018">
        <ele>579</ele>
        <time>2021-11-20T11:23:00.000Z</time>
      </trkpt>
      <trkpt lat="43.73438" lon="3.53015">
        <ele>579</ele>
        <time>2021-11-20T11:23:17.000Z</time>
      </trkpt>
      <trkpt lat="43.73435" lon="3.53011">
        <ele>579</ele>
        <time>2021-11-20T11:24:28.000Z</time>
      </trkpt>
      <trkpt lat="43.73431" lon="3.53005">
        <ele>579</ele>
        <time>2021-11-20T11:25:40.000Z</time>
      </trkpt>
      <trkpt lat="43.73426" lon="3.52999">
        <ele>578</ele>
        <time>2021-11-20T11:26:51.000Z</time>
      </trkpt>
      <trkpt lat="43.73421" lon="3.52992">
        <ele>577</ele>
        <time>2021-11-20T11:28:02.000Z</time>
      </trkpt>
      <trkpt lat="43.73421" lon="3.52983">
        <ele>578</ele>
        <time>2021-11-20T11:28:12.000Z</time>
      </trkpt>
      <trkpt lat="43.73423" lon="3.52973">
        <ele>579</ele>
        <time>2021-11-20T11:28:23.000Z</time>
      </trkpt>
      <trkpt lat="43.73425" lon="3.52963">
        <ele>581</ele>
        <time>2021-11-20T11:28:33.000Z</time>
      </trkpt>
      <trkpt lat="43.73428" lon="3.52952">
        <ele>583</ele>
        <time>2021-11-20T11:28:43.000Z</time>
      </trkpt>
      <trkpt lat="43.73433" lon="3.52943">
        <ele>584</ele>
        <time>2021-11-20T11:28:50.000Z</time>
      </trkpt>
      <trkpt lat="43.73439" lon="3.52939">
        <ele>585</ele>
        <time>2021-11-20T11:28:57.000Z</time>
      </trkpt>
      <trkpt lat="43.73441" lon="3.52939">
        <ele>585</ele>
        <time>2021-11-20T11:29:00.000Z</time>
      </trkpt>
      <trkpt lat="43.73442" lon="3.5294">
        <ele>585</ele>
        <time>2021-11-20T11:29:02.000Z</time>
      </trkpt>
      <trkpt lat="43.73444" lon="3.52941">
        <ele>586</ele>
        <time>2021-11-20T11:29:05.000Z</time>
      </trkpt>
      <trkpt lat="43.73445" lon="3.52943">
        <ele>586</ele>
        <time>2021-11-20T11:29:07.000Z</time>
      </trkpt>
      <trkpt lat="43.73445" lon="3.52942">
        <ele>586</ele>
        <time>2021-11-20T11:29:18.000Z</time>
      </trkpt>
      <trkpt lat="43.73446" lon="3.52941">
        <ele>586</ele>
        <time>2021-11-20T11:29:28.000Z</time>
      </trkpt>
      <trkpt lat="43.73445" lon="3.52938">
        <ele>586</ele>
        <time>2021-11-20T11:29:39.000Z</time>
      </trkpt>
      <trkpt lat="43.73445" lon="3.52936">
        <ele>586</ele>
        <time>2021-11-20T11:29:49.000Z</time>
      </trkpt>
      <trkpt lat="43.73446" lon="3.52935">
        <ele>586</ele>
        <time>2021-11-20T11:30:10.000Z</time>
      </trkpt>
      <trkpt lat="43.73448" lon="3.52935">
        <ele>586</ele>
        <time>2021-11-20T11:30:31.000Z</time>
      </trkpt>
      <trkpt lat="43.7345" lon="3.52936">
        <ele>586</ele>
        <time>2021-11-20T11:30:52.000Z</time>
      </trkpt>
      <trkpt lat="43.73452" lon="3.52936">
        <ele>587</ele>
        <time>2021-11-20T11:31:13.000Z</time>
      </trkpt>
      <trkpt lat="43.73452" lon="3.52935">
        <ele>587</ele>
        <time>2021-11-20T11:31:24.000Z</time>
      </trkpt>
      <trkpt lat="43.73451" lon="3.52934">
        <ele>587</ele>
        <time>2021-11-20T11:31:36.000Z</time>
      </trkpt>
      <trkpt lat="43.73449" lon="3.52932">
        <ele>587</ele>
        <time>2021-11-20T11:31:47.000Z</time>
      </trkpt>
      <trkpt lat="43.73447" lon="3.52929">
        <ele>587</ele>
        <time>2021-11-20T11:31:58.000Z</time>
      </trkpt>
      <trkpt lat="43.73448" lon="3.52927">
        <ele>587</ele>
        <time>2021-11-20T11:32:01.000Z</time>
      </trkpt>
      <trkpt lat="43.73449" lon="3.52925">
        <ele>587</ele>
        <time>2021-11-20T11:32:05.000Z</time>
      </trkpt>
      <trkpt lat="43.73451" lon="3.52923">
        <ele>588</ele>
        <time>2021-11-20T11:32:08.000Z</time>
      </trkpt>
      <trkpt lat="43.73453" lon="3.5292">
        <ele>588</ele>
        <time>2021-11-20T11:32:11.000Z</time>
      </trkpt>
      <trkpt lat="43.73457" lon="3.52914">
        <ele>588</ele>
        <time>2021-11-20T11:32:28.000Z</time>
      </trkpt>
      <trkpt lat="43.73463" lon="3.52907">
        <ele>590</ele>
        <time>2021-11-20T11:32:44.000Z</time>
      </trkpt>
      <trkpt lat="43.73469" lon="3.52899">
        <ele>591</ele>
        <time>2021-11-20T11:33:01.000Z</time>
      </trkpt>
      <trkpt lat="43.73475" lon="3.5289">
        <ele>592</ele>
        <time>2021-11-20T11:33:17.000Z</time>
      </trkpt>
      <trkpt lat="43.73478" lon="3.52888">
        <ele>592</ele>
        <time>2021-11-20T11:33:19.000Z</time>
      </trkpt>
      <trkpt lat="43.73479" lon="3.52888">
        <ele>593</ele>
        <time>2021-11-20T11:33:20.000Z</time>
      </trkpt>
      <trkpt lat="43.7348" lon="3.52889">
        <ele>593</ele>
        <time>2021-11-20T11:33:22.000Z</time>
      </trkpt>
      <trkpt lat="43.73481" lon="3.52892">
        <ele>592</ele>
        <time>2021-11-20T11:33:23.000Z</time>
      </trkpt>
      <trkpt lat="43.73486" lon="3.52888">
        <ele>593</ele>
        <time>2021-11-20T11:33:32.000Z</time>
      </trkpt>
      <trkpt lat="43.73493" lon="3.52883">
        <ele>594</ele>
        <time>2021-11-20T11:33:40.000Z</time>
      </trkpt>
      <trkpt lat="43.73501" lon="3.52883">
        <ele>594</ele>
        <time>2021-11-20T11:33:50.000Z</time>
      </trkpt>
      <trkpt lat="43.7351" lon="3.52886">
        <ele>594</ele>
        <time>2021-11-20T11:34:00.000Z</time>
      </trkpt>
      <trkpt lat="43.73512" lon="3.52883">
        <ele>595</ele>
        <time>2021-11-20T11:34:03.000Z</time>
      </trkpt>
      <trkpt lat="43.73512" lon="3.5288">
        <ele>595</ele>
        <time>2021-11-20T11:34:07.000Z</time>
      </trkpt>
      <trkpt lat="43.73513" lon="3.52875">
        <ele>596</ele>
        <time>2021-11-20T11:34:10.000Z</time>
      </trkpt>
      <trkpt lat="43.73513" lon="3.52871">
        <ele>597</ele>
        <time>2021-11-20T11:34:13.000Z</time>
      </trkpt>
      <trkpt lat="43.73512" lon="3.52861">
        <ele>598</ele>
        <time>2021-11-20T11:34:29.000Z</time>
      </trkpt>
      <trkpt lat="43.7351" lon="3.5285">
        <ele>599</ele>
        <time>2021-11-20T11:34:46.000Z</time>
      </trkpt>
      <trkpt lat="43.73509" lon="3.52837">
        <ele>601</ele>
        <time>2021-11-20T11:35:02.000Z</time>
      </trkpt>
      <trkpt lat="43.73507" lon="3.52824">
        <ele>603</ele>
        <time>2021-11-20T11:35:18.000Z</time>
      </trkpt>
      <trkpt lat="43.73505" lon="3.52817">
        <ele>604</ele>
        <time>2021-11-20T11:35:22.000Z</time>
      </trkpt>
      <trkpt lat="43.73504" lon="3.52812">
        <ele>604</ele>
        <time>2021-11-20T11:35:26.000Z</time>
      </trkpt>
      <trkpt lat="43.73502" lon="3.52809">
        <ele>604</ele>
        <time>2021-11-20T11:35:30.000Z</time>
      </trkpt>
      <trkpt lat="43.73501" lon="3.52806">
        <ele>605</ele>
        <time>2021-11-20T11:35:34.000Z</time>
      </trkpt>
      <trkpt lat="43.73497" lon="3.52803">
        <ele>605</ele>
        <time>2021-11-20T11:35:44.000Z</time>
      </trkpt>
      <trkpt lat="43.73491" lon="3.52801">
        <ele>605</ele>
        <time>2021-11-20T11:35:53.000Z</time>
      </trkpt>
      <trkpt lat="43.73484" lon="3.528">
        <ele>605</ele>
        <time>2021-11-20T11:36:03.000Z</time>
      </trkpt>
      <trkpt lat="43.73477" lon="3.52799">
        <ele>605</ele>
        <time>2021-11-20T11:36:12.000Z</time>
      </trkpt>
      <trkpt lat="43.7347" lon="3.52796">
        <ele>605</ele>
        <time>2021-11-20T11:36:20.000Z</time>
      </trkpt>
      <trkpt lat="43.73462" lon="3.52793">
        <ele>605</ele>
        <time>2021-11-20T11:36:28.000Z</time>
      </trkpt>
      <trkpt lat="43.73453" lon="3.52789">
        <ele>605</ele>
        <time>2021-11-20T11:36:36.000Z</time>
      </trkpt>
      <trkpt lat="43.73444" lon="3.52785">
        <ele>604</ele>
        <time>2021-11-20T11:36:44.000Z</time>
      </trkpt>
      <trkpt lat="43.73436" lon="3.52781">
        <ele>604</ele>
        <time>2021-11-20T11:36:54.000Z</time>
      </trkpt>
      <trkpt lat="43.73427" lon="3.52778">
        <ele>603</ele>
        <time>2021-11-20T11:37:03.000Z</time>
      </trkpt>
      <trkpt lat="43.73419" lon="3.52775">
        <ele>603</ele>
        <time>2021-11-20T11:37:13.000Z</time>
      </trkpt>
      <trkpt lat="43.7341" lon="3.52772">
        <ele>602</ele>
        <time>2021-11-20T11:37:22.000Z</time>
      </trkpt>
      <trkpt lat="43.73402" lon="3.5277">
        <ele>602</ele>
        <time>2021-11-20T11:37:30.000Z</time>
      </trkpt>
      <trkpt lat="43.73394" lon="3.52768">
        <ele>602</ele>
        <time>2021-11-20T11:37:39.000Z</time>
      </trkpt>
      <trkpt lat="43.73385" lon="3.52766">
        <ele>601</ele>
        <time>2021-11-20T11:37:47.000Z</time>
      </trkpt>
      <trkpt lat="43.73376" lon="3.52764">
        <ele>601</ele>
        <time>2021-11-20T11:37:55.000Z</time>
      </trkpt>
      <trkpt lat="43.73368" lon="3.52761">
        <ele>601</ele>
        <time>2021-11-20T11:38:08.000Z</time>
      </trkpt>
      <trkpt lat="43.7336" lon="3.52757">
        <ele>600</ele>
        <time>2021-11-20T11:38:20.000Z</time>
      </trkpt>
      <trkpt lat="43.73352" lon="3.52752">
        <ele>600</ele>
        <time>2021-11-20T11:38:33.000Z</time>
      </trkpt>
      <trkpt lat="43.73344" lon="3.52748">
        <ele>600</ele>
        <time>2021-11-20T11:38:45.000Z</time>
      </trkpt>
      <trkpt lat="43.73336" lon="3.52744">
        <ele>600</ele>
        <time>2021-11-20T11:38:53.000Z</time>
      </trkpt>
      <trkpt lat="43.73328" lon="3.52741">
        <ele>600</ele>
        <time>2021-11-20T11:39:02.000Z</time>
      </trkpt>
      <trkpt lat="43.7332" lon="3.52738">
        <ele>600</ele>
        <time>2021-11-20T11:39:10.000Z</time>
      </trkpt>
      <trkpt lat="43.73311" lon="3.52734">
        <ele>601</ele>
        <time>2021-11-20T11:39:18.000Z</time>
      </trkpt>
      <trkpt lat="43.73277" lon="3.52726">
        <ele>604</ele>
        <time>2021-11-20T11:40:05.000Z</time>
      </trkpt>
      <trkpt lat="43.73253" lon="3.52714">
        <ele>606</ele>
        <time>2021-11-20T11:40:56.000Z</time>
      </trkpt>
      <trkpt lat="43.73252" lon="3.52708">
        <ele>607</ele>
        <time>2021-11-20T11:41:13.000Z</time>
      </trkpt>
      <trkpt lat="43.73253" lon="3.527">
        <ele>607</ele>
        <time>2021-11-20T11:41:29.000Z</time>
      </trkpt>
      <trkpt lat="43.73256" lon="3.52692">
        <ele>607</ele>
        <time>2021-11-20T11:41:46.000Z</time>
      </trkpt>
      <trkpt lat="43.73259" lon="3.52684">
        <ele>608</ele>
        <time>2021-11-20T11:42:02.000Z</time>
      </trkpt>
      <trkpt lat="43.73262" lon="3.52674">
        <ele>608</ele>
        <time>2021-11-20T11:42:12.000Z</time>
      </trkpt>
      <trkpt lat="43.73266" lon="3.52664">
        <ele>609</ele>
        <time>2021-11-20T11:42:22.000Z</time>
      </trkpt>
      <trkpt lat="43.7327" lon="3.52653">
        <ele>610</ele>
        <time>2021-11-20T11:42:31.000Z</time>
      </trkpt>
      <trkpt lat="43.73275" lon="3.52641">
        <ele>611</ele>
        <time>2021-11-20T11:42:41.000Z</time>
      </trkpt>
      <trkpt lat="43.73279" lon="3.52631">
        <ele>611</ele>
        <time>2021-11-20T11:42:50.000Z</time>
      </trkpt>
      <trkpt lat="43.73283" lon="3.5262">
        <ele>611</ele>
        <time>2021-11-20T11:42:59.000Z</time>
      </trkpt>
      <trkpt lat="43.73287" lon="3.52609">
        <ele>612</ele>
        <time>2021-11-20T11:43:08.000Z</time>
      </trkpt>
      <trkpt lat="43.73291" lon="3.52598">
        <ele>612</ele>
        <time>2021-11-20T11:43:17.000Z</time>
      </trkpt>
      <trkpt lat="43.73294" lon="3.52593">
        <ele>612</ele>
        <time>2021-11-20T11:43:20.000Z</time>
      </trkpt>
      <trkpt lat="43.73295" lon="3.52589">
        <ele>612</ele>
        <time>2021-11-20T11:43:22.000Z</time>
      </trkpt>
      <trkpt lat="43.73296" lon="3.52587">
        <ele>612</ele>
        <time>2021-11-20T11:43:25.000Z</time>
      </trkpt>
      <trkpt lat="43.73296" lon="3.52586">
        <ele>612</ele>
        <time>2021-11-20T11:43:27.000Z</time>
      </trkpt>
      <trkpt lat="43.73298" lon="3.52579">
        <ele>613</ele>
        <time>2021-11-20T11:43:34.000Z</time>
      </trkpt>
      <trkpt lat="43.73299" lon="3.52571">
        <ele>613</ele>
        <time>2021-11-20T11:43:41.000Z</time>
      </trkpt>
      <trkpt lat="43.733" lon="3.52561">
        <ele>613</ele>
        <time>2021-11-20T11:43:47.000Z</time>
      </trkpt>
      <trkpt lat="43.73302" lon="3.52551">
        <ele>614</ele>
        <time>2021-11-20T11:43:54.000Z</time>
      </trkpt>
      <trkpt lat="43.73303" lon="3.52544">
        <ele>614</ele>
        <time>2021-11-20T11:43:59.000Z</time>
      </trkpt>
      <trkpt lat="43.73304" lon="3.52538">
        <ele>615</ele>
        <time>2021-11-20T11:44:04.000Z</time>
      </trkpt>
      <trkpt lat="43.73306" lon="3.52533">
        <ele>615</ele>
        <time>2021-11-20T11:44:09.000Z</time>
      </trkpt>
      <trkpt lat="43.73307" lon="3.52527">
        <ele>615</ele>
        <time>2021-11-20T11:44:14.000Z</time>
      </trkpt>
      <trkpt lat="43.73309" lon="3.52525">
        <ele>616</ele>
        <time>2021-11-20T11:44:18.000Z</time>
      </trkpt>
      <trkpt lat="43.73311" lon="3.52525">
        <ele>616</ele>
        <time>2021-11-20T11:44:23.000Z</time>
      </trkpt>
      <trkpt lat="43.73313" lon="3.52525">
        <ele>616</ele>
        <time>2021-11-20T11:44:27.000Z</time>
      </trkpt>
      <trkpt lat="43.73315" lon="3.52527">
        <ele>616</ele>
        <time>2021-11-20T11:44:31.000Z</time>
      </trkpt>
      <trkpt lat="43.73315" lon="3.52526">
        <ele>616</ele>
        <time>2021-11-20T11:44:34.000Z</time>
      </trkpt>
      <trkpt lat="43.73316" lon="3.52524">
        <ele>616</ele>
        <time>2021-11-20T11:44:38.000Z</time>
      </trkpt>
      <trkpt lat="43.73315" lon="3.52523">
        <ele>616</ele>
        <time>2021-11-20T11:44:41.000Z</time>
      </trkpt>
      <trkpt lat="43.73315" lon="3.52521">
        <ele>616</ele>
        <time>2021-11-20T11:44:44.000Z</time>
      </trkpt>
      <trkpt lat="43.73316" lon="3.52522">
        <ele>616</ele>
        <time>2021-11-20T11:44:54.000Z</time>
      </trkpt>
      <trkpt lat="43.73317" lon="3.52524">
        <ele>616</ele>
        <time>2021-11-20T11:45:04.000Z</time>
      </trkpt>
      <trkpt lat="43.73317" lon="3.52526">
        <ele>616</ele>
        <time>2021-11-20T11:45:13.000Z</time>
      </trkpt>
      <trkpt lat="43.73318" lon="3.52529">
        <ele>616</ele>
        <time>2021-11-20T11:45:23.000Z</time>
      </trkpt>
      <trkpt lat="43.73318" lon="3.52529">
        <ele>616</ele>
        <time>2021-11-20T11:47:09.000Z</time>
      </trkpt>
      <trkpt lat="43.73318" lon="3.52528">
        <ele>616</ele>
        <time>2021-11-20T11:48:55.000Z</time>
      </trkpt>
      <trkpt lat="43.73317" lon="3.52526">
        <ele>616</ele>
        <time>2021-11-20T11:50:40.000Z</time>
      </trkpt>
      <trkpt lat="43.73315" lon="3.52525">
        <ele>616</ele>
        <time>2021-11-20T11:52:26.000Z</time>
      </trkpt>
      <trkpt lat="43.73313" lon="3.52524">
        <ele>617</ele>
        <time>2021-11-20T11:59:07.000Z</time>
      </trkpt>
      <trkpt lat="43.73318" lon="3.5254">
        <ele>617</ele>
        <time>2021-11-20T11:59:10.000Z</time>
      </trkpt>
      <trkpt lat="43.73321" lon="3.52548">
        <ele>618</ele>
        <time>2021-11-20T12:05:23.000Z</time>
      </trkpt>
      <trkpt lat="43.7331" lon="3.52525">
        <ele>619</ele>
        <time>2021-11-20T12:07:09.000Z</time>
      </trkpt>
      <trkpt lat="43.7331" lon="3.52525">
        <ele>619</ele>
        <time>2021-11-20T12:07:10.000Z</time>
      </trkpt>
      <trkpt lat="43.7331" lon="3.5253">
        <ele>617</ele>
        <time>2021-11-20T12:09:05.000Z</time>
      </trkpt>
      <trkpt lat="43.7331" lon="3.52529">
        <ele>617</ele>
        <time>2021-11-20T12:09:22.000Z</time>
      </trkpt>
      <trkpt lat="43.73311" lon="3.52528">
        <ele>617</ele>
        <time>2021-11-20T12:09:38.000Z</time>
      </trkpt>
      <trkpt lat="43.73312" lon="3.52526">
        <ele>618</ele>
        <time>2021-11-20T12:09:55.000Z</time>
      </trkpt>
      <trkpt lat="43.73314" lon="3.52523">
        <ele>618</ele>
        <time>2021-11-20T12:10:11.000Z</time>
      </trkpt>
      <trkpt lat="43.73315" lon="3.52523">
        <ele>619</ele>
        <time>2021-11-20T12:10:52.000Z</time>
      </trkpt>
      <trkpt lat="43.73317" lon="3.52525">
        <ele>619</ele>
        <time>2021-11-20T12:11:33.000Z</time>
      </trkpt>
      <trkpt lat="43.73318" lon="3.52526">
        <ele>619</ele>
        <time>2021-11-20T12:12:14.000Z</time>
      </trkpt>
      <trkpt lat="43.7332" lon="3.52528">
        <ele>619</ele>
        <time>2021-11-20T12:12:55.000Z</time>
      </trkpt>
      <trkpt lat="43.7332" lon="3.52528">
        <ele>619</ele>
        <time>2021-11-20T12:13:11.000Z</time>
      </trkpt>
      <trkpt lat="43.73319" lon="3.52528">
        <ele>619</ele>
        <time>2021-11-20T12:13:26.000Z</time>
      </trkpt>
      <trkpt lat="43.73318" lon="3.52528">
        <ele>619</ele>
        <time>2021-11-20T12:13:42.000Z</time>
      </trkpt>
      <trkpt lat="43.73317" lon="3.52528">
        <ele>618</ele>
        <time>2021-11-20T12:13:57.000Z</time>
      </trkpt>
      <trkpt lat="43.73316" lon="3.52526">
        <ele>618</ele>
        <time>2021-11-20T12:14:10.000Z</time>
      </trkpt>
      <trkpt lat="43.73317" lon="3.52524">
        <ele>619</ele>
        <time>2021-11-20T12:14:23.000Z</time>
      </trkpt>
      <trkpt lat="43.73317" lon="3.52521">
        <ele>619</ele>
        <time>2021-11-20T12:14:35.000Z</time>
      </trkpt>
      <trkpt lat="43.73318" lon="3.52519">
        <ele>619</ele>
        <time>2021-11-20T12:14:48.000Z</time>
      </trkpt>
      <trkpt lat="43.73317" lon="3.52518">
        <ele>619</ele>
        <time>2021-11-20T12:14:51.000Z</time>
      </trkpt>
      <trkpt lat="43.73316" lon="3.52519">
        <ele>619</ele>
        <time>2021-11-20T12:14:53.000Z</time>
      </trkpt>
      <trkpt lat="43.73315" lon="3.5252">
        <ele>618</ele>
        <time>2021-11-20T12:14:56.000Z</time>
      </trkpt>
      <trkpt lat="43.73314" lon="3.52521">
        <ele>618</ele>
        <time>2021-11-20T12:14:58.000Z</time>
      </trkpt>
      <trkpt lat="43.73314" lon="3.52523">
        <ele>618</ele>
        <time>2021-11-20T12:15:07.000Z</time>
      </trkpt>
      <trkpt lat="43.73315" lon="3.52525">
        <ele>619</ele>
        <time>2021-11-20T12:15:16.000Z</time>
      </trkpt>
      <trkpt lat="43.73316" lon="3.52527">
        <ele>619</ele>
        <time>2021-11-20T12:15:24.000Z</time>
      </trkpt>
      <trkpt lat="43.73318" lon="3.52529">
        <ele>619</ele>
        <time>2021-11-20T12:15:33.000Z</time>
      </trkpt>
      <trkpt lat="43.73317" lon="3.52531">
        <ele>619</ele>
        <time>2021-11-20T12:15:49.000Z</time>
      </trkpt>
      <trkpt lat="43.73316" lon="3.52532">
        <ele>619</ele>
        <time>2021-11-20T12:16:05.000Z</time>
      </trkpt>
      <trkpt lat="43.73314" lon="3.52534">
        <ele>619</ele>
        <time>2021-11-20T12:16:20.000Z</time>
      </trkpt>
      <trkpt lat="43.73312" lon="3.52536">
        <ele>619</ele>
        <time>2021-11-20T12:16:36.000Z</time>
      </trkpt>
      <trkpt lat="43.73311" lon="3.52534">
        <ele>619</ele>
        <time>2021-11-20T12:16:49.000Z</time>
      </trkpt>
      <trkpt lat="43.7331" lon="3.52532">
        <ele>618</ele>
        <time>2021-11-20T12:17:02.000Z</time>
      </trkpt>
      <trkpt lat="43.7331" lon="3.52529">
        <ele>618</ele>
        <time>2021-11-20T12:17:15.000Z</time>
      </trkpt>
      <trkpt lat="43.7331" lon="3.52525">
        <ele>618</ele>
        <time>2021-11-20T12:17:28.000Z</time>
      </trkpt>
      <trkpt lat="43.73314" lon="3.52519">
        <ele>618</ele>
        <time>2021-11-20T12:19:09.000Z</time>
      </trkpt>
      <trkpt lat="43.7332" lon="3.52511">
        <ele>619</ele>
        <time>2021-11-20T12:20:50.000Z</time>
      </trkpt>
      <trkpt lat="43.73327" lon="3.52503">
        <ele>620</ele>
        <time>2021-11-20T12:22:30.000Z</time>
      </trkpt>
      <trkpt lat="43.73336" lon="3.52494">
        <ele>620</ele>
        <time>2021-11-20T12:24:11.000Z</time>
      </trkpt>
      <trkpt lat="43.73342" lon="3.52485">
        <ele>621</ele>
        <time>2021-11-20T12:24:23.000Z</time>
      </trkpt>
      <trkpt lat="43.73347" lon="3.52476">
        <ele>621</ele>
        <time>2021-11-20T12:24:35.000Z</time>
      </trkpt>
      <trkpt lat="43.73354" lon="3.52467">
        <ele>621</ele>
        <time>2021-11-20T12:24:47.000Z</time>
      </trkpt>
      <trkpt lat="43.73359" lon="3.52457">
        <ele>621</ele>
        <time>2021-11-20T12:24:59.000Z</time>
      </trkpt>
      <trkpt lat="43.73365" lon="3.52448">
        <ele>622</ele>
        <time>2021-11-20T12:25:09.000Z</time>
      </trkpt>
      <trkpt lat="43.7337" lon="3.52438">
        <ele>622</ele>
        <time>2021-11-20T12:25:18.000Z</time>
      </trkpt>
      <trkpt lat="43.73374" lon="3.52428">
        <ele>623</ele>
        <time>2021-11-20T12:25:28.000Z</time>
      </trkpt>
      <trkpt lat="43.73379" lon="3.52418">
        <ele>623</ele>
        <time>2021-11-20T12:25:37.000Z</time>
      </trkpt>
      <trkpt lat="43.73383" lon="3.52412">
        <ele>623</ele>
        <time>2021-11-20T12:25:45.000Z</time>
      </trkpt>
      <trkpt lat="43.73387" lon="3.52408">
        <ele>624</ele>
        <time>2021-11-20T12:25:53.000Z</time>
      </trkpt>
      <trkpt lat="43.73391" lon="3.52405">
        <ele>624</ele>
        <time>2021-11-20T12:26:00.000Z</time>
      </trkpt>
      <trkpt lat="43.73394" lon="3.52403">
        <ele>624</ele>
        <time>2021-11-20T12:26:08.000Z</time>
      </trkpt>
      <trkpt lat="43.73396" lon="3.52402">
        <ele>624</ele>
        <time>2021-11-20T12:26:16.000Z</time>
      </trkpt>
      <trkpt lat="43.73397" lon="3.52401">
        <ele>624</ele>
        <time>2021-11-20T12:26:24.000Z</time>
      </trkpt>
      <trkpt lat="43.73397" lon="3.524">
        <ele>625</ele>
        <time>2021-11-20T12:26:31.000Z</time>
      </trkpt>
      <trkpt lat="43.73397" lon="3.524">
        <ele>625</ele>
        <time>2021-11-20T12:26:39.000Z</time>
      </trkpt>
      <trkpt lat="43.73398" lon="3.52399">
        <ele>625</ele>
        <time>2021-11-20T12:26:39.000Z</time>
      </trkpt>
      <trkpt lat="43.73399" lon="3.52399">
        <ele>625</ele>
        <time>2021-11-20T12:26:40.000Z</time>
      </trkpt>
      <trkpt lat="43.73399" lon="3.52398">
        <ele>625</ele>
        <time>2021-11-20T12:26:40.000Z</time>
      </trkpt>
      <trkpt lat="43.734" lon="3.52398">
        <ele>625</ele>
        <time>2021-11-20T12:26:40.000Z</time>
      </trkpt>
      <trkpt lat="43.73426" lon="3.52366">
        <ele>623</ele>
        <time>2021-11-20T12:27:03.000Z</time>
      </trkpt>
      <trkpt lat="43.73449" lon="3.52329">
        <ele>621</ele>
        <time>2021-11-20T12:27:31.000Z</time>
      </trkpt>
      <trkpt lat="43.73453" lon="3.52325">
        <ele>620</ele>
        <time>2021-11-20T12:27:37.000Z</time>
      </trkpt>
      <trkpt lat="43.73454" lon="3.52328">
        <ele>620</ele>
        <time>2021-11-20T12:27:42.000Z</time>
      </trkpt>
      <trkpt lat="43.73461" lon="3.52313">
        <ele>619</ele>
        <time>2021-11-20T12:28:00.000Z</time>
      </trkpt>
      <trkpt lat="43.73471" lon="3.52292">
        <ele>617</ele>
        <time>2021-11-20T12:28:17.000Z</time>
      </trkpt>
      <trkpt lat="43.73476" lon="3.52282">
        <ele>616</ele>
        <time>2021-11-20T12:28:24.000Z</time>
      </trkpt>
      <trkpt lat="43.73482" lon="3.52273">
        <ele>616</ele>
        <time>2021-11-20T12:28:31.000Z</time>
      </trkpt>
      <trkpt lat="43.73487" lon="3.52263">
        <ele>615</ele>
        <time>2021-11-20T12:28:38.000Z</time>
      </trkpt>
      <trkpt lat="43.73493" lon="3.52254">
        <ele>614</ele>
        <time>2021-11-20T12:28:45.000Z</time>
      </trkpt>
      <trkpt lat="43.73498" lon="3.52244">
        <ele>614</ele>
        <time>2021-11-20T12:28:56.000Z</time>
      </trkpt>
      <trkpt lat="43.73503" lon="3.52233">
        <ele>613</ele>
        <time>2021-11-20T12:29:07.000Z</time>
      </trkpt>
      <trkpt lat="43.73507" lon="3.52223">
        <ele>612</ele>
        <time>2021-11-20T12:29:18.000Z</time>
      </trkpt>
      <trkpt lat="43.73512" lon="3.52212">
        <ele>611</ele>
        <time>2021-11-20T12:29:29.000Z</time>
      </trkpt>
      <trkpt lat="43.73515" lon="3.52205">
        <ele>610</ele>
        <time>2021-11-20T12:29:35.000Z</time>
      </trkpt>
      <trkpt lat="43.73518" lon="3.52199">
        <ele>609</ele>
        <time>2021-11-20T12:29:41.000Z</time>
      </trkpt>
      <trkpt lat="43.73521" lon="3.52194">
        <ele>609</ele>
        <time>2021-11-20T12:29:47.000Z</time>
      </trkpt>
      <trkpt lat="43.73524" lon="3.5219">
        <ele>608</ele>
        <time>2021-11-20T12:29:53.000Z</time>
      </trkpt>
      <trkpt lat="43.73527" lon="3.52186">
        <ele>608</ele>
        <time>2021-11-20T12:29:57.000Z</time>
      </trkpt>
      <trkpt lat="43.7353" lon="3.52183">
        <ele>608</ele>
        <time>2021-11-20T12:30:01.000Z</time>
      </trkpt>
      <trkpt lat="43.73533" lon="3.5218">
        <ele>608</ele>
        <time>2021-11-20T12:30:04.000Z</time>
      </trkpt>
      <trkpt lat="43.73536" lon="3.52178">
        <ele>607</ele>
        <time>2021-11-20T12:30:08.000Z</time>
      </trkpt>
      <trkpt lat="43.73539" lon="3.5217">
        <ele>606</ele>
        <time>2021-11-20T12:30:17.000Z</time>
      </trkpt>
      <trkpt lat="43.7354" lon="3.52162">
        <ele>605</ele>
        <time>2021-11-20T12:30:25.000Z</time>
      </trkpt>
      <trkpt lat="43.73539" lon="3.52155">
        <ele>605</ele>
        <time>2021-11-20T12:30:31.000Z</time>
      </trkpt>
      <trkpt lat="43.73535" lon="3.52147">
        <ele>604</ele>
        <time>2021-11-20T12:30:38.000Z</time>
      </trkpt>
      <trkpt lat="43.73531" lon="3.52139">
        <ele>603</ele>
        <time>2021-11-20T12:30:44.000Z</time>
      </trkpt>
      <trkpt lat="43.73526" lon="3.5213">
        <ele>602</ele>
        <time>2021-11-20T12:30:50.000Z</time>
      </trkpt>
      <trkpt lat="43.73521" lon="3.52125">
        <ele>602</ele>
        <time>2021-11-20T12:31:17.000Z</time>
      </trkpt>
      <trkpt lat="43.73518" lon="3.52125">
        <ele>603</ele>
        <time>2021-11-20T12:31:43.000Z</time>
      </trkpt>
      <trkpt lat="43.73517" lon="3.52118">
        <ele>602</ele>
        <time>2021-11-20T12:32:01.000Z</time>
      </trkpt>
      <trkpt lat="43.73516" lon="3.52109">
        <ele>601</ele>
        <time>2021-11-20T12:32:19.000Z</time>
      </trkpt>
      <trkpt lat="43.73515" lon="3.52098">
        <ele>599</ele>
        <time>2021-11-20T12:32:37.000Z</time>
      </trkpt>
      <trkpt lat="43.73515" lon="3.52086">
        <ele>597</ele>
        <time>2021-11-20T12:32:55.000Z</time>
      </trkpt>
      <trkpt lat="43.73514" lon="3.5208">
        <ele>597</ele>
        <time>2021-11-20T12:32:59.000Z</time>
      </trkpt>
      <trkpt lat="43.73513" lon="3.52074">
        <ele>597</ele>
        <time>2021-11-20T12:33:03.000Z</time>
      </trkpt>
      <trkpt lat="43.73512" lon="3.5207">
        <ele>597</ele>
        <time>2021-11-20T12:33:06.000Z</time>
      </trkpt>
      <trkpt lat="43.7351" lon="3.52066">
        <ele>598</ele>
        <time>2021-11-20T12:33:10.000Z</time>
      </trkpt>
      <trkpt lat="43.7351" lon="3.52064">
        <ele>598</ele>
        <time>2021-11-20T12:33:10.000Z</time>
      </trkpt>
      <trkpt lat="43.7351" lon="3.52063">
        <ele>598</ele>
        <time>2021-11-20T12:33:11.000Z</time>
      </trkpt>
      <trkpt lat="43.7351" lon="3.52062">
        <ele>598</ele>
        <time>2021-11-20T12:33:11.000Z</time>
      </trkpt>
      <trkpt lat="43.7351" lon="3.52062">
        <ele>598</ele>
        <time>2021-11-20T12:33:11.000Z</time>
      </trkpt>
      <trkpt lat="43.73517" lon="3.52045">
        <ele>596</ele>
        <time>2021-11-20T12:33:25.000Z</time>
      </trkpt>
      <trkpt lat="43.73528" lon="3.52022">
        <ele>594</ele>
        <time>2021-11-20T12:33:38.000Z</time>
      </trkpt>
      <trkpt lat="43.73531" lon="3.52011">
        <ele>593</ele>
        <time>2021-11-20T12:33:45.000Z</time>
      </trkpt>
      <trkpt lat="43.73534" lon="3.51999">
        <ele>593</ele>
        <time>2021-11-20T12:33:51.000Z</time>
      </trkpt>
      <trkpt lat="43.73536" lon="3.51987">
        <ele>592</ele>
        <time>2021-11-20T12:33:58.000Z</time>
      </trkpt>
      <trkpt lat="43.73537" lon="3.51976">
        <ele>591</ele>
        <time>2021-11-20T12:34:04.000Z</time>
      </trkpt>
      <trkpt lat="43.7354" lon="3.51964">
        <ele>590</ele>
        <time>2021-11-20T12:34:11.000Z</time>
      </trkpt>
      <trkpt lat="43.73542" lon="3.51953">
        <ele>590</ele>
        <time>2021-11-20T12:34:18.000Z</time>
      </trkpt>
      <trkpt lat="43.73544" lon="3.51941">
        <ele>589</ele>
        <time>2021-11-20T12:34:25.000Z</time>
      </trkpt>
      <trkpt lat="43.73547" lon="3.51929">
        <ele>588</ele>
        <time>2021-11-20T12:34:32.000Z</time>
      </trkpt>
      <trkpt lat="43.73549" lon="3.51918">
        <ele>587</ele>
        <time>2021-11-20T12:34:40.000Z</time>
      </trkpt>
      <trkpt lat="43.73551" lon="3.51906">
        <ele>587</ele>
        <time>2021-11-20T12:34:48.000Z</time>
      </trkpt>
      <trkpt lat="43.73553" lon="3.51894">
        <ele>586</ele>
        <time>2021-11-20T12:34:55.000Z</time>
      </trkpt>
      <trkpt lat="43.73556" lon="3.51882">
        <ele>586</ele>
        <time>2021-11-20T12:35:03.000Z</time>
      </trkpt>
      <trkpt lat="43.73557" lon="3.51875">
        <ele>585</ele>
        <time>2021-11-20T12:35:07.000Z</time>
      </trkpt>
      <trkpt lat="43.73559" lon="3.5187">
        <ele>585</ele>
        <time>2021-11-20T12:35:12.000Z</time>
      </trkpt>
      <trkpt lat="43.7356" lon="3.51867">
        <ele>585</ele>
        <time>2021-11-20T12:35:16.000Z</time>
      </trkpt>
      <trkpt lat="43.73561" lon="3.51864">
        <ele>585</ele>
        <time>2021-11-20T12:35:20.000Z</time>
      </trkpt>
      <trkpt lat="43.73561" lon="3.51862">
        <ele>584</ele>
        <time>2021-11-20T12:35:35.000Z</time>
      </trkpt>
      <trkpt lat="43.73561" lon="3.51862">
        <ele>584</ele>
        <time>2021-11-20T12:35:50.000Z</time>
      </trkpt>
      <trkpt lat="43.73561" lon="3.51862">
        <ele>584</ele>
        <time>2021-11-20T12:36:04.000Z</time>
      </trkpt>
      <trkpt lat="43.7356" lon="3.51862">
        <ele>584</ele>
        <time>2021-11-20T12:36:19.000Z</time>
      </trkpt>
      <trkpt lat="43.7356" lon="3.5186">
        <ele>584</ele>
        <time>2021-11-20T12:36:20.000Z</time>
      </trkpt>
      <trkpt lat="43.73563" lon="3.51815">
        <ele>583</ele>
        <time>2021-11-20T12:36:37.000Z</time>
      </trkpt>
      <trkpt lat="43.73571" lon="3.51769">
        <ele>585</ele>
        <time>2021-11-20T12:37:05.000Z</time>
      </trkpt>
      <trkpt lat="43.73572" lon="3.51751">
        <ele>585</ele>
        <time>2021-11-20T12:37:15.000Z</time>
      </trkpt>
      <trkpt lat="43.73571" lon="3.51749">
        <ele>585</ele>
        <time>2021-11-20T12:37:16.000Z</time>
      </trkpt>
      <trkpt lat="43.7357" lon="3.51748">
        <ele>585</ele>
        <time>2021-11-20T12:37:18.000Z</time>
      </trkpt>
      <trkpt lat="43.73569" lon="3.51748">
        <ele>585</ele>
        <time>2021-11-20T12:37:19.000Z</time>
      </trkpt>
      <trkpt lat="43.73568" lon="3.51748">
        <ele>585</ele>
        <time>2021-11-20T12:37:20.000Z</time>
      </trkpt>
      <trkpt lat="43.73567" lon="3.51749">
        <ele>585</ele>
        <time>2021-11-20T12:37:22.000Z</time>
      </trkpt>
      <trkpt lat="43.73566" lon="3.5175">
        <ele>585</ele>
        <time>2021-11-20T12:37:23.000Z</time>
      </trkpt>
      <trkpt lat="43.73565" lon="3.51752">
        <ele>585</ele>
        <time>2021-11-20T12:37:25.000Z</time>
      </trkpt>
      <trkpt lat="43.73564" lon="3.51754">
        <ele>585</ele>
        <time>2021-11-20T12:37:26.000Z</time>
      </trkpt>
      <trkpt lat="43.73561" lon="3.51758">
        <ele>585</ele>
        <time>2021-11-20T12:37:31.000Z</time>
      </trkpt>
      <trkpt lat="43.73558" lon="3.51763">
        <ele>584</ele>
        <time>2021-11-20T12:37:36.000Z</time>
      </trkpt>
      <trkpt lat="43.73554" lon="3.51768">
        <ele>584</ele>
        <time>2021-11-20T12:37:40.000Z</time>
      </trkpt>
      <trkpt lat="43.7355" lon="3.51774">
        <ele>584</ele>
        <time>2021-11-20T12:37:45.000Z</time>
      </trkpt>
      <trkpt lat="43.73547" lon="3.51778">
        <ele>584</ele>
        <time>2021-11-20T12:37:48.000Z</time>
      </trkpt>
      <trkpt lat="43.73544" lon="3.5178">
        <ele>583</ele>
        <time>2021-11-20T12:37:52.000Z</time>
      </trkpt>
      <trkpt lat="43.7354" lon="3.51782">
        <ele>583</ele>
        <time>2021-11-20T12:37:55.000Z</time>
      </trkpt>
      <trkpt lat="43.73537" lon="3.51784">
        <ele>583</ele>
        <time>2021-11-20T12:37:58.000Z</time>
      </trkpt>
      <trkpt lat="43.73535" lon="3.51784">
        <ele>582</ele>
        <time>2021-11-20T12:38:00.000Z</time>
      </trkpt>
      <trkpt lat="43.73534" lon="3.51783">
        <ele>582</ele>
        <time>2021-11-20T12:38:02.000Z</time>
      </trkpt>
      <trkpt lat="43.73532" lon="3.51782">
        <ele>582</ele>
        <time>2021-11-20T12:38:03.000Z</time>
      </trkpt>
      <trkpt lat="43.73531" lon="3.51781">
        <ele>582</ele>
        <time>2021-11-20T12:38:05.000Z</time>
      </trkpt>
      <trkpt lat="43.7353" lon="3.51779">
        <ele>582</ele>
        <time>2021-11-20T12:38:07.000Z</time>
      </trkpt>
      <trkpt lat="43.7353" lon="3.51778">
        <ele>582</ele>
        <time>2021-11-20T12:38:08.000Z</time>
      </trkpt>
      <trkpt lat="43.73529" lon="3.51776">
        <ele>582</ele>
        <time>2021-11-20T12:38:10.000Z</time>
      </trkpt>
      <trkpt lat="43.73529" lon="3.51774">
        <ele>581</ele>
        <time>2021-11-20T12:38:11.000Z</time>
      </trkpt>
      <trkpt lat="43.7353" lon="3.51767">
        <ele>581</ele>
        <time>2021-11-20T12:38:17.000Z</time>
      </trkpt>
      <trkpt lat="43.73531" lon="3.51758">
        <ele>581</ele>
        <time>2021-11-20T12:38:24.000Z</time>
      </trkpt>
      <trkpt lat="43.73533" lon="3.51747">
        <ele>580</ele>
        <time>2021-11-20T12:38:30.000Z</time>
      </trkpt>
      <trkpt lat="43.73534" lon="3.51735">
        <ele>580</ele>
        <time>2021-11-20T12:38:36.000Z</time>
      </trkpt>
      <trkpt lat="43.73534" lon="3.51724">
        <ele>579</ele>
        <time>2021-11-20T12:38:46.000Z</time>
      </trkpt>
      <trkpt lat="43.73532" lon="3.51713">
        <ele>578</ele>
        <time>2021-11-20T12:38:56.000Z</time>
      </trkpt>
      <trkpt lat="43.73531" lon="3.517">
        <ele>577</ele>
        <time>2021-11-20T12:39:05.000Z</time>
      </trkpt>
      <trkpt lat="43.73528" lon="3.51688">
        <ele>576</ele>
        <time>2021-11-20T12:39:15.000Z</time>
      </trkpt>
      <trkpt lat="43.73525" lon="3.51677">
        <ele>576</ele>
        <time>2021-11-20T12:39:23.000Z</time>
      </trkpt>
      <trkpt lat="43.73521" lon="3.51667">
        <ele>575</ele>
        <time>2021-11-20T12:39:32.000Z</time>
      </trkpt>
      <trkpt lat="43.73516" lon="3.51656">
        <ele>574</ele>
        <time>2021-11-20T12:39:40.000Z</time>
      </trkpt>
      <trkpt lat="43.73512" lon="3.51646">
        <ele>573</ele>
        <time>2021-11-20T12:39:48.000Z</time>
      </trkpt>
      <trkpt lat="43.73503" lon="3.51635">
        <ele>571</ele>
        <time>2021-11-20T12:39:56.000Z</time>
      </trkpt>
      <trkpt lat="43.73494" lon="3.51629">
        <ele>570</ele>
        <time>2021-11-20T12:40:03.000Z</time>
      </trkpt>
      <trkpt lat="43.73491" lon="3.51625">
        <ele>570</ele>
        <time>2021-11-20T12:40:06.000Z</time>
      </trkpt>
      <trkpt lat="43.73489" lon="3.51621">
        <ele>569</ele>
        <time>2021-11-20T12:40:08.000Z</time>
      </trkpt>
      <trkpt lat="43.73487" lon="3.51617">
        <ele>569</ele>
        <time>2021-11-20T12:40:11.000Z</time>
      </trkpt>
      <trkpt lat="43.73486" lon="3.51612">
        <ele>569</ele>
        <time>2021-11-20T12:40:13.000Z</time>
      </trkpt>
      <trkpt lat="43.73486" lon="3.51609">
        <ele>568</ele>
        <time>2021-11-20T12:40:16.000Z</time>
      </trkpt>
      <trkpt lat="43.73487" lon="3.51605">
        <ele>568</ele>
        <time>2021-11-20T12:40:20.000Z</time>
      </trkpt>
      <trkpt lat="43.73488" lon="3.51602">
        <ele>568</ele>
        <time>2021-11-20T12:40:23.000Z</time>
      </trkpt>
      <trkpt lat="43.73489" lon="3.51598">
        <ele>567</ele>
        <time>2021-11-20T12:40:26.000Z</time>
      </trkpt>
      <trkpt lat="43.73494" lon="3.51595">
        <ele>567</ele>
        <time>2021-11-20T12:40:32.000Z</time>
      </trkpt>
      <trkpt lat="43.735" lon="3.51591">
        <ele>566</ele>
        <time>2021-11-20T12:40:37.000Z</time>
      </trkpt>
      <trkpt lat="43.73507" lon="3.51587">
        <ele>566</ele>
        <time>2021-11-20T12:40:43.000Z</time>
      </trkpt>
      <trkpt lat="43.73515" lon="3.51584">
        <ele>566</ele>
        <time>2021-11-20T12:40:48.000Z</time>
      </trkpt>
      <trkpt lat="43.73519" lon="3.51581">
        <ele>565</ele>
        <time>2021-11-20T12:40:51.000Z</time>
      </trkpt>
      <trkpt lat="43.73521" lon="3.51578">
        <ele>565</ele>
        <time>2021-11-20T12:40:54.000Z</time>
      </trkpt>
      <trkpt lat="43.73523" lon="3.51576">
        <ele>564</ele>
        <time>2021-11-20T12:40:56.000Z</time>
      </trkpt>
      <trkpt lat="43.73523" lon="3.51574">
        <ele>564</ele>
        <time>2021-11-20T12:40:59.000Z</time>
      </trkpt>
      <trkpt lat="43.73526" lon="3.51568">
        <ele>563</ele>
        <time>2021-11-20T12:41:05.000Z</time>
      </trkpt>
      <trkpt lat="43.73528" lon="3.5156">
        <ele>562</ele>
        <time>2021-11-20T12:41:11.000Z</time>
      </trkpt>
      <trkpt lat="43.73531" lon="3.51552">
        <ele>561</ele>
        <time>2021-11-20T12:41:16.000Z</time>
      </trkpt>
      <trkpt lat="43.73534" lon="3.51542">
        <ele>560</ele>
        <time>2021-11-20T12:41:22.000Z</time>
      </trkpt>
      <trkpt lat="43.73536" lon="3.51532">
        <ele>559</ele>
        <time>2021-11-20T12:41:31.000Z</time>
      </trkpt>
      <trkpt lat="43.73539" lon="3.5152">
        <ele>558</ele>
        <time>2021-11-20T12:41:40.000Z</time>
      </trkpt>
      <trkpt lat="43.73542" lon="3.51508">
        <ele>557</ele>
        <time>2021-11-20T12:41:48.000Z</time>
      </trkpt>
      <trkpt lat="43.73544" lon="3.51495">
        <ele>555</ele>
        <time>2021-11-20T12:41:57.000Z</time>
      </trkpt>
      <trkpt lat="43.7355" lon="3.51486">
        <ele>554</ele>
        <time>2021-11-20T12:42:03.000Z</time>
      </trkpt>
      <trkpt lat="43.73555" lon="3.51484">
        <ele>554</ele>
        <time>2021-11-20T12:42:08.000Z</time>
      </trkpt>
      <trkpt lat="43.73555" lon="3.51479">
        <ele>554</ele>
        <time>2021-11-20T12:42:12.000Z</time>
      </trkpt>
      <trkpt lat="43.73555" lon="3.51473">
        <ele>553</ele>
        <time>2021-11-20T12:42:16.000Z</time>
      </trkpt>
      <trkpt lat="43.73555" lon="3.51467">
        <ele>552</ele>
        <time>2021-11-20T12:42:19.000Z</time>
      </trkpt>
      <trkpt lat="43.73554" lon="3.51461">
        <ele>552</ele>
        <time>2021-11-20T12:42:23.000Z</time>
      </trkpt>
      <trkpt lat="43.73555" lon="3.51458">
        <ele>551</ele>
        <time>2021-11-20T12:42:25.000Z</time>
      </trkpt>
      <trkpt lat="43.73556" lon="3.51455">
        <ele>551</ele>
        <time>2021-11-20T12:42:27.000Z</time>
      </trkpt>
      <trkpt lat="43.73557" lon="3.51453">
        <ele>551</ele>
        <time>2021-11-20T12:42:29.000Z</time>
      </trkpt>
      <trkpt lat="43.73559" lon="3.51451">
        <ele>551</ele>
        <time>2021-11-20T12:42:31.000Z</time>
      </trkpt>
      <trkpt lat="43.73563" lon="3.51444">
        <ele>550</ele>
        <time>2021-11-20T12:42:40.000Z</time>
      </trkpt>
      <trkpt lat="43.73569" lon="3.51435">
        <ele>548</ele>
        <time>2021-11-20T12:42:49.000Z</time>
      </trkpt>
      <trkpt lat="43.73576" lon="3.51425">
        <ele>547</ele>
        <time>2021-11-20T12:42:57.000Z</time>
      </trkpt>
      <trkpt lat="43.73582" lon="3.51414">
        <ele>546</ele>
        <time>2021-11-20T12:43:06.000Z</time>
      </trkpt>
      <trkpt lat="43.73587" lon="3.51408">
        <ele>545</ele>
        <time>2021-11-20T12:43:10.000Z</time>
      </trkpt>
      <trkpt lat="43.7359" lon="3.51404">
        <ele>544</ele>
        <time>2021-11-20T12:43:15.000Z</time>
      </trkpt>
      <trkpt lat="43.73592" lon="3.51401">
        <ele>543</ele>
        <time>2021-11-20T12:43:19.000Z</time>
      </trkpt>
      <trkpt lat="43.73595" lon="3.51398">
        <ele>543</ele>
        <time>2021-11-20T12:43:23.000Z</time>
      </trkpt>
      <trkpt lat="43.73597" lon="3.51392">
        <ele>542</ele>
        <time>2021-11-20T12:43:27.000Z</time>
      </trkpt>
      <trkpt lat="43.73597" lon="3.51385">
        <ele>541</ele>
        <time>2021-11-20T12:43:31.000Z</time>
      </trkpt>
      <trkpt lat="43.73598" lon="3.51378">
        <ele>540</ele>
        <time>2021-11-20T12:43:35.000Z</time>
      </trkpt>
      <trkpt lat="43.73598" lon="3.5137">
        <ele>540</ele>
        <time>2021-11-20T12:43:39.000Z</time>
      </trkpt>
      <trkpt lat="43.73597" lon="3.5136">
        <ele>539</ele>
        <time>2021-11-20T12:43:47.000Z</time>
      </trkpt>
      <trkpt lat="43.73597" lon="3.51348">
        <ele>537</ele>
        <time>2021-11-20T12:43:54.000Z</time>
      </trkpt>
      <trkpt lat="43.73595" lon="3.51335">
        <ele>536</ele>
        <time>2021-11-20T12:44:02.000Z</time>
      </trkpt>
      <trkpt lat="43.73594" lon="3.51322">
        <ele>535</ele>
        <time>2021-11-20T12:44:09.000Z</time>
      </trkpt>
      <trkpt lat="43.73594" lon="3.51314">
        <ele>534</ele>
        <time>2021-11-20T12:44:15.000Z</time>
      </trkpt>
      <trkpt lat="43.73595" lon="3.51307">
        <ele>534</ele>
        <time>2021-11-20T12:44:21.000Z</time>
      </trkpt>
      <trkpt lat="43.73595" lon="3.51302">
        <ele>533</ele>
        <time>2021-11-20T12:44:27.000Z</time>
      </trkpt>
      <trkpt lat="43.73596" lon="3.51297">
        <ele>533</ele>
        <time>2021-11-20T12:44:33.000Z</time>
      </trkpt>
      <trkpt lat="43.73598" lon="3.51292">
        <ele>532</ele>
        <time>2021-11-20T12:44:39.000Z</time>
      </trkpt>
      <trkpt lat="43.73602" lon="3.51287">
        <ele>531</ele>
        <time>2021-11-20T12:44:45.000Z</time>
      </trkpt>
      <trkpt lat="43.73606" lon="3.51283">
        <ele>530</ele>
        <time>2021-11-20T12:44:51.000Z</time>
      </trkpt>
      <trkpt lat="43.7361" lon="3.51279">
        <ele>529</ele>
        <time>2021-11-20T12:44:57.000Z</time>
      </trkpt>
      <trkpt lat="43.73616" lon="3.51274">
        <ele>529</ele>
        <time>2021-11-20T12:45:04.000Z</time>
      </trkpt>
      <trkpt lat="43.73624" lon="3.51268">
        <ele>528</ele>
        <time>2021-11-20T12:45:11.000Z</time>
      </trkpt>
      <trkpt lat="43.73632" lon="3.51262">
        <ele>528</ele>
        <time>2021-11-20T12:45:18.000Z</time>
      </trkpt>
      <trkpt lat="43.7364" lon="3.51255">
        <ele>528</ele>
        <time>2021-11-20T12:45:25.000Z</time>
      </trkpt>
      <trkpt lat="43.73645" lon="3.51251">
        <ele>527</ele>
        <time>2021-11-20T12:45:29.000Z</time>
      </trkpt>
      <trkpt lat="43.73648" lon="3.51246">
        <ele>527</ele>
        <time>2021-11-20T12:45:33.000Z</time>
      </trkpt>
      <trkpt lat="43.7365" lon="3.51242">
        <ele>527</ele>
        <time>2021-11-20T12:45:36.000Z</time>
      </trkpt>
      <trkpt lat="43.73652" lon="3.51239">
        <ele>527</ele>
        <time>2021-11-20T12:45:40.000Z</time>
      </trkpt>
      <trkpt lat="43.73655" lon="3.51226">
        <ele>527</ele>
        <time>2021-11-20T12:45:49.000Z</time>
      </trkpt>
      <trkpt lat="43.73656" lon="3.51213">
        <ele>526</ele>
        <time>2021-11-20T12:45:58.000Z</time>
      </trkpt>
      <trkpt lat="43.7366" lon="3.51203">
        <ele>526</ele>
        <time>2021-11-20T12:46:06.000Z</time>
      </trkpt>
      <trkpt lat="43.73663" lon="3.51193">
        <ele>527</ele>
        <time>2021-11-20T12:46:15.000Z</time>
      </trkpt>
      <trkpt lat="43.73668" lon="3.51182">
        <ele>527</ele>
        <time>2021-11-20T12:46:23.000Z</time>
      </trkpt>
      <trkpt lat="43.73672" lon="3.5117">
        <ele>527</ele>
        <time>2021-11-20T12:46:31.000Z</time>
      </trkpt>
      <trkpt lat="43.73685" lon="3.51154">
        <ele>527</ele>
        <time>2021-11-20T12:46:48.000Z</time>
      </trkpt>
      <trkpt lat="43.73701" lon="3.51141">
        <ele>526</ele>
        <time>2021-11-20T12:47:04.000Z</time>
      </trkpt>
      <trkpt lat="43.73703" lon="3.51134">
        <ele>526</ele>
        <time>2021-11-20T12:47:09.000Z</time>
      </trkpt>
      <trkpt lat="43.73702" lon="3.51127">
        <ele>525</ele>
        <time>2021-11-20T12:47:14.000Z</time>
      </trkpt>
      <trkpt lat="43.73699" lon="3.5112">
        <ele>525</ele>
        <time>2021-11-20T12:47:18.000Z</time>
      </trkpt>
      <trkpt lat="43.73696" lon="3.51113">
        <ele>524</ele>
        <time>2021-11-20T12:47:23.000Z</time>
      </trkpt>
      <trkpt lat="43.73697" lon="3.51107">
        <ele>524</ele>
        <time>2021-11-20T12:47:28.000Z</time>
      </trkpt>
      <trkpt lat="43.73699" lon="3.51102">
        <ele>523</ele>
        <time>2021-11-20T12:47:34.000Z</time>
      </trkpt>
      <trkpt lat="43.73701" lon="3.51097">
        <ele>523</ele>
        <time>2021-11-20T12:47:39.000Z</time>
      </trkpt>
      <trkpt lat="43.73703" lon="3.51092">
        <ele>523</ele>
        <time>2021-11-20T12:47:44.000Z</time>
      </trkpt>
      <trkpt lat="43.73706" lon="3.51083">
        <ele>522</ele>
        <time>2021-11-20T12:47:54.000Z</time>
      </trkpt>
      <trkpt lat="43.73709" lon="3.51072">
        <ele>521</ele>
        <time>2021-11-20T12:48:04.000Z</time>
      </trkpt>
      <trkpt lat="43.73713" lon="3.5106">
        <ele>521</ele>
        <time>2021-11-20T12:48:13.000Z</time>
      </trkpt>
      <trkpt lat="43.73717" lon="3.51047">
        <ele>520</ele>
        <time>2021-11-20T12:48:23.000Z</time>
      </trkpt>
      <trkpt lat="43.73721" lon="3.51036">
        <ele>519</ele>
        <time>2021-11-20T12:48:32.000Z</time>
      </trkpt>
      <trkpt lat="43.73726" lon="3.51026">
        <ele>519</ele>
        <time>2021-11-20T12:48:40.000Z</time>
      </trkpt>
      <trkpt lat="43.73731" lon="3.51015">
        <ele>518</ele>
        <time>2021-11-20T12:48:49.000Z</time>
      </trkpt>
      <trkpt lat="43.73735" lon="3.51005">
        <ele>517</ele>
        <time>2021-11-20T12:48:57.000Z</time>
      </trkpt>
      <trkpt lat="43.7374" lon="3.50995">
        <ele>517</ele>
        <time>2021-11-20T12:49:05.000Z</time>
      </trkpt>
      <trkpt lat="43.73746" lon="3.50985">
        <ele>515</ele>
        <time>2021-11-20T12:49:14.000Z</time>
      </trkpt>
      <trkpt lat="43.73751" lon="3.50975">
        <ele>514</ele>
        <time>2021-11-20T12:49:22.000Z</time>
      </trkpt>
      <trkpt lat="43.73756" lon="3.50966">
        <ele>513</ele>
        <time>2021-11-20T12:49:30.000Z</time>
      </trkpt>
      <trkpt lat="43.73759" lon="3.50961">
        <ele>512</ele>
        <time>2021-11-20T12:49:33.000Z</time>
      </trkpt>
      <trkpt lat="43.73761" lon="3.50959">
        <ele>512</ele>
        <time>2021-11-20T12:49:35.000Z</time>
      </trkpt>
      <trkpt lat="43.73762" lon="3.50958">
        <ele>512</ele>
        <time>2021-11-20T12:49:38.000Z</time>
      </trkpt>
      <trkpt lat="43.73763" lon="3.50958">
        <ele>512</ele>
        <time>2021-11-20T12:49:40.000Z</time>
      </trkpt>
      <trkpt lat="43.73766" lon="3.50957">
        <ele>512</ele>
        <time>2021-11-20T12:49:44.000Z</time>
      </trkpt>
      <trkpt lat="43.73771" lon="3.50957">
        <ele>511</ele>
        <time>2021-11-20T12:49:47.000Z</time>
      </trkpt>
      <trkpt lat="43.73775" lon="3.50958">
        <ele>511</ele>
        <time>2021-11-20T12:49:51.000Z</time>
      </trkpt>
      <trkpt lat="43.7378" lon="3.50959">
        <ele>510</ele>
        <time>2021-11-20T12:49:54.000Z</time>
      </trkpt>
      <trkpt lat="43.73786" lon="3.50956">
        <ele>510</ele>
        <time>2021-11-20T12:49:59.000Z</time>
      </trkpt>
      <trkpt lat="43.7379" lon="3.50952">
        <ele>509</ele>
        <time>2021-11-20T12:50:04.000Z</time>
      </trkpt>
      <trkpt lat="43.73795" lon="3.50945">
        <ele>508</ele>
        <time>2021-11-20T12:50:13.000Z</time>
      </trkpt>
      <trkpt lat="43.738" lon="3.50935">
        <ele>507</ele>
        <time>2021-11-20T12:50:23.000Z</time>
      </trkpt>
      <trkpt lat="43.73806" lon="3.50925">
        <ele>506</ele>
        <time>2021-11-20T12:50:32.000Z</time>
      </trkpt>
      <trkpt lat="43.73812" lon="3.50913">
        <ele>505</ele>
        <time>2021-11-20T12:50:41.000Z</time>
      </trkpt>
      <trkpt lat="43.73817" lon="3.50907">
        <ele>504</ele>
        <time>2021-11-20T12:50:47.000Z</time>
      </trkpt>
      <trkpt lat="43.73822" lon="3.50902">
        <ele>504</ele>
        <time>2021-11-20T12:50:52.000Z</time>
      </trkpt>
      <trkpt lat="43.73827" lon="3.50898">
        <ele>504</ele>
        <time>2021-11-20T12:50:58.000Z</time>
      </trkpt>
      <trkpt lat="43.73832" lon="3.50895">
        <ele>503</ele>
        <time>2021-11-20T12:51:03.000Z</time>
      </trkpt>
      <trkpt lat="43.73836" lon="3.50886">
        <ele>503</ele>
        <time>2021-11-20T12:51:09.000Z</time>
      </trkpt>
      <trkpt lat="43.73838" lon="3.50878">
        <ele>503</ele>
        <time>2021-11-20T12:51:15.000Z</time>
      </trkpt>
      <trkpt lat="43.7384" lon="3.50874">
        <ele>502</ele>
        <time>2021-11-20T12:51:20.000Z</time>
      </trkpt>
      <trkpt lat="43.73844" lon="3.5087">
        <ele>502</ele>
        <time>2021-11-20T12:51:26.000Z</time>
      </trkpt>
      <trkpt lat="43.73848" lon="3.50866">
        <ele>502</ele>
        <time>2021-11-20T12:51:31.000Z</time>
      </trkpt>
      <trkpt lat="43.73851" lon="3.50861">
        <ele>502</ele>
        <time>2021-11-20T12:51:36.000Z</time>
      </trkpt>
      <trkpt lat="43.73856" lon="3.5086">
        <ele>501</ele>
        <time>2021-11-20T12:51:39.000Z</time>
      </trkpt>
      <trkpt lat="43.73861" lon="3.50861">
        <ele>501</ele>
        <time>2021-11-20T12:51:43.000Z</time>
      </trkpt>
      <trkpt lat="43.73866" lon="3.50862">
        <ele>501</ele>
        <time>2021-11-20T12:51:46.000Z</time>
      </trkpt>
      <trkpt lat="43.73871" lon="3.50864">
        <ele>501</ele>
        <time>2021-11-20T12:51:49.000Z</time>
      </trkpt>
      <trkpt lat="43.73876" lon="3.50866">
        <ele>501</ele>
        <time>2021-11-20T12:51:53.000Z</time>
      </trkpt>
      <trkpt lat="43.73881" lon="3.50867">
        <ele>501</ele>
        <time>2021-11-20T12:51:58.000Z</time>
      </trkpt>
      <trkpt lat="43.73885" lon="3.50869">
        <ele>501</ele>
        <time>2021-11-20T12:52:02.000Z</time>
      </trkpt>
      <trkpt lat="43.7389" lon="3.50871">
        <ele>501</ele>
        <time>2021-11-20T12:52:06.000Z</time>
      </trkpt>
      <trkpt lat="43.73898" lon="3.5087">
        <ele>501</ele>
        <time>2021-11-20T12:52:13.000Z</time>
      </trkpt>
      <trkpt lat="43.73906" lon="3.50866">
        <ele>501</ele>
        <time>2021-11-20T12:52:20.000Z</time>
      </trkpt>
      <trkpt lat="43.73911" lon="3.50863">
        <ele>502</ele>
        <time>2021-11-20T12:52:27.000Z</time>
      </trkpt>
      <trkpt lat="43.73915" lon="3.50859">
        <ele>502</ele>
        <time>2021-11-20T12:52:34.000Z</time>
      </trkpt>
      <trkpt lat="43.73921" lon="3.50855">
        <ele>503</ele>
        <time>2021-11-20T12:52:40.000Z</time>
      </trkpt>
      <trkpt lat="43.73926" lon="3.5085">
        <ele>503</ele>
        <time>2021-11-20T12:52:47.000Z</time>
      </trkpt>
      <trkpt lat="43.7393" lon="3.50848">
        <ele>503</ele>
        <time>2021-11-20T12:52:50.000Z</time>
      </trkpt>
      <trkpt lat="43.73933" lon="3.50847">
        <ele>503</ele>
        <time>2021-11-20T12:52:53.000Z</time>
      </trkpt>
      <trkpt lat="43.73936" lon="3.50847">
        <ele>503</ele>
        <time>2021-11-20T12:52:55.000Z</time>
      </trkpt>
      <trkpt lat="43.73938" lon="3.50846">
        <ele>503</ele>
        <time>2021-11-20T12:52:58.000Z</time>
      </trkpt>
      <trkpt lat="43.73944" lon="3.50845">
        <ele>503</ele>
        <time>2021-11-20T12:53:09.000Z</time>
      </trkpt>
      <trkpt lat="43.73953" lon="3.50843">
        <ele>503</ele>
        <time>2021-11-20T12:53:19.000Z</time>
      </trkpt>
      <trkpt lat="43.73962" lon="3.50841">
        <ele>503</ele>
        <time>2021-11-20T12:53:30.000Z</time>
      </trkpt>
      <trkpt lat="43.73972" lon="3.50838">
        <ele>502</ele>
        <time>2021-11-20T12:53:40.000Z</time>
      </trkpt>
      <trkpt lat="43.73986" lon="3.50825">
        <ele>502</ele>
        <time>2021-11-20T12:53:53.000Z</time>
      </trkpt>
      <trkpt lat="43.73999" lon="3.50808">
        <ele>502</ele>
        <time>2021-11-20T12:54:05.000Z</time>
      </trkpt>
      <trkpt lat="43.74005" lon="3.508">
        <ele>503</ele>
        <time>2021-11-20T12:54:33.000Z</time>
      </trkpt>
      <trkpt lat="43.7401" lon="3.50791">
        <ele>503</ele>
        <time>2021-11-20T12:55:00.000Z</time>
      </trkpt>
      <trkpt lat="43.74016" lon="3.50781">
        <ele>503</ele>
        <time>2021-11-20T12:55:28.000Z</time>
      </trkpt>
      <trkpt lat="43.7402" lon="3.50772">
        <ele>504</ele>
        <time>2021-11-20T12:55:55.000Z</time>
      </trkpt>
      <trkpt lat="43.74018" lon="3.50767">
        <ele>503</ele>
        <time>2021-11-20T12:56:10.000Z</time>
      </trkpt>
      <trkpt lat="43.74013" lon="3.50763">
        <ele>502</ele>
        <time>2021-11-20T12:56:25.000Z</time>
      </trkpt>
      <trkpt lat="43.74006" lon="3.50761">
        <ele>501</ele>
        <time>2021-11-20T12:56:40.000Z</time>
      </trkpt>
      <trkpt lat="43.73997" lon="3.5076">
        <ele>499</ele>
        <time>2021-11-20T12:56:55.000Z</time>
      </trkpt>
      <trkpt lat="43.73992" lon="3.50756">
        <ele>498</ele>
        <time>2021-11-20T12:57:01.000Z</time>
      </trkpt>
      <trkpt lat="43.73988" lon="3.50753">
        <ele>497</ele>
        <time>2021-11-20T12:57:07.000Z</time>
      </trkpt>
      <trkpt lat="43.73983" lon="3.50749">
        <ele>495</ele>
        <time>2021-11-20T12:57:12.000Z</time>
      </trkpt>
      <trkpt lat="43.73979" lon="3.50745">
        <ele>494</ele>
        <time>2021-11-20T12:57:18.000Z</time>
      </trkpt>
      <trkpt lat="43.73977" lon="3.50744">
        <ele>493</ele>
        <time>2021-11-20T12:57:21.000Z</time>
      </trkpt>
      <trkpt lat="43.73975" lon="3.50745">
        <ele>493</ele>
        <time>2021-11-20T12:57:24.000Z</time>
      </trkpt>
      <trkpt lat="43.73974" lon="3.50746">
        <ele>492</ele>
        <time>2021-11-20T12:57:26.000Z</time>
      </trkpt>
      <trkpt lat="43.73973" lon="3.50748">
        <ele>492</ele>
        <time>2021-11-20T12:57:29.000Z</time>
      </trkpt>
      <trkpt lat="43.73974" lon="3.50749">
        <ele>492</ele>
        <time>2021-11-20T12:57:37.000Z</time>
      </trkpt>
      <trkpt lat="43.73976" lon="3.5075">
        <ele>492</ele>
        <time>2021-11-20T12:57:46.000Z</time>
      </trkpt>
      <trkpt lat="43.73979" lon="3.50751">
        <ele>492</ele>
        <time>2021-11-20T12:57:54.000Z</time>
      </trkpt>
      <trkpt lat="43.73982" lon="3.50752">
        <ele>492</ele>
        <time>2021-11-20T12:58:02.000Z</time>
      </trkpt>
      <trkpt lat="43.73981" lon="3.50748">
        <ele>492</ele>
        <time>2021-11-20T12:58:25.000Z</time>
      </trkpt>
      <trkpt lat="43.73978" lon="3.50742">
        <ele>491</ele>
        <time>2021-11-20T12:58:49.000Z</time>
      </trkpt>
      <trkpt lat="43.73975" lon="3.50734">
        <ele>489</ele>
        <time>2021-11-20T12:59:12.000Z</time>
      </trkpt>
      <trkpt lat="43.73972" lon="3.50726">
        <ele>488</ele>
        <time>2021-11-20T12:59:35.000Z</time>
      </trkpt>
      <trkpt lat="43.73969" lon="3.50716">
        <ele>487</ele>
        <time>2021-11-20T12:59:44.000Z</time>
      </trkpt>
      <trkpt lat="43.73965" lon="3.50705">
        <ele>487</ele>
        <time>2021-11-20T12:59:52.000Z</time>
      </trkpt>
      <trkpt lat="43.73961" lon="3.50693">
        <ele>487</ele>
        <time>2021-11-20T13:00:01.000Z</time>
      </trkpt>
      <trkpt lat="43.73957" lon="3.50681">
        <ele>486</ele>
        <time>2021-11-20T13:00:09.000Z</time>
      </trkpt>
      <trkpt lat="43.73954" lon="3.50676">
        <ele>486</ele>
        <time>2021-11-20T13:00:12.000Z</time>
      </trkpt>
      <trkpt lat="43.73953" lon="3.50673">
        <ele>486</ele>
        <time>2021-11-20T13:00:15.000Z</time>
      </trkpt>
      <trkpt lat="43.73952" lon="3.50671">
        <ele>486</ele>
        <time>2021-11-20T13:00:18.000Z</time>
      </trkpt>
      <trkpt lat="43.73951" lon="3.50671">
        <ele>486</ele>
        <time>2021-11-20T13:00:21.000Z</time>
      </trkpt>
      <trkpt lat="43.73949" lon="3.50671">
        <ele>486</ele>
        <time>2021-11-20T13:00:24.000Z</time>
      </trkpt>
      <trkpt lat="43.73947" lon="3.50673">
        <ele>486</ele>
        <time>2021-11-20T13:00:28.000Z</time>
      </trkpt>
      <trkpt lat="43.73946" lon="3.50676">
        <ele>485</ele>
        <time>2021-11-20T13:00:31.000Z</time>
      </trkpt>
      <trkpt lat="43.73944" lon="3.50679">
        <ele>485</ele>
        <time>2021-11-20T13:00:34.000Z</time>
      </trkpt>
      <trkpt lat="43.7394" lon="3.50681">
        <ele>484</ele>
        <time>2021-11-20T13:00:39.000Z</time>
      </trkpt>
      <trkpt lat="43.73934" lon="3.50684">
        <ele>483</ele>
        <time>2021-11-20T13:00:44.000Z</time>
      </trkpt>
      <trkpt lat="43.73928" lon="3.50687">
        <ele>481</ele>
        <time>2021-11-20T13:00:49.000Z</time>
      </trkpt>
      <trkpt lat="43.73921" lon="3.5069">
        <ele>480</ele>
        <time>2021-11-20T13:00:54.000Z</time>
      </trkpt>
      <trkpt lat="43.73917" lon="3.50691">
        <ele>479</ele>
        <time>2021-11-20T13:00:57.000Z</time>
      </trkpt>
      <trkpt lat="43.73914" lon="3.50691">
        <ele>478</ele>
        <time>2021-11-20T13:00:59.000Z</time>
      </trkpt>
      <trkpt lat="43.73911" lon="3.50691">
        <ele>477</ele>
        <time>2021-11-20T13:01:02.000Z</time>
      </trkpt>
      <trkpt lat="43.73908" lon="3.5069">
        <ele>477</ele>
        <time>2021-11-20T13:01:04.000Z</time>
      </trkpt>
      <trkpt lat="43.73904" lon="3.50688">
        <ele>476</ele>
        <time>2021-11-20T13:01:07.000Z</time>
      </trkpt>
      <trkpt lat="43.73901" lon="3.50684">
        <ele>475</ele>
        <time>2021-11-20T13:01:10.000Z</time>
      </trkpt>
      <trkpt lat="43.73901" lon="3.50683">
        <ele>474</ele>
        <time>2021-11-20T13:01:19.000Z</time>
      </trkpt>
      <trkpt lat="43.73901" lon="3.50682">
        <ele>474</ele>
        <time>2021-11-20T13:01:28.000Z</time>
      </trkpt>
      <trkpt lat="43.73902" lon="3.50681">
        <ele>474</ele>
        <time>2021-11-20T13:01:36.000Z</time>
      </trkpt>
      <trkpt lat="43.73903" lon="3.5068">
        <ele>474</ele>
        <time>2021-11-20T13:01:45.000Z</time>
      </trkpt>
      <trkpt lat="43.73901" lon="3.50678">
        <ele>473</ele>
        <time>2021-11-20T13:01:49.000Z</time>
      </trkpt>
      <trkpt lat="43.73898" lon="3.50676">
        <ele>473</ele>
        <time>2021-11-20T13:01:52.000Z</time>
      </trkpt>
      <trkpt lat="43.73893" lon="3.50674">
        <ele>472</ele>
        <time>2021-11-20T13:01:56.000Z</time>
      </trkpt>
      <trkpt lat="43.73889" lon="3.50672">
        <ele>472</ele>
        <time>2021-11-20T13:01:59.000Z</time>
      </trkpt>
      <trkpt lat="43.73886" lon="3.50671">
        <ele>472</ele>
        <time>2021-11-20T13:02:01.000Z</time>
      </trkpt>
      <trkpt lat="43.73884" lon="3.50669">
        <ele>471</ele>
        <time>2021-11-20T13:02:04.000Z</time>
      </trkpt>
      <trkpt lat="43.73882" lon="3.50667">
        <ele>471</ele>
        <time>2021-11-20T13:02:06.000Z</time>
      </trkpt>
      <trkpt lat="43.73881" lon="3.50665">
        <ele>471</ele>
        <time>2021-11-20T13:02:08.000Z</time>
      </trkpt>
      <trkpt lat="43.73881" lon="3.50665">
        <ele>470</ele>
        <time>2021-11-20T13:02:18.000Z</time>
      </trkpt>
      <trkpt lat="43.73882" lon="3.50667">
        <ele>470</ele>
        <time>2021-11-20T13:02:29.000Z</time>
      </trkpt>
      <trkpt lat="43.73884" lon="3.50669">
        <ele>470</ele>
        <time>2021-11-20T13:02:39.000Z</time>
      </trkpt>
      <trkpt lat="43.73886" lon="3.50672">
        <ele>470</ele>
        <time>2021-11-20T13:02:49.000Z</time>
      </trkpt>
      <trkpt lat="43.73886" lon="3.50673">
        <ele>470</ele>
        <time>2021-11-20T13:02:53.000Z</time>
      </trkpt>
      <trkpt lat="43.73886" lon="3.50674">
        <ele>470</ele>
        <time>2021-11-20T13:02:57.000Z</time>
      </trkpt>
      <trkpt lat="43.73885" lon="3.50675">
        <ele>470</ele>
        <time>2021-11-20T13:03:01.000Z</time>
      </trkpt>
      <trkpt lat="43.73884" lon="3.50675">
        <ele>470</ele>
        <time>2021-11-20T13:03:05.000Z</time>
      </trkpt>
      <trkpt lat="43.73882" lon="3.50674">
        <ele>469</ele>
        <time>2021-11-20T13:03:11.000Z</time>
      </trkpt>
      <trkpt lat="43.73881" lon="3.50671">
        <ele>469</ele>
        <time>2021-11-20T13:03:17.000Z</time>
      </trkpt>
      <trkpt lat="43.73879" lon="3.50668">
        <ele>469</ele>
        <time>2021-11-20T13:03:22.000Z</time>
      </trkpt>
      <trkpt lat="43.73877" lon="3.50664">
        <ele>469</ele>
        <time>2021-11-20T13:03:28.000Z</time>
      </trkpt>
      <trkpt lat="43.73875" lon="3.50658">
        <ele>468</ele>
        <time>2021-11-20T13:03:33.000Z</time>
      </trkpt>
      <trkpt lat="43.73873" lon="3.5065">
        <ele>468</ele>
        <time>2021-11-20T13:03:39.000Z</time>
      </trkpt>
      <trkpt lat="43.7387" lon="3.50642">
        <ele>467</ele>
        <time>2021-11-20T13:03:44.000Z</time>
      </trkpt>
      <trkpt lat="43.73868" lon="3.50633">
        <ele>466</ele>
        <time>2021-11-20T13:03:49.000Z</time>
      </trkpt>
      <trkpt lat="43.7386" lon="3.50622">
        <ele>465</ele>
        <time>2021-11-20T13:04:01.000Z</time>
      </trkpt>
      <trkpt lat="43.7385" lon="3.50614">
        <ele>464</ele>
        <time>2021-11-20T13:04:12.000Z</time>
      </trkpt>
      <trkpt lat="43.73846" lon="3.50611">
        <ele>464</ele>
        <time>2021-11-20T13:04:15.000Z</time>
      </trkpt>
      <trkpt lat="43.73843" lon="3.5061">
        <ele>464</ele>
        <time>2021-11-20T13:04:18.000Z</time>
      </trkpt>
      <trkpt lat="43.7384" lon="3.50609">
        <ele>464</ele>
        <time>2021-11-20T13:04:20.000Z</time>
      </trkpt>
      <trkpt lat="43.73838" lon="3.50608">
        <ele>464</ele>
        <time>2021-11-20T13:04:23.000Z</time>
      </trkpt>
      <trkpt lat="43.73833" lon="3.5061">
        <ele>464</ele>
        <time>2021-11-20T13:04:30.000Z</time>
      </trkpt>
      <trkpt lat="43.73828" lon="3.50614">
        <ele>464</ele>
        <time>2021-11-20T13:04:37.000Z</time>
      </trkpt>
      <trkpt lat="43.73822" lon="3.50619">
        <ele>464</ele>
        <time>2021-11-20T13:04:43.000Z</time>
      </trkpt>
      <trkpt lat="43.73816" lon="3.50625">
        <ele>463</ele>
        <time>2021-11-20T13:04:50.000Z</time>
      </trkpt>
      <trkpt lat="43.73812" lon="3.50625">
        <ele>463</ele>
        <time>2021-11-20T13:04:53.000Z</time>
      </trkpt>
      <trkpt lat="43.73809" lon="3.50624">
        <ele>463</ele>
        <time>2021-11-20T13:04:57.000Z</time>
      </trkpt>
      <trkpt lat="43.73806" lon="3.50622">
        <ele>463</ele>
        <time>2021-11-20T13:05:00.000Z</time>
      </trkpt>
      <trkpt lat="43.73804" lon="3.50619">
        <ele>462</ele>
        <time>2021-11-20T13:05:03.000Z</time>
      </trkpt>
      <trkpt lat="43.73797" lon="3.50619">
        <ele>463</ele>
        <time>2021-11-20T13:05:13.000Z</time>
      </trkpt>
      <trkpt lat="43.73788" lon="3.5062">
        <ele>465</ele>
        <time>2021-11-20T13:05:23.000Z</time>
      </trkpt>
      <trkpt lat="43.73779" lon="3.50621">
        <ele>466</ele>
        <time>2021-11-20T13:05:32.000Z</time>
      </trkpt>
      <trkpt lat="43.73769" lon="3.50623">
        <ele>468</ele>
        <time>2021-11-20T13:05:42.000Z</time>
      </trkpt>
      <trkpt lat="43.73757" lon="3.50616">
        <ele>472</ele>
        <time>2021-11-20T13:07:23.000Z</time>
      </trkpt>
      <trkpt lat="43.73748" lon="3.50604">
        <ele>477</ele>
        <time>2021-11-20T13:09:03.000Z</time>
      </trkpt>
      <trkpt lat="43.73743" lon="3.50604">
        <ele>477</ele>
        <time>2021-11-20T13:09:13.000Z</time>
      </trkpt>
      <trkpt lat="43.7374" lon="3.50606">
        <ele>477</ele>
        <time>2021-11-20T13:09:24.000Z</time>
      </trkpt>
      <trkpt lat="43.73738" lon="3.50609">
        <ele>477</ele>
        <time>2021-11-20T13:09:34.000Z</time>
      </trkpt>
      <trkpt lat="43.73735" lon="3.50613">
        <ele>476</ele>
        <time>2021-11-20T13:09:44.000Z</time>
      </trkpt>
      <trkpt lat="43.73732" lon="3.50616">
        <ele>476</ele>
        <time>2021-11-20T13:09:48.000Z</time>
      </trkpt>
      <trkpt lat="43.73729" lon="3.50619">
        <ele>476</ele>
        <time>2021-11-20T13:09:51.000Z</time>
      </trkpt>
      <trkpt lat="43.73727" lon="3.50622">
        <ele>476</ele>
        <time>2021-11-20T13:09:55.000Z</time>
      </trkpt>
      <trkpt lat="43.73724" lon="3.50625">
        <ele>475</ele>
        <time>2021-11-20T13:09:58.000Z</time>
      </trkpt>
      <trkpt lat="43.73714" lon="3.50627">
        <ele>475</ele>
        <time>2021-11-20T13:10:10.000Z</time>
      </trkpt>
      <trkpt lat="43.73703" lon="3.50629">
        <ele>474</ele>
        <time>2021-11-20T13:10:21.000Z</time>
      </trkpt>
      <trkpt lat="43.73696" lon="3.5063">
        <ele>473</ele>
        <time>2021-11-20T13:10:28.000Z</time>
      </trkpt>
      <trkpt lat="43.73687" lon="3.50631">
        <ele>472</ele>
        <time>2021-11-20T13:10:35.000Z</time>
      </trkpt>
      <trkpt lat="43.73678" lon="3.50633">
        <ele>472</ele>
        <time>2021-11-20T13:10:42.000Z</time>
      </trkpt>
      <trkpt lat="43.73668" lon="3.50635">
        <ele>471</ele>
        <time>2021-11-20T13:10:49.000Z</time>
      </trkpt>
      <trkpt lat="43.73661" lon="3.50641">
        <ele>471</ele>
        <time>2021-11-20T13:10:58.000Z</time>
      </trkpt>
      <trkpt lat="43.73655" lon="3.50649">
        <ele>470</ele>
        <time>2021-11-20T13:11:07.000Z</time>
      </trkpt>
      <trkpt lat="43.73648" lon="3.50658">
        <ele>469</ele>
        <time>2021-11-20T13:11:15.000Z</time>
      </trkpt>
      <trkpt lat="43.73643" lon="3.50668">
        <ele>469</ele>
        <time>2021-11-20T13:11:24.000Z</time>
      </trkpt>
      <trkpt lat="43.73638" lon="3.50676">
        <ele>468</ele>
        <time>2021-11-20T13:11:30.000Z</time>
      </trkpt>
      <trkpt lat="43.73633" lon="3.50683">
        <ele>468</ele>
        <time>2021-11-20T13:11:37.000Z</time>
      </trkpt>
      <trkpt lat="43.73629" lon="3.5069">
        <ele>467</ele>
        <time>2021-11-20T13:11:43.000Z</time>
      </trkpt>
      <trkpt lat="43.73626" lon="3.50696">
        <ele>467</ele>
        <time>2021-11-20T13:11:49.000Z</time>
      </trkpt>
      <trkpt lat="43.73623" lon="3.507">
        <ele>466</ele>
        <time>2021-11-20T13:11:52.000Z</time>
      </trkpt>
      <trkpt lat="43.73621" lon="3.50701">
        <ele>466</ele>
        <time>2021-11-20T13:11:54.000Z</time>
      </trkpt>
      <trkpt lat="43.73619" lon="3.50702">
        <ele>466</ele>
        <time>2021-11-20T13:11:57.000Z</time>
      </trkpt>
      <trkpt lat="43.73618" lon="3.50702">
        <ele>466</ele>
        <time>2021-11-20T13:11:59.000Z</time>
      </trkpt>
      <trkpt lat="43.73612" lon="3.50707">
        <ele>466</ele>
        <time>2021-11-20T13:12:08.000Z</time>
      </trkpt>
      <trkpt lat="43.73605" lon="3.50714">
        <ele>465</ele>
        <time>2021-11-20T13:12:18.000Z</time>
      </trkpt>
      <trkpt lat="43.73597" lon="3.50722">
        <ele>464</ele>
        <time>2021-11-20T13:12:27.000Z</time>
      </trkpt>
      <trkpt lat="43.73588" lon="3.5073">
        <ele>464</ele>
        <time>2021-11-20T13:12:36.000Z</time>
      </trkpt>
      <trkpt lat="43.73571" lon="3.50737">
        <ele>462</ele>
        <time>2021-11-20T13:12:56.000Z</time>
      </trkpt>
      <trkpt lat="43.73553" lon="3.5074">
        <ele>461</ele>
        <time>2021-11-20T13:13:15.000Z</time>
      </trkpt>
      <trkpt lat="43.73547" lon="3.5074">
        <ele>460</ele>
        <time>2021-11-20T13:13:22.000Z</time>
      </trkpt>
      <trkpt lat="43.73542" lon="3.5074">
        <ele>460</ele>
        <time>2021-11-20T13:13:30.000Z</time>
      </trkpt>
      <trkpt lat="43.73538" lon="3.50739">
        <ele>460</ele>
        <time>2021-11-20T13:13:37.000Z</time>
      </trkpt>
      <trkpt lat="43.73534" lon="3.50738">
        <ele>460</ele>
        <time>2021-11-20T13:13:44.000Z</time>
      </trkpt>
      <trkpt lat="43.7353" lon="3.50736">
        <ele>459</ele>
        <time>2021-11-20T13:13:49.000Z</time>
      </trkpt>
      <trkpt lat="43.73526" lon="3.50734">
        <ele>459</ele>
        <time>2021-11-20T13:13:53.000Z</time>
      </trkpt>
      <trkpt lat="43.73522" lon="3.50731">
        <ele>459</ele>
        <time>2021-11-20T13:13:58.000Z</time>
      </trkpt>
      <trkpt lat="43.73518" lon="3.50729">
        <ele>459</ele>
        <time>2021-11-20T13:14:02.000Z</time>
      </trkpt>
      <trkpt lat="43.7351" lon="3.50725">
        <ele>458</ele>
        <time>2021-11-20T13:14:12.000Z</time>
      </trkpt>
      <trkpt lat="43.73502" lon="3.50721">
        <ele>457</ele>
        <time>2021-11-20T13:14:21.000Z</time>
      </trkpt>
      <trkpt lat="43.73494" lon="3.50717">
        <ele>456</ele>
        <time>2021-11-20T13:14:31.000Z</time>
      </trkpt>
      <trkpt lat="43.73484" lon="3.50712">
        <ele>455</ele>
        <time>2021-11-20T13:14:40.000Z</time>
      </trkpt>
      <trkpt lat="43.73476" lon="3.5071">
        <ele>455</ele>
        <time>2021-11-20T13:14:46.000Z</time>
      </trkpt>
      <trkpt lat="43.73467" lon="3.50708">
        <ele>454</ele>
        <time>2021-11-20T13:14:52.000Z</time>
      </trkpt>
      <trkpt lat="43.73458" lon="3.50706">
        <ele>454</ele>
        <time>2021-11-20T13:14:58.000Z</time>
      </trkpt>
      <trkpt lat="43.7345" lon="3.50705">
        <ele>454</ele>
        <time>2021-11-20T13:15:04.000Z</time>
      </trkpt>
      <trkpt lat="43.73442" lon="3.50701">
        <ele>454</ele>
        <time>2021-11-20T13:15:11.000Z</time>
      </trkpt>
      <trkpt lat="43.73434" lon="3.50696">
        <ele>454</ele>
        <time>2021-11-20T13:15:19.000Z</time>
      </trkpt>
      <trkpt lat="43.73426" lon="3.50691">
        <ele>454</ele>
        <time>2021-11-20T13:15:26.000Z</time>
      </trkpt>
      <trkpt lat="43.73418" lon="3.50686">
        <ele>454</ele>
        <time>2021-11-20T13:15:33.000Z</time>
      </trkpt>
      <trkpt lat="43.73401" lon="3.50686">
        <ele>453</ele>
        <time>2021-11-20T13:15:53.000Z</time>
      </trkpt>
      <trkpt lat="43.73383" lon="3.5069">
        <ele>451</ele>
        <time>2021-11-20T13:16:13.000Z</time>
      </trkpt>
      <trkpt lat="43.73375" lon="3.50689">
        <ele>450</ele>
        <time>2021-11-20T13:16:23.000Z</time>
      </trkpt>
      <trkpt lat="43.73367" lon="3.50687">
        <ele>449</ele>
        <time>2021-11-20T13:16:33.000Z</time>
      </trkpt>
      <trkpt lat="43.73358" lon="3.50685">
        <ele>448</ele>
        <time>2021-11-20T13:16:42.000Z</time>
      </trkpt>
      <trkpt lat="43.7335" lon="3.50682">
        <ele>447</ele>
        <time>2021-11-20T13:16:52.000Z</time>
      </trkpt>
      <trkpt lat="43.73341" lon="3.50679">
        <ele>446</ele>
        <time>2021-11-20T13:17:00.000Z</time>
      </trkpt>
      <trkpt lat="43.73333" lon="3.50675">
        <ele>445</ele>
        <time>2021-11-20T13:17:08.000Z</time>
      </trkpt>
      <trkpt lat="43.73325" lon="3.50671">
        <ele>444</ele>
        <time>2021-11-20T13:17:15.000Z</time>
      </trkpt>
      <trkpt lat="43.73317" lon="3.50667">
        <ele>443</ele>
        <time>2021-11-20T13:17:23.000Z</time>
      </trkpt>
      <trkpt lat="43.73309" lon="3.50663">
        <ele>442</ele>
        <time>2021-11-20T13:17:31.000Z</time>
      </trkpt>
      <trkpt lat="43.73301" lon="3.50659">
        <ele>442</ele>
        <time>2021-11-20T13:17:40.000Z</time>
      </trkpt>
      <trkpt lat="43.73292" lon="3.50655">
        <ele>441</ele>
        <time>2021-11-20T13:17:48.000Z</time>
      </trkpt>
      <trkpt lat="43.73284" lon="3.50651">
        <ele>440</ele>
        <time>2021-11-20T13:17:56.000Z</time>
      </trkpt>
      <trkpt lat="43.73278" lon="3.50647">
        <ele>439</ele>
        <time>2021-11-20T13:18:02.000Z</time>
      </trkpt>
      <trkpt lat="43.73273" lon="3.50643">
        <ele>439</ele>
        <time>2021-11-20T13:18:08.000Z</time>
      </trkpt>
      <trkpt lat="43.73268" lon="3.50639">
        <ele>438</ele>
        <time>2021-11-20T13:18:13.000Z</time>
      </trkpt>
      <trkpt lat="43.73263" lon="3.50635">
        <ele>438</ele>
        <time>2021-11-20T13:18:19.000Z</time>
      </trkpt>
      <trkpt lat="43.73256" lon="3.50634">
        <ele>437</ele>
        <time>2021-11-20T13:18:27.000Z</time>
      </trkpt>
      <trkpt lat="43.73251" lon="3.50636">
        <ele>437</ele>
        <time>2021-11-20T13:18:34.000Z</time>
      </trkpt>
      <trkpt lat="43.73245" lon="3.5064">
        <ele>436</ele>
        <time>2021-11-20T13:18:58.000Z</time>
      </trkpt>
      <trkpt lat="43.7324" lon="3.50646">
        <ele>435</ele>
        <time>2021-11-20T13:19:21.000Z</time>
      </trkpt>
      <trkpt lat="43.7323" lon="3.50648">
        <ele>434</ele>
        <time>2021-11-20T13:19:33.000Z</time>
      </trkpt>
      <trkpt lat="43.73217" lon="3.50647">
        <ele>432</ele>
        <time>2021-11-20T13:19:45.000Z</time>
      </trkpt>
      <trkpt lat="43.73209" lon="3.50646">
        <ele>431</ele>
        <time>2021-11-20T13:19:52.000Z</time>
      </trkpt>
      <trkpt lat="43.73201" lon="3.50644">
        <ele>430</ele>
        <time>2021-11-20T13:19:59.000Z</time>
      </trkpt>
      <trkpt lat="43.73193" lon="3.50642">
        <ele>430</ele>
        <time>2021-11-20T13:20:05.000Z</time>
      </trkpt>
      <trkpt lat="43.73184" lon="3.5064">
        <ele>429</ele>
        <time>2021-11-20T13:20:12.000Z</time>
      </trkpt>
      <trkpt lat="43.73176" lon="3.50637">
        <ele>428</ele>
        <time>2021-11-20T13:20:18.000Z</time>
      </trkpt>
      <trkpt lat="43.73167" lon="3.50633">
        <ele>427</ele>
        <time>2021-11-20T13:20:25.000Z</time>
      </trkpt>
      <trkpt lat="43.73159" lon="3.50629">
        <ele>426</ele>
        <time>2021-11-20T13:20:31.000Z</time>
      </trkpt>
      <trkpt lat="43.7315" lon="3.50625">
        <ele>425</ele>
        <time>2021-11-20T13:20:37.000Z</time>
      </trkpt>
      <trkpt lat="43.73142" lon="3.50622">
        <ele>425</ele>
        <time>2021-11-20T13:20:44.000Z</time>
      </trkpt>
      <trkpt lat="43.73133" lon="3.50618">
        <ele>424</ele>
        <time>2021-11-20T13:20:51.000Z</time>
      </trkpt>
      <trkpt lat="43.73125" lon="3.50614">
        <ele>423</ele>
        <time>2021-11-20T13:20:58.000Z</time>
      </trkpt>
      <trkpt lat="43.73117" lon="3.50611">
        <ele>422</ele>
        <time>2021-11-20T13:21:05.000Z</time>
      </trkpt>
      <trkpt lat="43.73109" lon="3.50608">
        <ele>421</ele>
        <time>2021-11-20T13:21:13.000Z</time>
      </trkpt>
      <trkpt lat="43.73101" lon="3.50605">
        <ele>421</ele>
        <time>2021-11-20T13:21:21.000Z</time>
      </trkpt>
      <trkpt lat="43.73092" lon="3.50602">
        <ele>420</ele>
        <time>2021-11-20T13:21:29.000Z</time>
      </trkpt>
      <trkpt lat="43.73083" lon="3.50599">
        <ele>419</ele>
        <time>2021-11-20T13:21:37.000Z</time>
      </trkpt>
      <trkpt lat="43.73075" lon="3.50595">
        <ele>418</ele>
        <time>2021-11-20T13:21:44.000Z</time>
      </trkpt>
      <trkpt lat="43.73068" lon="3.5059">
        <ele>417</ele>
        <time>2021-11-20T13:21:52.000Z</time>
      </trkpt>
      <trkpt lat="43.73061" lon="3.50584">
        <ele>416</ele>
        <time>2021-11-20T13:21:59.000Z</time>
      </trkpt>
      <trkpt lat="43.73054" lon="3.50578">
        <ele>415</ele>
        <time>2021-11-20T13:22:06.000Z</time>
      </trkpt>
      <trkpt lat="43.73047" lon="3.50569">
        <ele>414</ele>
        <time>2021-11-20T13:22:12.000Z</time>
      </trkpt>
      <trkpt lat="43.73045" lon="3.5056">
        <ele>414</ele>
        <time>2021-11-20T13:22:17.000Z</time>
      </trkpt>
      <trkpt lat="43.73044" lon="3.50554">
        <ele>413</ele>
        <time>2021-11-20T13:22:22.000Z</time>
      </trkpt>
      <trkpt lat="43.73043" lon="3.50547">
        <ele>413</ele>
        <time>2021-11-20T13:22:27.000Z</time>
      </trkpt>
      <trkpt lat="43.73042" lon="3.5054">
        <ele>412</ele>
        <time>2021-11-20T13:22:31.000Z</time>
      </trkpt>
      <trkpt lat="43.73041" lon="3.50533">
        <ele>411</ele>
        <time>2021-11-20T13:22:36.000Z</time>
      </trkpt>
      <trkpt lat="43.73039" lon="3.50526">
        <ele>411</ele>
        <time>2021-11-20T13:22:42.000Z</time>
      </trkpt>
      <trkpt lat="43.73036" lon="3.50519">
        <ele>410</ele>
        <time>2021-11-20T13:22:49.000Z</time>
      </trkpt>
      <trkpt lat="43.73034" lon="3.50512">
        <ele>409</ele>
        <time>2021-11-20T13:22:55.000Z</time>
      </trkpt>
      <trkpt lat="43.73031" lon="3.50504">
        <ele>408</ele>
        <time>2021-11-20T13:23:01.000Z</time>
      </trkpt>
      <trkpt lat="43.73028" lon="3.50505">
        <ele>408</ele>
        <time>2021-11-20T13:23:05.000Z</time>
      </trkpt>
      <trkpt lat="43.73025" lon="3.50509">
        <ele>407</ele>
        <time>2021-11-20T13:23:09.000Z</time>
      </trkpt>
      <trkpt lat="43.73021" lon="3.50516">
        <ele>407</ele>
        <time>2021-11-20T13:23:13.000Z</time>
      </trkpt>
      <trkpt lat="43.73018" lon="3.50523">
        <ele>406</ele>
        <time>2021-11-20T13:23:17.000Z</time>
      </trkpt>
      <trkpt lat="43.73012" lon="3.50528">
        <ele>406</ele>
        <time>2021-11-20T13:23:22.000Z</time>
      </trkpt>
      <trkpt lat="43.73005" lon="3.50531">
        <ele>405</ele>
        <time>2021-11-20T13:23:26.000Z</time>
      </trkpt>
      <trkpt lat="43.72999" lon="3.50534">
        <ele>404</ele>
        <time>2021-11-20T13:23:33.000Z</time>
      </trkpt>
      <trkpt lat="43.72991" lon="3.50538">
        <ele>403</ele>
        <time>2021-11-20T13:23:41.000Z</time>
      </trkpt>
      <trkpt lat="43.72982" lon="3.50543">
        <ele>402</ele>
        <time>2021-11-20T13:23:48.000Z</time>
      </trkpt>
      <trkpt lat="43.72973" lon="3.50548">
        <ele>401</ele>
        <time>2021-11-20T13:23:55.000Z</time>
      </trkpt>
      <trkpt lat="43.72964" lon="3.5055">
        <ele>401</ele>
        <time>2021-11-20T13:24:02.000Z</time>
      </trkpt>
      <trkpt lat="43.72956" lon="3.50551">
        <ele>400</ele>
        <time>2021-11-20T13:24:09.000Z</time>
      </trkpt>
      <trkpt lat="43.72947" lon="3.50552">
        <ele>399</ele>
        <time>2021-11-20T13:24:15.000Z</time>
      </trkpt>
      <trkpt lat="43.72939" lon="3.50553">
        <ele>398</ele>
        <time>2021-11-20T13:24:22.000Z</time>
      </trkpt>
      <trkpt lat="43.72932" lon="3.50554">
        <ele>397</ele>
        <time>2021-11-20T13:24:27.000Z</time>
      </trkpt>
      <trkpt lat="43.72926" lon="3.50555">
        <ele>396</ele>
        <time>2021-11-20T13:24:32.000Z</time>
      </trkpt>
      <trkpt lat="43.7292" lon="3.50556">
        <ele>396</ele>
        <time>2021-11-20T13:24:36.000Z</time>
      </trkpt>
      <trkpt lat="43.72914" lon="3.50557">
        <ele>395</ele>
        <time>2021-11-20T13:24:41.000Z</time>
      </trkpt>
      <trkpt lat="43.7291" lon="3.5056">
        <ele>395</ele>
        <time>2021-11-20T13:24:47.000Z</time>
      </trkpt>
      <trkpt lat="43.7291" lon="3.50564">
        <ele>394</ele>
        <time>2021-11-20T13:24:52.000Z</time>
      </trkpt>
      <trkpt lat="43.7291" lon="3.50566">
        <ele>394</ele>
        <time>2021-11-20T13:25:04.000Z</time>
      </trkpt>
      <trkpt lat="43.72911" lon="3.50567">
        <ele>394</ele>
        <time>2021-11-20T13:25:15.000Z</time>
      </trkpt>
      <trkpt lat="43.72913" lon="3.50568">
        <ele>394</ele>
        <time>2021-11-20T13:25:27.000Z</time>
      </trkpt>
      <trkpt lat="43.72915" lon="3.5057">
        <ele>394</ele>
        <time>2021-11-20T13:25:38.000Z</time>
      </trkpt>
      <trkpt lat="43.72915" lon="3.50568">
        <ele>394</ele>
        <time>2021-11-20T13:25:52.000Z</time>
      </trkpt>
      <trkpt lat="43.72913" lon="3.50566">
        <ele>394</ele>
        <time>2021-11-20T13:26:06.000Z</time>
      </trkpt>
      <trkpt lat="43.72912" lon="3.50562">
        <ele>394</ele>
        <time>2021-11-20T13:26:20.000Z</time>
      </trkpt>
      <trkpt lat="43.7291" lon="3.50559">
        <ele>394</ele>
        <time>2021-11-20T13:26:34.000Z</time>
      </trkpt>
      <trkpt lat="43.72915" lon="3.50565">
        <ele>394</ele>
        <time>2021-11-20T13:26:52.000Z</time>
      </trkpt>
      <trkpt lat="43.72923" lon="3.50575">
        <ele>394</ele>
        <time>2021-11-20T13:27:10.000Z</time>
      </trkpt>
      <trkpt lat="43.72932" lon="3.50587">
        <ele>393</ele>
        <time>2021-11-20T13:27:28.000Z</time>
      </trkpt>
      <trkpt lat="43.72942" lon="3.50601">
        <ele>393</ele>
        <time>2021-11-20T13:27:46.000Z</time>
      </trkpt>
      <trkpt lat="43.72949" lon="3.5061">
        <ele>392</ele>
        <time>2021-11-20T13:27:55.000Z</time>
      </trkpt>
      <trkpt lat="43.72955" lon="3.50618">
        <ele>391</ele>
        <time>2021-11-20T13:28:04.000Z</time>
      </trkpt>
      <trkpt lat="43.72962" lon="3.50626">
        <ele>390</ele>
        <time>2021-11-20T13:28:13.000Z</time>
      </trkpt>
      <trkpt lat="43.72968" lon="3.50634">
        <ele>390</ele>
        <time>2021-11-20T13:28:22.000Z</time>
      </trkpt>
      <trkpt lat="43.72972" lon="3.5064">
        <ele>389</ele>
        <time>2021-11-20T13:28:27.000Z</time>
      </trkpt>
      <trkpt lat="43.72974" lon="3.50646">
        <ele>389</ele>
        <time>2021-11-20T13:28:33.000Z</time>
      </trkpt>
      <trkpt lat="43.72976" lon="3.50651">
        <ele>389</ele>
        <time>2021-11-20T13:28:38.000Z</time>
      </trkpt>
      <trkpt lat="43.72977" lon="3.50657">
        <ele>388</ele>
        <time>2021-11-20T13:28:43.000Z</time>
      </trkpt>
      <trkpt lat="43.72977" lon="3.50661">
        <ele>388</ele>
        <time>2021-11-20T13:28:46.000Z</time>
      </trkpt>
      <trkpt lat="43.72976" lon="3.50665">
        <ele>388</ele>
        <time>2021-11-20T13:28:49.000Z</time>
      </trkpt>
      <trkpt lat="43.72974" lon="3.50669">
        <ele>387</ele>
        <time>2021-11-20T13:28:52.000Z</time>
      </trkpt>
      <trkpt lat="43.72972" lon="3.50673">
        <ele>387</ele>
        <time>2021-11-20T13:28:55.000Z</time>
      </trkpt>
      <trkpt lat="43.72966" lon="3.50673">
        <ele>387</ele>
        <time>2021-11-20T13:29:02.000Z</time>
      </trkpt>
      <trkpt lat="43.72958" lon="3.50671">
        <ele>386</ele>
        <time>2021-11-20T13:29:10.000Z</time>
      </trkpt>
      <trkpt lat="43.72949" lon="3.50667">
        <ele>385</ele>
        <time>2021-11-20T13:29:17.000Z</time>
      </trkpt>
      <trkpt lat="43.7294" lon="3.50663">
        <ele>385</ele>
        <time>2021-11-20T13:29:24.000Z</time>
      </trkpt>
      <trkpt lat="43.72932" lon="3.50661">
        <ele>384</ele>
        <time>2021-11-20T13:29:31.000Z</time>
      </trkpt>
      <trkpt lat="43.72925" lon="3.5066">
        <ele>383</ele>
        <time>2021-11-20T13:29:39.000Z</time>
      </trkpt>
      <trkpt lat="43.72919" lon="3.50659">
        <ele>383</ele>
        <time>2021-11-20T13:29:46.000Z</time>
      </trkpt>
      <trkpt lat="43.72912" lon="3.50657">
        <ele>382</ele>
        <time>2021-11-20T13:29:53.000Z</time>
      </trkpt>
      <trkpt lat="43.72909" lon="3.50656">
        <ele>382</ele>
        <time>2021-11-20T13:29:55.000Z</time>
      </trkpt>
      <trkpt lat="43.72907" lon="3.50655">
        <ele>382</ele>
        <time>2021-11-20T13:29:58.000Z</time>
      </trkpt>
      <trkpt lat="43.72906" lon="3.50653">
        <ele>381</ele>
        <time>2021-11-20T13:30:00.000Z</time>
      </trkpt>
      <trkpt lat="43.72905" lon="3.50652">
        <ele>381</ele>
        <time>2021-11-20T13:30:02.000Z</time>
      </trkpt>
      <trkpt lat="43.729" lon="3.50647">
        <ele>381</ele>
        <time>2021-11-20T13:30:13.000Z</time>
      </trkpt>
      <trkpt lat="43.72893" lon="3.5064">
        <ele>381</ele>
        <time>2021-11-20T13:30:24.000Z</time>
      </trkpt>
      <trkpt lat="43.72885" lon="3.50632">
        <ele>380</ele>
        <time>2021-11-20T13:30:34.000Z</time>
      </trkpt>
      <trkpt lat="43.72877" lon="3.50624">
        <ele>380</ele>
        <time>2021-11-20T13:30:45.000Z</time>
      </trkpt>
      <trkpt lat="43.72872" lon="3.50618">
        <ele>380</ele>
        <time>2021-11-20T13:30:50.000Z</time>
      </trkpt>
      <trkpt lat="43.72868" lon="3.50614">
        <ele>379</ele>
        <time>2021-11-20T13:30:55.000Z</time>
      </trkpt>
      <trkpt lat="43.72864" lon="3.50609">
        <ele>379</ele>
        <time>2021-11-20T13:30:59.000Z</time>
      </trkpt>
      <trkpt lat="43.72861" lon="3.50605">
        <ele>379</ele>
        <time>2021-11-20T13:31:04.000Z</time>
      </trkpt>
      <trkpt lat="43.72857" lon="3.50605">
        <ele>379</ele>
        <time>2021-11-20T13:31:09.000Z</time>
      </trkpt>
      <trkpt lat="43.72852" lon="3.50607">
        <ele>379</ele>
        <time>2021-11-20T13:31:14.000Z</time>
      </trkpt>
      <trkpt lat="43.72848" lon="3.5061">
        <ele>380</ele>
        <time>2021-11-20T13:31:19.000Z</time>
      </trkpt>
      <trkpt lat="43.72843" lon="3.50613">
        <ele>380</ele>
        <time>2021-11-20T13:31:24.000Z</time>
      </trkpt>
      <trkpt lat="43.7284" lon="3.50615">
        <ele>380</ele>
        <time>2021-11-20T13:31:26.000Z</time>
      </trkpt>
      <trkpt lat="43.72837" lon="3.50616">
        <ele>380</ele>
        <time>2021-11-20T13:31:29.000Z</time>
      </trkpt>
      <trkpt lat="43.72836" lon="3.50617">
        <ele>380</ele>
        <time>2021-11-20T13:31:31.000Z</time>
      </trkpt>
      <trkpt lat="43.72834" lon="3.50618">
        <ele>380</ele>
        <time>2021-11-20T13:31:33.000Z</time>
      </trkpt>
      <trkpt lat="43.72831" lon="3.50617">
        <ele>380</ele>
        <time>2021-11-20T13:31:36.000Z</time>
      </trkpt>
      <trkpt lat="43.72828" lon="3.50616">
        <ele>380</ele>
        <time>2021-11-20T13:31:38.000Z</time>
      </trkpt>
      <trkpt lat="43.72821" lon="3.50605">
        <ele>379</ele>
        <time>2021-11-20T13:31:50.000Z</time>
      </trkpt>
      <trkpt lat="43.72812" lon="3.5059">
        <ele>378</ele>
        <time>2021-11-20T13:32:02.000Z</time>
      </trkpt>
      <trkpt lat="43.72806" lon="3.50583">
        <ele>378</ele>
        <time>2021-11-20T13:32:11.000Z</time>
      </trkpt>
      <trkpt lat="43.72799" lon="3.50577">
        <ele>377</ele>
        <time>2021-11-20T13:32:21.000Z</time>
      </trkpt>
      <trkpt lat="43.72791" lon="3.5057">
        <ele>377</ele>
        <time>2021-11-20T13:32:30.000Z</time>
      </trkpt>
      <trkpt lat="43.72783" lon="3.50564">
        <ele>377</ele>
        <time>2021-11-20T13:32:39.000Z</time>
      </trkpt>
      <trkpt lat="43.72778" lon="3.5056">
        <ele>377</ele>
        <time>2021-11-20T13:32:44.000Z</time>
      </trkpt>
      <trkpt lat="43.72773" lon="3.50557">
        <ele>377</ele>
        <time>2021-11-20T13:32:48.000Z</time>
      </trkpt>
      <trkpt lat="43.7277" lon="3.50554">
        <ele>378</ele>
        <time>2021-11-20T13:32:53.000Z</time>
      </trkpt>
      <trkpt lat="43.72766" lon="3.50552">
        <ele>378</ele>
        <time>2021-11-20T13:32:57.000Z</time>
      </trkpt>
      <trkpt lat="43.72761" lon="3.50543">
        <ele>377</ele>
        <time>2021-11-20T13:33:07.000Z</time>
      </trkpt>
      <trkpt lat="43.72758" lon="3.50532">
        <ele>377</ele>
        <time>2021-11-20T13:33:16.000Z</time>
      </trkpt>
      <trkpt lat="43.72754" lon="3.50524">
        <ele>376</ele>
        <time>2021-11-20T13:33:23.000Z</time>
      </trkpt>
      <trkpt lat="43.72749" lon="3.50515">
        <ele>376</ele>
        <time>2021-11-20T13:33:30.000Z</time>
      </trkpt>
      <trkpt lat="43.72743" lon="3.50504">
        <ele>376</ele>
        <time>2021-11-20T13:33:37.000Z</time>
      </trkpt>
      <trkpt lat="43.72738" lon="3.50494">
        <ele>376</ele>
        <time>2021-11-20T13:33:44.000Z</time>
      </trkpt>
      <trkpt lat="43.72731" lon="3.50485">
        <ele>375</ele>
        <time>2021-11-20T13:34:01.000Z</time>
      </trkpt>
      <trkpt lat="43.72725" lon="3.50477">
        <ele>375</ele>
        <time>2021-11-20T13:34:18.000Z</time>
      </trkpt>
      <trkpt lat="43.72719" lon="3.50469">
        <ele>375</ele>
        <time>2021-11-20T13:34:35.000Z</time>
      </trkpt>
      <trkpt lat="43.72712" lon="3.50461">
        <ele>374</ele>
        <time>2021-11-20T13:34:52.000Z</time>
      </trkpt>
      <trkpt lat="43.72705" lon="3.50454">
        <ele>374</ele>
        <time>2021-11-20T13:34:58.000Z</time>
      </trkpt>
      <trkpt lat="43.72699" lon="3.50447">
        <ele>374</ele>
        <time>2021-11-20T13:35:04.000Z</time>
      </trkpt>
      <trkpt lat="43.72691" lon="3.50441">
        <ele>374</ele>
        <time>2021-11-20T13:35:10.000Z</time>
      </trkpt>
      <trkpt lat="43.72684" lon="3.50435">
        <ele>373</ele>
        <time>2021-11-20T13:35:16.000Z</time>
      </trkpt>
      <trkpt lat="43.72678" lon="3.5043">
        <ele>373</ele>
        <time>2021-11-20T13:35:20.000Z</time>
      </trkpt>
      <trkpt lat="43.72674" lon="3.50426">
        <ele>373</ele>
        <time>2021-11-20T13:35:25.000Z</time>
      </trkpt>
      <trkpt lat="43.7267" lon="3.50423">
        <ele>373</ele>
        <time>2021-11-20T13:35:29.000Z</time>
      </trkpt>
      <trkpt lat="43.72666" lon="3.50419">
        <ele>372</ele>
        <time>2021-11-20T13:35:33.000Z</time>
      </trkpt>
      <trkpt lat="43.72662" lon="3.50412">
        <ele>372</ele>
        <time>2021-11-20T13:35:39.000Z</time>
      </trkpt>
      <trkpt lat="43.7266" lon="3.50406">
        <ele>372</ele>
        <time>2021-11-20T13:35:44.000Z</time>
      </trkpt>
      <trkpt lat="43.72658" lon="3.50405">
        <ele>371</ele>
        <time>2021-11-20T13:35:48.000Z</time>
      </trkpt>
      <trkpt lat="43.72657" lon="3.50406">
        <ele>371</ele>
        <time>2021-11-20T13:35:52.000Z</time>
      </trkpt>
      <trkpt lat="43.72655" lon="3.50408">
        <ele>371</ele>
        <time>2021-11-20T13:35:56.000Z</time>
      </trkpt>
      <trkpt lat="43.72653" lon="3.5041">
        <ele>371</ele>
        <time>2021-11-20T13:36:00.000Z</time>
      </trkpt>
      <trkpt lat="43.72649" lon="3.50407">
        <ele>371</ele>
        <time>2021-11-20T13:36:11.000Z</time>
      </trkpt>
      <trkpt lat="43.72645" lon="3.50402">
        <ele>371</ele>
        <time>2021-11-20T13:36:21.000Z</time>
      </trkpt>
      <trkpt lat="43.7264" lon="3.50396">
        <ele>370</ele>
        <time>2021-11-20T13:36:32.000Z</time>
      </trkpt>
      <trkpt lat="43.72636" lon="3.50389">
        <ele>370</ele>
        <time>2021-11-20T13:36:42.000Z</time>
      </trkpt>
      <trkpt lat="43.72634" lon="3.50384">
        <ele>370</ele>
        <time>2021-11-20T13:36:48.000Z</time>
      </trkpt>
      <trkpt lat="43.72634" lon="3.50378">
        <ele>370</ele>
        <time>2021-11-20T13:36:54.000Z</time>
      </trkpt>
      <trkpt lat="43.72635" lon="3.50373">
        <ele>370</ele>
        <time>2021-11-20T13:37:00.000Z</time>
      </trkpt>
      <trkpt lat="43.72635" lon="3.50368">
        <ele>370</ele>
        <time>2021-11-20T13:37:06.000Z</time>
      </trkpt>
      <trkpt lat="43.72634" lon="3.50364">
        <ele>370</ele>
        <time>2021-11-20T13:37:16.000Z</time>
      </trkpt>
      <trkpt lat="43.72632" lon="3.50361">
        <ele>369</ele>
        <time>2021-11-20T13:37:27.000Z</time>
      </trkpt>
      <trkpt lat="43.7263" lon="3.50359">
        <ele>369</ele>
        <time>2021-11-20T13:37:37.000Z</time>
      </trkpt>
      <trkpt lat="43.72628" lon="3.50356">
        <ele>368</ele>
        <time>2021-11-20T13:37:47.000Z</time>
      </trkpt>
      <trkpt lat="43.72623" lon="3.50353">
        <ele>368</ele>
        <time>2021-11-20T13:37:57.000Z</time>
      </trkpt>
      <trkpt lat="43.72618" lon="3.50351">
        <ele>368</ele>
        <time>2021-11-20T13:38:06.000Z</time>
      </trkpt>
      <trkpt lat="43.72618" lon="3.50352">
        <ele>368</ele>
        <time>2021-11-20T13:38:15.000Z</time>
      </trkpt>
      <trkpt lat="43.72618" lon="3.50354">
        <ele>368</ele>
        <time>2021-11-20T13:38:24.000Z</time>
      </trkpt>
      <trkpt lat="43.7262" lon="3.50356">
        <ele>368</ele>
        <time>2021-11-20T13:38:32.000Z</time>
      </trkpt>
      <trkpt lat="43.72622" lon="3.50359">
        <ele>368</ele>
        <time>2021-11-20T13:38:41.000Z</time>
      </trkpt>
      <trkpt lat="43.7262" lon="3.50358">
        <ele>368</ele>
        <time>2021-11-20T13:38:49.000Z</time>
      </trkpt>
      <trkpt lat="43.72617" lon="3.50355">
        <ele>368</ele>
        <time>2021-11-20T13:38:56.000Z</time>
      </trkpt>
      <trkpt lat="43.72613" lon="3.50351">
        <ele>368</ele>
        <time>2021-11-20T13:39:04.000Z</time>
      </trkpt>
      <trkpt lat="43.72608" lon="3.50347">
        <ele>368</ele>
        <time>2021-11-20T13:39:11.000Z</time>
      </trkpt>
      <trkpt lat="43.72607" lon="3.50344">
        <ele>368</ele>
        <time>2021-11-20T13:39:15.000Z</time>
      </trkpt>
      <trkpt lat="43.72607" lon="3.50342">
        <ele>368</ele>
        <time>2021-11-20T13:39:19.000Z</time>
      </trkpt>
      <trkpt lat="43.72607" lon="3.50339">
        <ele>368</ele>
        <time>2021-11-20T13:39:22.000Z</time>
      </trkpt>
      <trkpt lat="43.72607" lon="3.50337">
        <ele>368</ele>
        <time>2021-11-20T13:39:26.000Z</time>
      </trkpt>
      <trkpt lat="43.7263" lon="3.50295">
        <ele>381</ele>
        <time>2021-11-20T13:53:48.000Z</time>
      </trkpt>
      <trkpt lat="43.72627" lon="3.50325">
        <ele>381</ele>
        <time>2021-11-20T13:56:34.000Z</time>
      </trkpt>
      <trkpt lat="43.72625" lon="3.5033">
        <ele>379</ele>
        <time>2021-11-20T13:56:49.000Z</time>
      </trkpt>
      <trkpt lat="43.72622" lon="3.50334">
        <ele>377</ele>
        <time>2021-11-20T13:57:05.000Z</time>
      </trkpt>
      <trkpt lat="43.72618" lon="3.50337">
        <ele>374</ele>
        <time>2021-11-20T13:57:20.000Z</time>
      </trkpt>
      <trkpt lat="43.72615" lon="3.5034">
        <ele>371</ele>
        <time>2021-11-20T13:57:35.000Z</time>
      </trkpt>
      <trkpt lat="43.72613" lon="3.50343">
        <ele>370</ele>
        <time>2021-11-20T13:57:40.000Z</time>
      </trkpt>
      <trkpt lat="43.72612" lon="3.50346">
        <ele>369</ele>
        <time>2021-11-20T13:57:45.000Z</time>
      </trkpt>
      <trkpt lat="43.72612" lon="3.50348">
        <ele>369</ele>
        <time>2021-11-20T13:57:50.000Z</time>
      </trkpt>
      <trkpt lat="43.72611" lon="3.5035">
        <ele>369</ele>
        <time>2021-11-20T13:57:55.000Z</time>
      </trkpt>
      <trkpt lat="43.72609" lon="3.50352">
        <ele>369</ele>
        <time>2021-11-20T13:59:05.000Z</time>
      </trkpt>
      <trkpt lat="43.72606" lon="3.50353">
        <ele>369</ele>
        <time>2021-11-20T14:00:14.000Z</time>
      </trkpt>
      <trkpt lat="43.72602" lon="3.50354">
        <ele>369</ele>
        <time>2021-11-20T14:01:24.000Z</time>
      </trkpt>
      <trkpt lat="43.72599" lon="3.50355">
        <ele>369</ele>
        <time>2021-11-20T14:02:33.000Z</time>
      </trkpt>
      <trkpt lat="43.72595" lon="3.50352">
        <ele>368</ele>
        <time>2021-11-20T14:02:41.000Z</time>
      </trkpt>
      <trkpt lat="43.7259" lon="3.50347">
        <ele>368</ele>
        <time>2021-11-20T14:02:48.000Z</time>
      </trkpt>
      <trkpt lat="43.72585" lon="3.5034">
        <ele>368</ele>
        <time>2021-11-20T14:02:56.000Z</time>
      </trkpt>
      <trkpt lat="43.7258" lon="3.50333">
        <ele>367</ele>
        <time>2021-11-20T14:03:03.000Z</time>
      </trkpt>
      <trkpt lat="43.72576" lon="3.50328">
        <ele>367</ele>
        <time>2021-11-20T14:03:08.000Z</time>
      </trkpt>
      <trkpt lat="43.72572" lon="3.50323">
        <ele>367</ele>
        <time>2021-11-20T14:03:12.000Z</time>
      </trkpt>
      <trkpt lat="43.72568" lon="3.50317">
        <ele>367</ele>
        <time>2021-11-20T14:03:17.000Z</time>
      </trkpt>
      <trkpt lat="43.72565" lon="3.50312">
        <ele>367</ele>
        <time>2021-11-20T14:03:21.000Z</time>
      </trkpt>
      <trkpt lat="43.72561" lon="3.50309">
        <ele>367</ele>
        <time>2021-11-20T14:03:25.000Z</time>
      </trkpt>
      <trkpt lat="43.72558" lon="3.50306">
        <ele>367</ele>
        <time>2021-11-20T14:03:29.000Z</time>
      </trkpt>
      <trkpt lat="43.72555" lon="3.50305">
        <ele>366</ele>
        <time>2021-11-20T14:03:32.000Z</time>
      </trkpt>
      <trkpt lat="43.72552" lon="3.50303">
        <ele>366</ele>
        <time>2021-11-20T14:03:36.000Z</time>
      </trkpt>
      <trkpt lat="43.72543" lon="3.50286">
        <ele>365</ele>
        <time>2021-11-20T14:04:05.000Z</time>
      </trkpt>
      <trkpt lat="43.72533" lon="3.50262">
        <ele>364</ele>
        <time>2021-11-20T14:04:33.000Z</time>
      </trkpt>
      <trkpt lat="43.7253" lon="3.50254">
        <ele>364</ele>
        <time>2021-11-20T14:04:39.000Z</time>
      </trkpt>
      <trkpt lat="43.72527" lon="3.50247">
        <ele>364</ele>
        <time>2021-11-20T14:04:44.000Z</time>
      </trkpt>
      <trkpt lat="43.72524" lon="3.5024">
        <ele>363</ele>
        <time>2021-11-20T14:04:50.000Z</time>
      </trkpt>
      <trkpt lat="43.72521" lon="3.50234">
        <ele>363</ele>
        <time>2021-11-20T14:04:55.000Z</time>
      </trkpt>
      <trkpt lat="43.72518" lon="3.50231">
        <ele>363</ele>
        <time>2021-11-20T14:05:00.000Z</time>
      </trkpt>
      <trkpt lat="43.72514" lon="3.50229">
        <ele>363</ele>
        <time>2021-11-20T14:05:05.000Z</time>
      </trkpt>
      <trkpt lat="43.7251" lon="3.50227">
        <ele>363</ele>
        <time>2021-11-20T14:05:10.000Z</time>
      </trkpt>
      <trkpt lat="43.72506" lon="3.50227">
        <ele>363</ele>
        <time>2021-11-20T14:05:15.000Z</time>
      </trkpt>
      <trkpt lat="43.72499" lon="3.50228">
        <ele>363</ele>
        <time>2021-11-20T14:05:27.000Z</time>
      </trkpt>
      <trkpt lat="43.72493" lon="3.50232">
        <ele>362</ele>
        <time>2021-11-20T14:05:39.000Z</time>
      </trkpt>
      <trkpt lat="43.72489" lon="3.50231">
        <ele>362</ele>
        <time>2021-11-20T14:05:44.000Z</time>
      </trkpt>
      <trkpt lat="43.72486" lon="3.50229">
        <ele>362</ele>
        <time>2021-11-20T14:05:49.000Z</time>
      </trkpt>
      <trkpt lat="43.72482" lon="3.50227">
        <ele>361</ele>
        <time>2021-11-20T14:06:00.000Z</time>
      </trkpt>
      <trkpt lat="43.72476" lon="3.50226">
        <ele>360</ele>
        <time>2021-11-20T14:06:11.000Z</time>
      </trkpt>
      <trkpt lat="43.7247" lon="3.50224">
        <ele>360</ele>
        <time>2021-11-20T14:06:21.000Z</time>
      </trkpt>
      <trkpt lat="43.72463" lon="3.50222">
        <ele>359</ele>
        <time>2021-11-20T14:06:32.000Z</time>
      </trkpt>
      <trkpt lat="43.72456" lon="3.50223">
        <ele>358</ele>
        <time>2021-11-20T14:06:41.000Z</time>
      </trkpt>
      <trkpt lat="43.72451" lon="3.50227">
        <ele>358</ele>
        <time>2021-11-20T14:06:49.000Z</time>
      </trkpt>
      <trkpt lat="43.72446" lon="3.50228">
        <ele>358</ele>
        <time>2021-11-20T14:06:56.000Z</time>
      </trkpt>
      <trkpt lat="43.7244" lon="3.50229">
        <ele>358</ele>
        <time>2021-11-20T14:07:04.000Z</time>
      </trkpt>
      <trkpt lat="43.72434" lon="3.50229">
        <ele>357</ele>
        <time>2021-11-20T14:07:11.000Z</time>
      </trkpt>
      <trkpt lat="43.72427" lon="3.5023">
        <ele>357</ele>
        <time>2021-11-20T14:07:18.000Z</time>
      </trkpt>
      <trkpt lat="43.72423" lon="3.50233">
        <ele>357</ele>
        <time>2021-11-20T14:07:27.000Z</time>
      </trkpt>
      <trkpt lat="43.72422" lon="3.50237">
        <ele>357</ele>
        <time>2021-11-20T14:07:35.000Z</time>
      </trkpt>
      <trkpt lat="43.72421" lon="3.50236">
        <ele>357</ele>
        <time>2021-11-20T14:07:37.000Z</time>
      </trkpt>
      <trkpt lat="43.72419" lon="3.50235">
        <ele>357</ele>
        <time>2021-11-20T14:07:39.000Z</time>
      </trkpt>
      <trkpt lat="43.72417" lon="3.50233">
        <ele>357</ele>
        <time>2021-11-20T14:07:40.000Z</time>
      </trkpt>
      <trkpt lat="43.72416" lon="3.5023">
        <ele>357</ele>
        <time>2021-11-20T14:07:42.000Z</time>
      </trkpt>
      <trkpt lat="43.7241" lon="3.50227">
        <ele>356</ele>
        <time>2021-11-20T14:07:57.000Z</time>
      </trkpt>
      <trkpt lat="43.72402" lon="3.50222">
        <ele>356</ele>
        <time>2021-11-20T14:08:13.000Z</time>
      </trkpt>
      <trkpt lat="43.72393" lon="3.50217">
        <ele>356</ele>
        <time>2021-11-20T14:08:28.000Z</time>
      </trkpt>
      <trkpt lat="43.72384" lon="3.50212">
        <ele>355</ele>
        <time>2021-11-20T14:08:43.000Z</time>
      </trkpt>
      <trkpt lat="43.72378" lon="3.50208">
        <ele>355</ele>
        <time>2021-11-20T14:08:49.000Z</time>
      </trkpt>
      <trkpt lat="43.72372" lon="3.50204">
        <ele>355</ele>
        <time>2021-11-20T14:08:55.000Z</time>
      </trkpt>
      <trkpt lat="43.72367" lon="3.50201">
        <ele>355</ele>
        <time>2021-11-20T14:09:01.000Z</time>
      </trkpt>
      <trkpt lat="43.72363" lon="3.50197">
        <ele>355</ele>
        <time>2021-11-20T14:09:07.000Z</time>
      </trkpt>
      <trkpt lat="43.7236" lon="3.50198">
        <ele>355</ele>
        <time>2021-11-20T14:09:58.000Z</time>
      </trkpt>
      <trkpt lat="43.72359" lon="3.50199">
        <ele>355</ele>
        <time>2021-11-20T14:10:48.000Z</time>
      </trkpt>
      <trkpt lat="43.72358" lon="3.50202">
        <ele>355</ele>
        <time>2021-11-20T14:11:39.000Z</time>
      </trkpt>
      <trkpt lat="43.72358" lon="3.50205">
        <ele>354</ele>
        <time>2021-11-20T14:12:29.000Z</time>
      </trkpt>
      <trkpt lat="43.72356" lon="3.50205">
        <ele>354</ele>
        <time>2021-11-20T14:12:39.000Z</time>
      </trkpt>
      <trkpt lat="43.72355" lon="3.50203">
        <ele>354</ele>
        <time>2021-11-20T14:12:48.000Z</time>
      </trkpt>
      <trkpt lat="43.72353" lon="3.50201">
        <ele>354</ele>
        <time>2021-11-20T14:12:58.000Z</time>
      </trkpt>
      <trkpt lat="43.72351" lon="3.50199">
        <ele>354</ele>
        <time>2021-11-20T14:13:07.000Z</time>
      </trkpt>
      <trkpt lat="43.72345" lon="3.50196">
        <ele>354</ele>
        <time>2021-11-20T14:13:17.000Z</time>
      </trkpt>
      <trkpt lat="43.72337" lon="3.50193">
        <ele>354</ele>
        <time>2021-11-20T14:13:26.000Z</time>
      </trkpt>
      <trkpt lat="43.72327" lon="3.50189">
        <ele>353</ele>
        <time>2021-11-20T14:13:36.000Z</time>
      </trkpt>
      <trkpt lat="43.72317" lon="3.50186">
        <ele>353</ele>
        <time>2021-11-20T14:13:45.000Z</time>
      </trkpt>
      <trkpt lat="43.72309" lon="3.50183">
        <ele>353</ele>
        <time>2021-11-20T14:13:55.000Z</time>
      </trkpt>
      <trkpt lat="43.723" lon="3.5018">
        <ele>353</ele>
        <time>2021-11-20T14:14:05.000Z</time>
      </trkpt>
      <trkpt lat="43.72292" lon="3.50178">
        <ele>353</ele>
        <time>2021-11-20T14:14:15.000Z</time>
      </trkpt>
      <trkpt lat="43.72284" lon="3.50175">
        <ele>352</ele>
        <time>2021-11-20T14:14:25.000Z</time>
      </trkpt>
      <trkpt lat="43.72275" lon="3.50172">
        <ele>352</ele>
        <time>2021-11-20T14:14:35.000Z</time>
      </trkpt>
      <trkpt lat="43.72267" lon="3.50168">
        <ele>352</ele>
        <time>2021-11-20T14:14:46.000Z</time>
      </trkpt>
      <trkpt lat="43.72259" lon="3.50165">
        <ele>352</ele>
        <time>2021-11-20T14:14:56.000Z</time>
      </trkpt>
      <trkpt lat="43.72251" lon="3.50161">
        <ele>352</ele>
        <time>2021-11-20T14:15:06.000Z</time>
      </trkpt>
      <trkpt lat="43.72243" lon="3.5016">
        <ele>351</ele>
        <time>2021-11-20T14:15:12.000Z</time>
      </trkpt>
      <trkpt lat="43.72236" lon="3.50159">
        <ele>351</ele>
        <time>2021-11-20T14:15:18.000Z</time>
      </trkpt>
      <trkpt lat="43.72229" lon="3.50159">
        <ele>351</ele>
        <time>2021-11-20T14:15:23.000Z</time>
      </trkpt>
      <trkpt lat="43.72223" lon="3.50159">
        <ele>351</ele>
        <time>2021-11-20T14:15:29.000Z</time>
      </trkpt>
      <trkpt lat="43.72219" lon="3.50157">
        <ele>351</ele>
        <time>2021-11-20T14:15:33.000Z</time>
      </trkpt>
      <trkpt lat="43.72218" lon="3.50154">
        <ele>351</ele>
        <time>2021-11-20T14:15:37.000Z</time>
      </trkpt>
      <trkpt lat="43.72217" lon="3.50152">
        <ele>351</ele>
        <time>2021-11-20T14:15:40.000Z</time>
      </trkpt>
      <trkpt lat="43.72216" lon="3.50149">
        <ele>351</ele>
        <time>2021-11-20T14:15:44.000Z</time>
      </trkpt>
      <trkpt lat="43.72212" lon="3.50142">
        <ele>351</ele>
        <time>2021-11-20T14:15:54.000Z</time>
      </trkpt>
      <trkpt lat="43.72206" lon="3.50133">
        <ele>351</ele>
        <time>2021-11-20T14:16:05.000Z</time>
      </trkpt>
      <trkpt lat="43.722" lon="3.50123">
        <ele>351</ele>
        <time>2021-11-20T14:16:15.000Z</time>
      </trkpt>
      <trkpt lat="43.72193" lon="3.50112">
        <ele>351</ele>
        <time>2021-11-20T14:16:25.000Z</time>
      </trkpt>
      <trkpt lat="43.72187" lon="3.50104">
        <ele>351</ele>
        <time>2021-11-20T14:16:36.000Z</time>
      </trkpt>
      <trkpt lat="43.7218" lon="3.50096">
        <ele>350</ele>
        <time>2021-11-20T14:16:47.000Z</time>
      </trkpt>
      <trkpt lat="43.72173" lon="3.50089">
        <ele>349</ele>
        <time>2021-11-20T14:16:58.000Z</time>
      </trkpt>
      <trkpt lat="43.72166" lon="3.50083">
        <ele>349</ele>
        <time>2021-11-20T14:17:09.000Z</time>
      </trkpt>
      <trkpt lat="43.7216" lon="3.50074">
        <ele>348</ele>
        <time>2021-11-20T14:17:27.000Z</time>
      </trkpt>
      <trkpt lat="43.72155" lon="3.50064">
        <ele>347</ele>
        <time>2021-11-20T14:17:46.000Z</time>
      </trkpt>
      <trkpt lat="43.7215" lon="3.50054">
        <ele>346</ele>
        <time>2021-11-20T14:18:04.000Z</time>
      </trkpt>
      <trkpt lat="43.72145" lon="3.50043">
        <ele>345</ele>
        <time>2021-11-20T14:18:22.000Z</time>
      </trkpt>
      <trkpt lat="43.72141" lon="3.50033">
        <ele>344</ele>
        <time>2021-11-20T14:18:32.000Z</time>
      </trkpt>
      <trkpt lat="43.72137" lon="3.50022">
        <ele>344</ele>
        <time>2021-11-20T14:18:41.000Z</time>
      </trkpt>
      <trkpt lat="43.72132" lon="3.50011">
        <ele>344</ele>
        <time>2021-11-20T14:18:51.000Z</time>
      </trkpt>
      <trkpt lat="43.72128" lon="3.5">
        <ele>344</ele>
        <time>2021-11-20T14:19:00.000Z</time>
      </trkpt>
      <trkpt lat="43.72123" lon="3.49991">
        <ele>344</ele>
        <time>2021-11-20T14:19:08.000Z</time>
      </trkpt>
      <trkpt lat="43.72117" lon="3.49982">
        <ele>344</ele>
        <time>2021-11-20T14:19:17.000Z</time>
      </trkpt>
      <trkpt lat="43.72111" lon="3.49974">
        <ele>344</ele>
        <time>2021-11-20T14:19:25.000Z</time>
      </trkpt>
      <trkpt lat="43.72105" lon="3.49965">
        <ele>344</ele>
        <time>2021-11-20T14:19:33.000Z</time>
      </trkpt>
      <trkpt lat="43.721" lon="3.49963">
        <ele>344</ele>
        <time>2021-11-20T14:19:38.000Z</time>
      </trkpt>
      <trkpt lat="43.72097" lon="3.49964">
        <ele>343</ele>
        <time>2021-11-20T14:19:43.000Z</time>
      </trkpt>
      <trkpt lat="43.72094" lon="3.49966">
        <ele>343</ele>
        <time>2021-11-20T14:19:48.000Z</time>
      </trkpt>
      <trkpt lat="43.72091" lon="3.49969">
        <ele>343</ele>
        <time>2021-11-20T14:19:53.000Z</time>
      </trkpt>
      <trkpt lat="43.72081" lon="3.49967">
        <ele>343</ele>
        <time>2021-11-20T14:20:05.000Z</time>
      </trkpt>
      <trkpt lat="43.7207" lon="3.49962">
        <ele>342</ele>
        <time>2021-11-20T14:20:17.000Z</time>
      </trkpt>
      <trkpt lat="43.72063" lon="3.49961">
        <ele>342</ele>
        <time>2021-11-20T14:20:25.000Z</time>
      </trkpt>
      <trkpt lat="43.72054" lon="3.49961">
        <ele>341</ele>
        <time>2021-11-20T14:20:34.000Z</time>
      </trkpt>
      <trkpt lat="43.72045" lon="3.49961">
        <ele>341</ele>
        <time>2021-11-20T14:20:42.000Z</time>
      </trkpt>
      <trkpt lat="43.72035" lon="3.49962">
        <ele>340</ele>
        <time>2021-11-20T14:20:50.000Z</time>
      </trkpt>
      <trkpt lat="43.72027" lon="3.49957">
        <ele>340</ele>
        <time>2021-11-20T14:21:00.000Z</time>
      </trkpt>
      <trkpt lat="43.72023" lon="3.49949">
        <ele>340</ele>
        <time>2021-11-20T14:21:09.000Z</time>
      </trkpt>
      <trkpt lat="43.72019" lon="3.49947">
        <ele>339</ele>
        <time>2021-11-20T14:21:14.000Z</time>
      </trkpt>
      <trkpt lat="43.72014" lon="3.49944">
        <ele>339</ele>
        <time>2021-11-20T14:21:20.000Z</time>
      </trkpt>
      <trkpt lat="43.72009" lon="3.49942">
        <ele>339</ele>
        <time>2021-11-20T14:21:25.000Z</time>
      </trkpt>
      <trkpt lat="43.72004" lon="3.49939">
        <ele>338</ele>
        <time>2021-11-20T14:21:30.000Z</time>
      </trkpt>
      <trkpt lat="43.71997" lon="3.49936">
        <ele>338</ele>
        <time>2021-11-20T14:21:39.000Z</time>
      </trkpt>
      <trkpt lat="43.71989" lon="3.49932">
        <ele>338</ele>
        <time>2021-11-20T14:21:49.000Z</time>
      </trkpt>
      <trkpt lat="43.71981" lon="3.49928">
        <ele>338</ele>
        <time>2021-11-20T14:21:58.000Z</time>
      </trkpt>
      <trkpt lat="43.71972" lon="3.49924">
        <ele>338</ele>
        <time>2021-11-20T14:22:07.000Z</time>
      </trkpt>
      <trkpt lat="43.71966" lon="3.49928">
        <ele>338</ele>
        <time>2021-11-20T14:22:15.000Z</time>
      </trkpt>
      <trkpt lat="43.7196" lon="3.49936">
        <ele>338</ele>
        <time>2021-11-20T14:22:23.000Z</time>
      </trkpt>
      <trkpt lat="43.71955" lon="3.49945">
        <ele>338</ele>
        <time>2021-11-20T14:22:30.000Z</time>
      </trkpt>
      <trkpt lat="43.7195" lon="3.49956">
        <ele>338</ele>
        <time>2021-11-20T14:22:38.000Z</time>
      </trkpt>
      <trkpt lat="43.71944" lon="3.49978">
        <ele>337</ele>
        <time>2021-11-20T14:22:54.000Z</time>
      </trkpt>
      <trkpt lat="43.71941" lon="3.50003">
        <ele>336</ele>
        <time>2021-11-20T14:23:10.000Z</time>
      </trkpt>
      <trkpt lat="43.71938" lon="3.50015">
        <ele>336</ele>
        <time>2021-11-20T14:23:22.000Z</time>
      </trkpt>
      <trkpt lat="43.71935" lon="3.50026">
        <ele>335</ele>
        <time>2021-11-20T14:23:34.000Z</time>
      </trkpt>
      <trkpt lat="43.71931" lon="3.50038">
        <ele>335</ele>
        <time>2021-11-20T14:23:46.000Z</time>
      </trkpt>
      <trkpt lat="43.71928" lon="3.50049">
        <ele>335</ele>
        <time>2021-11-20T14:23:58.000Z</time>
      </trkpt>
      <trkpt lat="43.71926" lon="3.50057">
        <ele>334</ele>
        <time>2021-11-20T14:24:03.000Z</time>
      </trkpt>
      <trkpt lat="43.71925" lon="3.50064">
        <ele>334</ele>
        <time>2021-11-20T14:24:08.000Z</time>
      </trkpt>
      <trkpt lat="43.71925" lon="3.50071">
        <ele>334</ele>
        <time>2021-11-20T14:24:13.000Z</time>
      </trkpt>
      <trkpt lat="43.71924" lon="3.50077">
        <ele>334</ele>
        <time>2021-11-20T14:24:18.000Z</time>
      </trkpt>
      <trkpt lat="43.71921" lon="3.50081">
        <ele>334</ele>
        <time>2021-11-20T14:24:22.000Z</time>
      </trkpt>
      <trkpt lat="43.71918" lon="3.50085">
        <ele>334</ele>
        <time>2021-11-20T14:24:27.000Z</time>
      </trkpt>
      <trkpt lat="43.71914" lon="3.50087">
        <ele>334</ele>
        <time>2021-11-20T14:24:31.000Z</time>
      </trkpt>
      <trkpt lat="43.71909" lon="3.50089">
        <ele>334</ele>
        <time>2021-11-20T14:24:35.000Z</time>
      </trkpt>
      <trkpt lat="43.71906" lon="3.50092">
        <ele>334</ele>
        <time>2021-11-20T14:24:38.000Z</time>
      </trkpt>
      <trkpt lat="43.71901" lon="3.50095">
        <ele>334</ele>
        <time>2021-11-20T14:24:40.000Z</time>
      </trkpt>
      <trkpt lat="43.71897" lon="3.50097">
        <ele>334</ele>
        <time>2021-11-20T14:24:43.000Z</time>
      </trkpt>
      <trkpt lat="43.71893" lon="3.50099">
        <ele>334</ele>
        <time>2021-11-20T14:24:45.000Z</time>
      </trkpt>
      <trkpt lat="43.71888" lon="3.50101">
        <ele>334</ele>
        <time>2021-11-20T14:24:53.000Z</time>
      </trkpt>
      <trkpt lat="43.71884" lon="3.50102">
        <ele>333</ele>
        <time>2021-11-20T14:25:01.000Z</time>
      </trkpt>
      <trkpt lat="43.71879" lon="3.50104">
        <ele>333</ele>
        <time>2021-11-20T14:25:08.000Z</time>
      </trkpt>
      <trkpt lat="43.71874" lon="3.50105">
        <ele>332</ele>
        <time>2021-11-20T14:25:16.000Z</time>
      </trkpt>
      <trkpt lat="43.71868" lon="3.50111">
        <ele>332</ele>
        <time>2021-11-20T14:25:23.000Z</time>
      </trkpt>
      <trkpt lat="43.71863" lon="3.50119">
        <ele>332</ele>
        <time>2021-11-20T14:25:30.000Z</time>
      </trkpt>
      <trkpt lat="43.71858" lon="3.50126">
        <ele>332</ele>
        <time>2021-11-20T14:25:40.000Z</time>
      </trkpt>
      <trkpt lat="43.71851" lon="3.50133">
        <ele>332</ele>
        <time>2021-11-20T14:25:51.000Z</time>
      </trkpt>
      <trkpt lat="43.71844" lon="3.50142">
        <ele>331</ele>
        <time>2021-11-20T14:26:01.000Z</time>
      </trkpt>
      <trkpt lat="43.71836" lon="3.5015">
        <ele>331</ele>
        <time>2021-11-20T14:26:11.000Z</time>
      </trkpt>
      <trkpt lat="43.7183" lon="3.50158">
        <ele>330</ele>
        <time>2021-11-20T14:26:19.000Z</time>
      </trkpt>
      <trkpt lat="43.71824" lon="3.50167">
        <ele>330</ele>
        <time>2021-11-20T14:26:28.000Z</time>
      </trkpt>
      <trkpt lat="43.71818" lon="3.50175">
        <ele>330</ele>
        <time>2021-11-20T14:26:36.000Z</time>
      </trkpt>
      <trkpt lat="43.71812" lon="3.50184">
        <ele>330</ele>
        <time>2021-11-20T14:26:44.000Z</time>
      </trkpt>
      <trkpt lat="43.71796" lon="3.50193">
        <ele>330</ele>
        <time>2021-11-20T14:27:00.000Z</time>
      </trkpt>
      <trkpt lat="43.71779" lon="3.50199">
        <ele>329</ele>
        <time>2021-11-20T14:27:16.000Z</time>
      </trkpt>
      <trkpt lat="43.71774" lon="3.50198">
        <ele>330</ele>
        <time>2021-11-20T14:27:27.000Z</time>
      </trkpt>
      <trkpt lat="43.71771" lon="3.50196">
        <ele>330</ele>
        <time>2021-11-20T14:27:38.000Z</time>
      </trkpt>
      <trkpt lat="43.71769" lon="3.50192">
        <ele>330</ele>
        <time>2021-11-20T14:27:48.000Z</time>
      </trkpt>
      <trkpt lat="43.71767" lon="3.50188">
        <ele>331</ele>
        <time>2021-11-20T14:27:59.000Z</time>
      </trkpt>
      <trkpt lat="43.71764" lon="3.50183">
        <ele>331</ele>
        <time>2021-11-20T14:28:23.000Z</time>
      </trkpt>
      <trkpt lat="43.71764" lon="3.50179">
        <ele>331</ele>
        <time>2021-11-20T14:28:47.000Z</time>
      </trkpt>
      <trkpt lat="43.71765" lon="3.50177">
        <ele>331</ele>
        <time>2021-11-20T14:29:07.000Z</time>
      </trkpt>
      <trkpt lat="43.71766" lon="3.50176">
        <ele>331</ele>
        <time>2021-11-20T14:29:26.000Z</time>
      </trkpt>
      <trkpt lat="43.71769" lon="3.50174">
        <ele>331</ele>
        <time>2021-11-20T14:29:46.000Z</time>
      </trkpt>
      <trkpt lat="43.71771" lon="3.50173">
        <ele>331</ele>
        <time>2021-11-20T14:30:05.000Z</time>
      </trkpt>
      <trkpt lat="43.71771" lon="3.50174">
        <ele>331</ele>
        <time>2021-11-20T14:30:24.000Z</time>
      </trkpt>
      <trkpt lat="43.7177" lon="3.50175">
        <ele>332</ele>
        <time>2021-11-20T14:30:43.000Z</time>
      </trkpt>
      <trkpt lat="43.71769" lon="3.50177">
        <ele>332</ele>
        <time>2021-11-20T14:31:02.000Z</time>
      </trkpt>
      <trkpt lat="43.71768" lon="3.50179">
        <ele>332</ele>
        <time>2021-11-20T14:31:21.000Z</time>
      </trkpt>
      <trkpt lat="43.71767" lon="3.5018">
        <ele>331</ele>
        <time>2021-11-20T14:31:39.000Z</time>
      </trkpt>
      <trkpt lat="43.71768" lon="3.50182">
        <ele>331</ele>
        <time>2021-11-20T14:31:57.000Z</time>
      </trkpt>
      <trkpt lat="43.71768" lon="3.50183">
        <ele>331</ele>
        <time>2021-11-20T14:32:14.000Z</time>
      </trkpt>
      <trkpt lat="43.71769" lon="3.50184">
        <ele>331</ele>
        <time>2021-11-20T14:32:32.000Z</time>
      </trkpt>
      <trkpt lat="43.71764" lon="3.50178">
        <ele>331</ele>
        <time>2021-11-20T14:32:44.000Z</time>
      </trkpt>
      <trkpt lat="43.71758" lon="3.50168">
        <ele>332</ele>
        <time>2021-11-20T14:32:55.000Z</time>
      </trkpt>
      <trkpt lat="43.71751" lon="3.50156">
        <ele>333</ele>
        <time>2021-11-20T14:33:07.000Z</time>
      </trkpt>
      <trkpt lat="43.71744" lon="3.50144">
        <ele>334</ele>
        <time>2021-11-20T14:33:18.000Z</time>
      </trkpt>
      <trkpt lat="43.7174" lon="3.50138">
        <ele>335</ele>
        <time>2021-11-20T14:33:21.000Z</time>
      </trkpt>
      <trkpt lat="43.71738" lon="3.50136">
        <ele>335</ele>
        <time>2021-11-20T14:33:23.000Z</time>
      </trkpt>
      <trkpt lat="43.71736" lon="3.50134">
        <ele>335</ele>
        <time>2021-11-20T14:33:26.000Z</time>
      </trkpt>
      <trkpt lat="43.71734" lon="3.50133">
        <ele>335</ele>
        <time>2021-11-20T14:33:28.000Z</time>
      </trkpt>
      <trkpt lat="43.7173" lon="3.50131">
        <ele>336</ele>
        <time>2021-11-20T14:33:34.000Z</time>
      </trkpt>
      <trkpt lat="43.71725" lon="3.50128">
        <ele>336</ele>
        <time>2021-11-20T14:33:39.000Z</time>
      </trkpt>
      <trkpt lat="43.71719" lon="3.50125">
        <ele>337</ele>
        <time>2021-11-20T14:33:45.000Z</time>
      </trkpt>
      <trkpt lat="43.71712" lon="3.50123">
        <ele>338</ele>
        <time>2021-11-20T14:33:50.000Z</time>
      </trkpt>
      <trkpt lat="43.71705" lon="3.50118">
        <ele>338</ele>
        <time>2021-11-20T14:33:59.000Z</time>
      </trkpt>
      <trkpt lat="43.71697" lon="3.50113">
        <ele>339</ele>
        <time>2021-11-20T14:34:07.000Z</time>
      </trkpt>
      <trkpt lat="43.71689" lon="3.50107">
        <ele>339</ele>
        <time>2021-11-20T14:34:16.000Z</time>
      </trkpt>
      <trkpt lat="43.7168" lon="3.50101">
        <ele>340</ele>
        <time>2021-11-20T14:34:24.000Z</time>
      </trkpt>
      <trkpt lat="43.71672" lon="3.50096">
        <ele>340</ele>
        <time>2021-11-20T14:34:32.000Z</time>
      </trkpt>
      <trkpt lat="43.71665" lon="3.5009">
        <ele>340</ele>
        <time>2021-11-20T14:34:39.000Z</time>
      </trkpt>
      <trkpt lat="43.71657" lon="3.50084">
        <ele>340</ele>
        <time>2021-11-20T14:34:47.000Z</time>
      </trkpt>
      <trkpt lat="43.7165" lon="3.50078">
        <ele>341</ele>
        <time>2021-11-20T14:34:54.000Z</time>
      </trkpt>
      <trkpt lat="43.71642" lon="3.50072">
        <ele>341</ele>
        <time>2021-11-20T14:35:01.000Z</time>
      </trkpt>
      <trkpt lat="43.71635" lon="3.50066">
        <ele>341</ele>
        <time>2021-11-20T14:35:08.000Z</time>
      </trkpt>
      <trkpt lat="43.71627" lon="3.5006">
        <ele>340</ele>
        <time>2021-11-20T14:35:14.000Z</time>
      </trkpt>
      <trkpt lat="43.7162" lon="3.50054">
        <ele>340</ele>
        <time>2021-11-20T14:35:21.000Z</time>
      </trkpt>
      <trkpt lat="43.71594" lon="3.50023">
        <ele>341</ele>
        <time>2021-11-20T14:35:53.000Z</time>
      </trkpt>
      <trkpt lat="43.71588" lon="3.50001">
        <ele>342</ele>
        <time>2021-11-20T14:36:10.000Z</time>
      </trkpt>
      <trkpt lat="43.71584" lon="3.49977">
        <ele>343</ele>
        <time>2021-11-20T14:36:27.000Z</time>
      </trkpt>
      <trkpt lat="43.71581" lon="3.49966">
        <ele>342</ele>
        <time>2021-11-20T14:36:34.000Z</time>
      </trkpt>
      <trkpt lat="43.71578" lon="3.49956">
        <ele>342</ele>
        <time>2021-11-20T14:36:41.000Z</time>
      </trkpt>
      <trkpt lat="43.71574" lon="3.49945">
        <ele>342</ele>
        <time>2021-11-20T14:36:47.000Z</time>
      </trkpt>
      <trkpt lat="43.71571" lon="3.49934">
        <ele>341</ele>
        <time>2021-11-20T14:36:54.000Z</time>
      </trkpt>
      <trkpt lat="43.71568" lon="3.49923">
        <ele>341</ele>
        <time>2021-11-20T14:37:02.000Z</time>
      </trkpt>
      <trkpt lat="43.71564" lon="3.49912">
        <ele>340</ele>
        <time>2021-11-20T14:37:10.000Z</time>
      </trkpt>
      <trkpt lat="43.71561" lon="3.499">
        <ele>340</ele>
        <time>2021-11-20T14:37:17.000Z</time>
      </trkpt>
      <trkpt lat="43.71557" lon="3.49889">
        <ele>340</ele>
        <time>2021-11-20T14:37:25.000Z</time>
      </trkpt>
      <trkpt lat="43.71555" lon="3.49884">
        <ele>340</ele>
        <time>2021-11-20T14:37:27.000Z</time>
      </trkpt>
      <trkpt lat="43.71554" lon="3.49882">
        <ele>340</ele>
        <time>2021-11-20T14:37:29.000Z</time>
      </trkpt>
      <trkpt lat="43.71553" lon="3.49882">
        <ele>340</ele>
        <time>2021-11-20T14:37:30.000Z</time>
      </trkpt>
      <trkpt lat="43.71552" lon="3.49882">
        <ele>340</ele>
        <time>2021-11-20T14:37:32.000Z</time>
      </trkpt>
      <trkpt lat="43.7155" lon="3.49881">
        <ele>340</ele>
        <time>2021-11-20T14:37:38.000Z</time>
      </trkpt>
      <trkpt lat="43.71547" lon="3.49881">
        <ele>340</ele>
        <time>2021-11-20T14:37:44.000Z</time>
      </trkpt>
      <trkpt lat="43.71544" lon="3.49881">
        <ele>340</ele>
        <time>2021-11-20T14:37:49.000Z</time>
      </trkpt>
      <trkpt lat="43.7154" lon="3.49881">
        <ele>340</ele>
        <time>2021-11-20T14:37:55.000Z</time>
      </trkpt>
      <trkpt lat="43.71536" lon="3.49884">
        <ele>340</ele>
        <time>2021-11-20T14:38:02.000Z</time>
      </trkpt>
      <trkpt lat="43.71532" lon="3.49889">
        <ele>340</ele>
        <time>2021-11-20T14:38:09.000Z</time>
      </trkpt>
      <trkpt lat="43.71527" lon="3.49895">
        <ele>341</ele>
        <time>2021-11-20T14:38:16.000Z</time>
      </trkpt>
      <trkpt lat="43.71523" lon="3.49901">
        <ele>341</ele>
        <time>2021-11-20T14:38:23.000Z</time>
      </trkpt>
      <trkpt lat="43.71515" lon="3.49902">
        <ele>342</ele>
        <time>2021-11-20T14:38:32.000Z</time>
      </trkpt>
      <trkpt lat="43.71507" lon="3.49901">
        <ele>342</ele>
        <time>2021-11-20T14:38:41.000Z</time>
      </trkpt>
      <trkpt lat="43.71497" lon="3.49899">
        <ele>343</ele>
        <time>2021-11-20T14:38:49.000Z</time>
      </trkpt>
      <trkpt lat="43.71487" lon="3.49896">
        <ele>344</ele>
        <time>2021-11-20T14:38:58.000Z</time>
      </trkpt>
      <trkpt lat="43.71473" lon="3.49884">
        <ele>346</ele>
        <time>2021-11-20T14:39:20.000Z</time>
      </trkpt>
      <trkpt lat="43.7146" lon="3.49866">
        <ele>349</ele>
        <time>2021-11-20T14:39:42.000Z</time>
      </trkpt>
      <trkpt lat="43.71456" lon="3.49861">
        <ele>349</ele>
        <time>2021-11-20T14:39:47.000Z</time>
      </trkpt>
      <trkpt lat="43.71452" lon="3.49856">
        <ele>350</ele>
        <time>2021-11-20T14:39:52.000Z</time>
      </trkpt>
      <trkpt lat="43.71449" lon="3.49853">
        <ele>350</ele>
        <time>2021-11-20T14:39:56.000Z</time>
      </trkpt>
      <trkpt lat="43.71446" lon="3.49849">
        <ele>351</ele>
        <time>2021-11-20T14:40:01.000Z</time>
      </trkpt>
      <trkpt lat="43.71442" lon="3.49845">
        <ele>351</ele>
        <time>2021-11-20T14:40:09.000Z</time>
      </trkpt>
      <trkpt lat="43.71439" lon="3.49841">
        <ele>352</ele>
        <time>2021-11-20T14:40:17.000Z</time>
      </trkpt>
      <trkpt lat="43.71435" lon="3.49837">
        <ele>352</ele>
        <time>2021-11-20T14:40:24.000Z</time>
      </trkpt>
      <trkpt lat="43.71432" lon="3.49834">
        <ele>353</ele>
        <time>2021-11-20T14:40:32.000Z</time>
      </trkpt>
      <trkpt lat="43.71428" lon="3.4983">
        <ele>354</ele>
        <time>2021-11-20T14:40:40.000Z</time>
      </trkpt>
      <trkpt lat="43.71424" lon="3.49825">
        <ele>354</ele>
        <time>2021-11-20T14:40:49.000Z</time>
      </trkpt>
      <trkpt lat="43.71421" lon="3.49821">
        <ele>354</ele>
        <time>2021-11-20T14:40:57.000Z</time>
      </trkpt>
      <trkpt lat="43.71417" lon="3.49817">
        <ele>354</ele>
        <time>2021-11-20T14:41:05.000Z</time>
      </trkpt>
      <trkpt lat="43.71414" lon="3.49812">
        <ele>355</ele>
        <time>2021-11-20T14:41:10.000Z</time>
      </trkpt>
      <trkpt lat="43.71411" lon="3.49807">
        <ele>355</ele>
        <time>2021-11-20T14:41:14.000Z</time>
      </trkpt>
      <trkpt lat="43.71409" lon="3.49801">
        <ele>355</ele>
        <time>2021-11-20T14:41:19.000Z</time>
      </trkpt>
      <trkpt lat="43.71407" lon="3.49795">
        <ele>356</ele>
        <time>2021-11-20T14:41:23.000Z</time>
      </trkpt>
      <trkpt lat="43.71404" lon="3.49783">
        <ele>356</ele>
        <time>2021-11-20T14:41:34.000Z</time>
      </trkpt>
      <trkpt lat="43.71404" lon="3.49769">
        <ele>356</ele>
        <time>2021-11-20T14:41:45.000Z</time>
      </trkpt>
      <trkpt lat="43.71406" lon="3.49757">
        <ele>356</ele>
        <time>2021-11-20T14:41:53.000Z</time>
      </trkpt>
      <trkpt lat="43.7141" lon="3.49745">
        <ele>356</ele>
        <time>2021-11-20T14:42:00.000Z</time>
      </trkpt>
      <trkpt lat="43.71411" lon="3.49739">
        <ele>356</ele>
        <time>2021-11-20T14:42:05.000Z</time>
      </trkpt>
      <trkpt lat="43.71412" lon="3.49733">
        <ele>356</ele>
        <time>2021-11-20T14:42:11.000Z</time>
      </trkpt>
      <trkpt lat="43.71412" lon="3.49726">
        <ele>356</ele>
        <time>2021-11-20T14:42:16.000Z</time>
      </trkpt>
      <trkpt lat="43.71413" lon="3.4972">
        <ele>356</ele>
        <time>2021-11-20T14:42:21.000Z</time>
      </trkpt>
      <trkpt lat="43.71412" lon="3.49713">
        <ele>356</ele>
        <time>2021-11-20T14:42:26.000Z</time>
      </trkpt>
      <trkpt lat="43.71412" lon="3.49707">
        <ele>357</ele>
        <time>2021-11-20T14:42:32.000Z</time>
      </trkpt>
      <trkpt lat="43.71411" lon="3.497">
        <ele>358</ele>
        <time>2021-11-20T14:42:37.000Z</time>
      </trkpt>
      <trkpt lat="43.7141" lon="3.49694">
        <ele>358</ele>
        <time>2021-11-20T14:42:42.000Z</time>
      </trkpt>
      <trkpt lat="43.71407" lon="3.49689">
        <ele>359</ele>
        <time>2021-11-20T14:42:47.000Z</time>
      </trkpt>
      <trkpt lat="43.71404" lon="3.49684">
        <ele>359</ele>
        <time>2021-11-20T14:42:53.000Z</time>
      </trkpt>
      <trkpt lat="43.71399" lon="3.4968">
        <ele>360</ele>
        <time>2021-11-20T14:42:58.000Z</time>
      </trkpt>
      <trkpt lat="43.71395" lon="3.49676">
        <ele>360</ele>
        <time>2021-11-20T14:43:03.000Z</time>
      </trkpt>
      <trkpt lat="43.71386" lon="3.49673">
        <ele>361</ele>
        <time>2021-11-20T14:43:12.000Z</time>
      </trkpt>
      <trkpt lat="43.71376" lon="3.49673">
        <ele>362</ele>
        <time>2021-11-20T14:43:21.000Z</time>
      </trkpt>
      <trkpt lat="43.71371" lon="3.49672">
        <ele>362</ele>
        <time>2021-11-20T14:43:26.000Z</time>
      </trkpt>
      <trkpt lat="43.71367" lon="3.49672">
        <ele>362</ele>
        <time>2021-11-20T14:43:31.000Z</time>
      </trkpt>
      <trkpt lat="43.71362" lon="3.49673">
        <ele>362</ele>
        <time>2021-11-20T14:43:35.000Z</time>
      </trkpt>
      <trkpt lat="43.71357" lon="3.49673">
        <ele>362</ele>
        <time>2021-11-20T14:43:40.000Z</time>
      </trkpt>
      <trkpt lat="43.71349" lon="3.49669">
        <ele>363</ele>
        <time>2021-11-20T14:43:48.000Z</time>
      </trkpt>
      <trkpt lat="43.7134" lon="3.49663">
        <ele>363</ele>
        <time>2021-11-20T14:43:56.000Z</time>
      </trkpt>
      <trkpt lat="43.71336" lon="3.49659">
        <ele>364</ele>
        <time>2021-11-20T14:44:02.000Z</time>
      </trkpt>
      <trkpt lat="43.71332" lon="3.49656">
        <ele>364</ele>
        <time>2021-11-20T14:44:07.000Z</time>
      </trkpt>
      <trkpt lat="43.71328" lon="3.49652">
        <ele>364</ele>
        <time>2021-11-20T14:44:13.000Z</time>
      </trkpt>
      <trkpt lat="43.71325" lon="3.49648">
        <ele>365</ele>
        <time>2021-11-20T14:44:18.000Z</time>
      </trkpt>
      <trkpt lat="43.71321" lon="3.49644">
        <ele>365</ele>
        <time>2021-11-20T14:44:21.000Z</time>
      </trkpt>
      <trkpt lat="43.71317" lon="3.4964">
        <ele>365</ele>
        <time>2021-11-20T14:44:25.000Z</time>
      </trkpt>
      <trkpt lat="43.71313" lon="3.49636">
        <ele>364</ele>
        <time>2021-11-20T14:44:28.000Z</time>
      </trkpt>
      <trkpt lat="43.7131" lon="3.49632">
        <ele>364</ele>
        <time>2021-11-20T14:44:31.000Z</time>
      </trkpt>
      <trkpt lat="43.71307" lon="3.49629">
        <ele>364</ele>
        <time>2021-11-20T14:44:34.000Z</time>
      </trkpt>
      <trkpt lat="43.71305" lon="3.49626">
        <ele>364</ele>
        <time>2021-11-20T14:44:36.000Z</time>
      </trkpt>
      <trkpt lat="43.71303" lon="3.49624">
        <ele>364</ele>
        <time>2021-11-20T14:44:39.000Z</time>
      </trkpt>
      <trkpt lat="43.71301" lon="3.49621">
        <ele>364</ele>
        <time>2021-11-20T14:44:41.000Z</time>
      </trkpt>
      <trkpt lat="43.713" lon="3.4962">
        <ele>364</ele>
        <time>2021-11-20T14:44:41.000Z</time>
      </trkpt>
      <trkpt lat="43.713" lon="3.4962">
        <ele>364</ele>
        <time>2021-11-20T14:44:42.000Z</time>
      </trkpt>
      <trkpt lat="43.713" lon="3.4962">
        <ele>364</ele>
        <time>2021-11-20T14:44:42.000Z</time>
      </trkpt>
      <trkpt lat="43.71301" lon="3.49621">
        <ele>364</ele>
        <time>2021-11-20T14:44:42.000Z</time>
      </trkpt>
      <trkpt lat="43.713" lon="3.49621">
        <ele>364</ele>
        <time>2021-11-20T14:44:43.000Z</time>
      </trkpt>
      <trkpt lat="43.713" lon="3.49621">
        <ele>364</ele>
        <time>2021-11-20T14:44:44.000Z</time>
      </trkpt>
      <trkpt lat="43.71299" lon="3.49622">
        <ele>364</ele>
        <time>2021-11-20T14:44:44.000Z</time>
      </trkpt>
      <trkpt lat="43.71299" lon="3.49622">
        <ele>364</ele>
        <time>2021-11-20T14:44:45.000Z</time>
      </trkpt>
      <trkpt lat="43.71297" lon="3.49622">
        <ele>364</ele>
        <time>2021-11-20T14:44:47.000Z</time>
      </trkpt>
      <trkpt lat="43.71296" lon="3.49621">
        <ele>364</ele>
        <time>2021-11-20T14:44:49.000Z</time>
      </trkpt>
      <trkpt lat="43.71295" lon="3.49621">
        <ele>364</ele>
        <time>2021-11-20T14:44:50.000Z</time>
      </trkpt>
      <trkpt lat="43.71293" lon="3.4962">
        <ele>364</ele>
        <time>2021-11-20T14:44:52.000Z</time>
      </trkpt>
      <trkpt lat="43.7129" lon="3.49618">
        <ele>363</ele>
        <time>2021-11-20T14:44:57.000Z</time>
      </trkpt>
      <trkpt lat="43.71286" lon="3.49615">
        <ele>363</ele>
        <time>2021-11-20T14:45:02.000Z</time>
      </trkpt>
      <trkpt lat="43.71281" lon="3.49613">
        <ele>363</ele>
        <time>2021-11-20T14:45:07.000Z</time>
      </trkpt>
      <trkpt lat="43.71276" lon="3.4961">
        <ele>363</ele>
        <time>2021-11-20T14:45:12.000Z</time>
      </trkpt>
      <trkpt lat="43.71272" lon="3.49607">
        <ele>362</ele>
        <time>2021-11-20T14:45:17.000Z</time>
      </trkpt>
      <trkpt lat="43.71268" lon="3.49604">
        <ele>362</ele>
        <time>2021-11-20T14:45:21.000Z</time>
      </trkpt>
      <trkpt lat="43.71263" lon="3.49602">
        <ele>362</ele>
        <time>2021-11-20T14:45:26.000Z</time>
      </trkpt>
      <trkpt lat="43.71259" lon="3.49599">
        <ele>361</ele>
        <time>2021-11-20T14:45:30.000Z</time>
      </trkpt>
      <trkpt lat="43.71254" lon="3.49597">
        <ele>361</ele>
        <time>2021-11-20T14:45:34.000Z</time>
      </trkpt>
      <trkpt lat="43.71249" lon="3.49596">
        <ele>361</ele>
        <time>2021-11-20T14:45:38.000Z</time>
      </trkpt>
      <trkpt lat="43.71244" lon="3.49594">
        <ele>360</ele>
        <time>2021-11-20T14:45:42.000Z</time>
      </trkpt>
      <trkpt lat="43.71239" lon="3.49593">
        <ele>360</ele>
        <time>2021-11-20T14:45:46.000Z</time>
      </trkpt>
      <trkpt lat="43.71233" lon="3.49585">
        <ele>360</ele>
        <time>2021-11-20T14:45:54.000Z</time>
      </trkpt>
      <trkpt lat="43.71227" lon="3.49574">
        <ele>359</ele>
        <time>2021-11-20T14:46:01.000Z</time>
      </trkpt>
      <trkpt lat="43.71227" lon="3.49567">
        <ele>360</ele>
        <time>2021-11-20T14:46:08.000Z</time>
      </trkpt>
      <trkpt lat="43.71229" lon="3.49559">
        <ele>360</ele>
        <time>2021-11-20T14:46:15.000Z</time>
      </trkpt>
      <trkpt lat="43.71232" lon="3.49551">
        <ele>360</ele>
        <time>2021-11-20T14:46:21.000Z</time>
      </trkpt>
      <trkpt lat="43.71236" lon="3.49543">
        <ele>361</ele>
        <time>2021-11-20T14:46:28.000Z</time>
      </trkpt>
      <trkpt lat="43.71236" lon="3.49529">
        <ele>361</ele>
        <time>2021-11-20T14:46:35.000Z</time>
      </trkpt>
      <trkpt lat="43.71233" lon="3.49517">
        <ele>361</ele>
        <time>2021-11-20T14:46:42.000Z</time>
      </trkpt>
      <trkpt lat="43.71232" lon="3.4951">
        <ele>361</ele>
        <time>2021-11-20T14:46:47.000Z</time>
      </trkpt>
      <trkpt lat="43.7123" lon="3.49504">
        <ele>361</ele>
        <time>2021-11-20T14:46:52.000Z</time>
      </trkpt>
      <trkpt lat="43.71228" lon="3.49497">
        <ele>361</ele>
        <time>2021-11-20T14:46:57.000Z</time>
      </trkpt>
      <trkpt lat="43.71227" lon="3.49491">
        <ele>361</ele>
        <time>2021-11-20T14:47:02.000Z</time>
      </trkpt>
      <trkpt lat="43.71225" lon="3.49485">
        <ele>361</ele>
        <time>2021-11-20T14:47:07.000Z</time>
      </trkpt>
      <trkpt lat="43.71223" lon="3.49479">
        <ele>361</ele>
        <time>2021-11-20T14:47:13.000Z</time>
      </trkpt>
      <trkpt lat="43.71222" lon="3.49473">
        <ele>362</ele>
        <time>2021-11-20T14:47:18.000Z</time>
      </trkpt>
      <trkpt lat="43.71221" lon="3.49467">
        <ele>362</ele>
        <time>2021-11-20T14:47:23.000Z</time>
      </trkpt>
      <trkpt lat="43.7122" lon="3.49461">
        <ele>362</ele>
        <time>2021-11-20T14:47:29.000Z</time>
      </trkpt>
      <trkpt lat="43.71218" lon="3.49455">
        <ele>363</ele>
        <time>2021-11-20T14:47:34.000Z</time>
      </trkpt>
      <trkpt lat="43.71217" lon="3.49448">
        <ele>363</ele>
        <time>2021-11-20T14:47:40.000Z</time>
      </trkpt>
      <trkpt lat="43.71216" lon="3.49442">
        <ele>363</ele>
        <time>2021-11-20T14:47:45.000Z</time>
      </trkpt>
      <trkpt lat="43.71215" lon="3.49436">
        <ele>364</ele>
        <time>2021-11-20T14:47:50.000Z</time>
      </trkpt>
      <trkpt lat="43.71215" lon="3.49429">
        <ele>364</ele>
        <time>2021-11-20T14:47:56.000Z</time>
      </trkpt>
      <trkpt lat="43.71214" lon="3.49423">
        <ele>365</ele>
        <time>2021-11-20T14:48:01.000Z</time>
      </trkpt>
      <trkpt lat="43.71214" lon="3.49416">
        <ele>366</ele>
        <time>2021-11-20T14:48:06.000Z</time>
      </trkpt>
      <trkpt lat="43.71214" lon="3.4941">
        <ele>366</ele>
        <time>2021-11-20T14:48:13.000Z</time>
      </trkpt>
      <trkpt lat="43.71213" lon="3.49404">
        <ele>367</ele>
        <time>2021-11-20T14:48:20.000Z</time>
      </trkpt>
      <trkpt lat="43.71212" lon="3.49398">
        <ele>367</ele>
        <time>2021-11-20T14:48:26.000Z</time>
      </trkpt>
      <trkpt lat="43.71212" lon="3.49391">
        <ele>368</ele>
        <time>2021-11-20T14:48:33.000Z</time>
      </trkpt>
      <trkpt lat="43.7121" lon="3.49387">
        <ele>368</ele>
        <time>2021-11-20T14:48:36.000Z</time>
      </trkpt>
      <trkpt lat="43.71209" lon="3.49387">
        <ele>368</ele>
        <time>2021-11-20T14:48:39.000Z</time>
      </trkpt>
      <trkpt lat="43.71201" lon="3.49384">
        <ele>368</ele>
        <time>2021-11-20T14:48:49.000Z</time>
      </trkpt>
      <trkpt lat="43.71191" lon="3.49382">
        <ele>368</ele>
        <time>2021-11-20T14:48:59.000Z</time>
      </trkpt>
      <trkpt lat="43.71191" lon="3.49382">
        <ele>368</ele>
        <time>2021-11-20T14:49:03.000Z</time>
      </trkpt>
    </trkseg>
  </trk>
</gpx>